Wetterdaten: Donnerstag, 31.08.2017
Datum Zeit Temp. A. Pool Temp. Feuchte A. Luftdruck Regen Wind Richtung Richtung Sonnenschein ET UV Solar Taupunkt Windchill Windben Empfang
31.08.2017 00:00 18,1 C 23,9 C 87 % 1009,6 hPa 0,0 l/m 0,3 km/h (0 Bft) O-NO 72 0 min 0,000 mm 0,0 UV-I 0 W/m 15,9 C 18,1 C 1,6 km/h (1 Bft) 98,11 %
31.08.2017 00:02 18,1 C 23,9 C 87 % 1009,6 hPa 0,0 l/m 0,0 km/h (0 Bft) O-NO 72 0 min 0,000 mm 0,0 UV-I 0 W/m 15,9 C 18,1 C 0,0 km/h (0 Bft) 100,00 %
31.08.2017 00:04 18,0 C 23,9 C 87 % 1009,6 hPa 0,0 l/m 0,3 km/h (0 Bft) O-NO 72 0 min 0,000 mm 0,0 UV-I 0 W/m 15,8 C 18,0 C 1,6 km/h (1 Bft) 100,00 %
31.08.2017 00:06 18,0 C 23,9 C 87 % 1009,5 hPa 0,0 l/m 2,6 km/h (1 Bft) N-NO 29 0 min 0,000 mm 0,0 UV-I 0 W/m 15,8 C 18,0 C 4,8 km/h (1 Bft) 100,00 %
31.08.2017 00:08 18,0 C 23,9 C 87 % 1009,5 hPa 0,0 l/m 4,5 km/h (1 Bft) N-NO 32 0 min 0,000 mm 0,0 UV-I 0 W/m 15,8 C 18,0 C 6,4 km/h (2 Bft) 97,87 %
31.08.2017 00:10 18,0 C 23,9 C 87 % 1009,4 hPa 0,0 l/m 3,6 km/h (1 Bft) NO 38 0 min 0,000 mm 0,0 UV-I 0 W/m 15,8 C 18,0 C 6,4 km/h (2 Bft) 100,00 %
31.08.2017 00:12 18,1 C 23,9 C 87 % 1009,4 hPa 0,0 l/m 3,7 km/h (1 Bft) NO 47 0 min 0,000 mm 0,0 UV-I 0 W/m 15,9 C 18,1 C 4,8 km/h (1 Bft) 95,74 %
31.08.2017 00:14 18,2 C 23,9 C 87 % 1009,4 hPa 0,0 l/m 4,0 km/h (1 Bft) NO 52 0 min 0,000 mm 0,0 UV-I 0 W/m 16,0 C 18,2 C 6,4 km/h (2 Bft) 100,00 %
31.08.2017 00:16 18,2 C 23,9 C 86 % 1009,3 hPa 0,0 l/m 5,0 km/h (1 Bft) O-NO 69 0 min 0,000 mm 0,0 UV-I 0 W/m 15,8 C 18,2 C 6,4 km/h (2 Bft) 100,00 %
31.08.2017 00:18 18,3 C 23,9 C 86 % 1009,2 hPa 0,0 l/m 5,2 km/h (1 Bft) O-NO 69 0 min 0,000 mm 0,0 UV-I 0 W/m 15,9 C 18,3 C 6,4 km/h (2 Bft) 97,87 %
31.08.2017 00:20 18,3 C 23,9 C 85 % 1009,2 hPa 0,0 l/m 4,8 km/h (1 Bft) O-NO 69 0 min 0,000 mm 0,0 UV-I 0 W/m 15,7 C 18,3 C 6,4 km/h (2 Bft) 97,87 %
31.08.2017 00:22 18,3 C 23,9 C 85 % 1009,2 hPa 0,0 l/m 4,7 km/h (1 Bft) O-NO 65 0 min 0,000 mm 0,0 UV-I 0 W/m 15,7 C 18,3 C 6,4 km/h (2 Bft) 95,74 %
31.08.2017 00:24 18,3 C 23,9 C 85 % 1009,1 hPa 0,0 l/m 5,0 km/h (1 Bft) NO 54 0 min 0,000 mm 0,0 UV-I 0 W/m 15,7 C 18,3 C 6,4 km/h (2 Bft) 97,87 %
31.08.2017 00:26 18,4 C 23,9 C 85 % 1009,1 hPa 0,0 l/m 5,3 km/h (1 Bft) O-NO 72 0 min 0,000 mm 0,0 UV-I 0 W/m 15,8 C 18,4 C 8,0 km/h (2 Bft) 100,00 %
31.08.2017 00:28 18,4 C 23,9 C 85 % 1009,1 hPa 0,0 l/m 6,5 km/h (2 Bft) O-NO 71 0 min 0,000 mm 0,0 UV-I 0 W/m 15,8 C 18,4 C 9,7 km/h (2 Bft) 97,92 %
31.08.2017 00:30 18,4 C 23,9 C 85 % 1009,1 hPa 0,0 l/m 7,6 km/h (2 Bft) O-NO 68 0 min 0,000 mm 0,0 UV-I 0 W/m 15,8 C 17,8 C 11,3 km/h (2 Bft) 100,00 %
31.08.2017 00:32 18,4 C 23,9 C 84 % 1009,1 hPa 0,0 l/m 7,5 km/h (2 Bft) O-NO 58 0 min 0,000 mm 0,0 UV-I 0 W/m 15,6 C 17,9 C 12,9 km/h (3 Bft) 97,87 %
31.08.2017 00:34 18,4 C 23,9 C 84 % 1009,1 hPa 0,0 l/m 8,3 km/h (2 Bft) O 81 0 min 0,000 mm 0,0 UV-I 0 W/m 15,6 C 17,5 C 12,9 km/h (3 Bft) 100,00 %
31.08.2017 00:36 18,4 C 23,9 C 84 % 1009,1 hPa 0,0 l/m 7,2 km/h (2 Bft) O-NO 58 0 min 0,000 mm 0,0 UV-I 0 W/m 15,6 C 18,0 C 11,3 km/h (2 Bft) 100,00 %
31.08.2017 00:38 18,4 C 23,9 C 84 % 1009,1 hPa 0,0 l/m 5,3 km/h (1 Bft) NO 56 0 min 0,000 mm 0,0 UV-I 0 W/m 15,6 C 18,4 C 8,0 km/h (2 Bft) 100,00 %
31.08.2017 00:40 18,4 C 23,9 C 83 % 1009,2 hPa 0,0 l/m 3,7 km/h (1 Bft) O-NO 67 0 min 0,000 mm 0,0 UV-I 0 W/m 15,5 C 18,4 C 6,4 km/h (2 Bft) 100,00 %
31.08.2017 00:42 18,4 C 23,9 C 83 % 1009,2 hPa 0,0 l/m 1,4 km/h (1 Bft) O-NO 67 0 min 0,000 mm 0,0 UV-I 0 W/m 15,5 C 18,4 C 3,2 km/h (1 Bft) 100,00 %
31.08.2017 00:44 18,3 C 23,9 C 83 % 1009,2 hPa 0,0 l/m 2,1 km/h (1 Bft) O-NO 67 0 min 0,000 mm 0,0 UV-I 0 W/m 15,4 C 18,3 C 3,2 km/h (1 Bft) 100,00 %
31.08.2017 00:46 18,2 C 23,9 C 83 % 1009,3 hPa 0,0 l/m 0,4 km/h (0 Bft) O-NO 67 0 min 0,000 mm 0,0 UV-I 0 W/m 15,3 C 18,2 C 1,6 km/h (1 Bft) 100,00 %
31.08.2017 00:48 17,9 C 23,9 C 84 % 1009,3 hPa 0,0 l/m 0,8 km/h (0 Bft) O-NO 67 0 min 0,000 mm 0,0 UV-I 0 W/m 15,2 C 17,9 C 1,6 km/h (1 Bft) 100,00 %
31.08.2017 00:50 17,7 C 23,9 C 85 % 1009,3 hPa 0,0 l/m 0,4 km/h (0 Bft) O-NO 67 0 min 0,000 mm 0,0 UV-I 0 W/m 15,1 C 17,7 C 1,6 km/h (1 Bft) 98,00 %
31.08.2017 00:52 17,6 C 23,9 C 85 % 1009,3 hPa 0,0 l/m 0,0 km/h (0 Bft) O-NO 67 0 min 0,000 mm 0,0 UV-I 0 W/m 15,0 C 17,6 C 0,0 km/h (0 Bft) 100,00 %
31.08.2017 00:54 17,5 C 23,9 C 86 % 1009,2 hPa 0,0 l/m 0,1 km/h (0 Bft) O-NO 67 0 min 0,000 mm 0,0 UV-I 0 W/m 15,1 C 17,5 C 1,6 km/h (1 Bft) 93,62 %
31.08.2017 00:56 17,4 C 23,9 C 86 % 1009,2 hPa 0,0 l/m 0,4 km/h (0 Bft) O-NO 67 0 min 0,000 mm 0,0 UV-I 0 W/m 15,0 C 17,4 C 1,6 km/h (1 Bft) 97,87 %
31.08.2017 00:58 17,3 C 23,9 C 87 % 1009,1 hPa 0,0 l/m 4,6 km/h (1 Bft) NO 44 0 min 0,000 mm 0,0 UV-I 0 W/m 15,1 C 17,3 C 6,4 km/h (2 Bft) 97,87 %
31.08.2017 01:00 17,3 C 23,9 C 87 % 1009,1 hPa 0,0 l/m 5,6 km/h (1 Bft) NO 35 0 min 0,000 mm 0,0 UV-I 0 W/m 15,1 C 17,3 C 6,4 km/h (2 Bft) 97,87 %
31.08.2017 01:02 17,3 C 23,9 C 87 % 1009,1 hPa 0,0 l/m 5,4 km/h (1 Bft) O-NO 57 0 min 0,000 mm 0,0 UV-I 0 W/m 15,1 C 17,3 C 6,4 km/h (2 Bft) 97,37 %
31.08.2017 01:04 17,3 C 23,9 C 87 % 1009,1 hPa 0,0 l/m 5,7 km/h (1 Bft) NO 53 0 min 0,000 mm 0,0 UV-I 0 W/m 15,1 C 17,3 C 8,0 km/h (2 Bft) 96,00 %
31.08.2017 01:06 17,4 C 23,9 C 87 % 1009,1 hPa 0,0 l/m 5,6 km/h (1 Bft) O-NO 59 0 min 0,000 mm 0,0 UV-I 0 W/m 15,2 C 17,4 C 6,4 km/h (2 Bft) 94,00 %
31.08.2017 01:08 17,4 C 23,9 C 87 % 1009,1 hPa 0,0 l/m 4,9 km/h (1 Bft) NO 56 0 min 0,000 mm 0,0 UV-I 0 W/m 15,2 C 17,4 C 6,4 km/h (2 Bft) 97,87 %
31.08.2017 01:10 17,5 C 23,9 C 86 % 1009,1 hPa 0,0 l/m 2,8 km/h (1 Bft) NO 56 0 min 0,000 mm 0,0 UV-I 0 W/m 15,1 C 17,5 C 4,8 km/h (1 Bft) 97,37 %
31.08.2017 01:12 17,5 C 23,9 C 86 % 1009,1 hPa 0,0 l/m 3,3 km/h (1 Bft) NO 56 0 min 0,000 mm 0,0 UV-I 0 W/m 15,1 C 17,5 C 4,8 km/h (1 Bft) 93,62 %
31.08.2017 01:14 17,5 C 23,9 C 86 % 1009,0 hPa 0,0 l/m 1,6 km/h (1 Bft) NO 56 0 min 0,000 mm 0,0 UV-I 0 W/m 15,1 C 17,5 C 3,2 km/h (1 Bft) 97,87 %
31.08.2017 01:16 17,5 C 23,9 C 86 % 1008,9 hPa 0,0 l/m 3,1 km/h (1 Bft) NO 56 0 min 0,000 mm 0,0 UV-I 0 W/m 15,1 C 17,5 C 4,8 km/h (1 Bft) 97,87 %
31.08.2017 01:18 17,5 C 23,9 C 86 % 1008,8 hPa 0,0 l/m 2,9 km/h (1 Bft) NO 56 0 min 0,000 mm 0,0 UV-I 0 W/m 15,1 C 17,5 C 4,8 km/h (1 Bft) 96,00 %
31.08.2017 01:20 17,5 C 23,9 C 86 % 1008,8 hPa 0,0 l/m 4,2 km/h (1 Bft) O-NO 74 0 min 0,000 mm 0,0 UV-I 0 W/m 15,1 C 17,5 C 6,4 km/h (2 Bft) 95,83 %
31.08.2017 01:22 17,4 C 23,9 C 86 % 1008,8 hPa 0,0 l/m 4,6 km/h (1 Bft) O-NO 74 0 min 0,000 mm 0,0 UV-I 0 W/m 15,0 C 17,4 C 6,4 km/h (2 Bft) 93,62 %
31.08.2017 01:24 17,3 C 23,9 C 86 % 1008,8 hPa 0,0 l/m 2,9 km/h (1 Bft) O-NO 74 0 min 0,000 mm 0,0 UV-I 0 W/m 14,9 C 17,3 C 4,8 km/h (1 Bft) 96,00 %
31.08.2017 01:26 17,2 C 23,9 C 87 % 1008,8 hPa 0,0 l/m 0,8 km/h (0 Bft) O-NO 74 0 min 0,000 mm 0,0 UV-I 0 W/m 15,0 C 17,2 C 3,2 km/h (1 Bft) 93,62 %
31.08.2017 01:28 17,2 C 23,9 C 87 % 1008,8 hPa 0,0 l/m 0,0 km/h (0 Bft) O-NO 74 0 min 0,000 mm 0,0 UV-I 0 W/m 15,0 C 17,2 C 0,0 km/h (0 Bft) 93,62 %
31.08.2017 01:30 17,2 C 23,9 C 87 % 1008,8 hPa 0,0 l/m 0,0 km/h (0 Bft) O-NO 74 0 min 0,000 mm 0,0 UV-I 0 W/m 15,0 C 17,2 C 0,0 km/h (0 Bft) 91,49 %
31.08.2017 01:32 17,2 C 23,9 C 87 % 1008,9 hPa 0,0 l/m 0,7 km/h (0 Bft) O-NO 74 0 min 0,000 mm 0,0 UV-I 0 W/m 15,0 C 17,2 C 1,6 km/h (1 Bft) 93,62 %
31.08.2017 01:34 17,1 C 23,9 C 87 % 1008,9 hPa 0,0 l/m 0,2 km/h (0 Bft) O-NO 74 0 min 0,000 mm 0,0 UV-I 0 W/m 14,9 C 17,1 C 1,6 km/h (1 Bft) 95,74 %
31.08.2017 01:36 16,9 C 23,9 C 87 % 1009,0 hPa 0,0 l/m 0,0 km/h (0 Bft) O-NO 74 0 min 0,000 mm 0,0 UV-I 0 W/m 14,7 C 16,9 C 0,0 km/h (0 Bft) 94,00 %
31.08.2017 01:38 16,8 C 23,9 C 87 % 1009,0 hPa 0,0 l/m 0,0 km/h (0 Bft) O-NO 74 0 min 0,000 mm 0,0 UV-I 0 W/m 14,6 C 16,8 C 0,0 km/h (0 Bft) 94,29 %
31.08.2017 01:40 16,7 C 23,9 C 88 % 1009,0 hPa 0,0 l/m 0,1 km/h (0 Bft) O-NO 74 0 min 0,000 mm 0,0 UV-I 0 W/m 14,7 C 16,7 C 1,6 km/h (1 Bft) 95,74 %
31.08.2017 01:42 16,6 C 23,9 C 88 % 1009,0 hPa 0,0 l/m 1,2 km/h (1 Bft) O-NO 74 0 min 0,000 mm 0,0 UV-I 0 W/m 14,6 C 16,6 C 3,2 km/h (1 Bft) 93,62 %
31.08.2017 01:44 16,6 C 23,9 C 88 % 1008,9 hPa 0,0 l/m 0,6 km/h (0 Bft) O-NO 74 0 min 0,000 mm 0,0 UV-I 0 W/m 14,6 C 16,6 C 1,6 km/h (1 Bft) 95,74 %
31.08.2017 01:46 16,6 C 23,9 C 89 % 1008,9 hPa 0,0 l/m 0,0 km/h (0 Bft) O-NO 74 0 min 0,000 mm 0,0 UV-I 0 W/m 14,8 C 16,6 C 0,0 km/h (0 Bft) 90,00 %
31.08.2017 01:48 16,6 C 23,9 C 89 % 1008,9 hPa 0,0 l/m 0,0 km/h (0 Bft) O-NO 74 0 min 0,000 mm 0,0 UV-I 0 W/m 14,8 C 16,6 C 0,0 km/h (0 Bft) 92,00 %
31.08.2017 01:50 16,6 C 23,9 C 89 % 1008,9 hPa 0,0 l/m 0,0 km/h (0 Bft) O-NO 74 0 min 0,000 mm 0,0 UV-I 0 W/m 14,8 C 16,6 C 0,0 km/h (0 Bft) 94,00 %
31.08.2017 01:52 16,5 C 23,9 C 89 % 1009,0 hPa 0,0 l/m 0,7 km/h (0 Bft) O-NO 74 0 min 0,000 mm 0,0 UV-I 0 W/m 14,7 C 16,5 C 1,6 km/h (1 Bft) 97,87 %
31.08.2017 01:54 16,4 C 23,9 C 89 % 1009,0 hPa 0,0 l/m 1,1 km/h (1 Bft) O-NO 74 0 min 0,000 mm 0,0 UV-I 0 W/m 14,6 C 16,4 C 1,6 km/h (1 Bft) 97,87 %
31.08.2017 01:56 16,2 C 23,9 C 89 % 1009,0 hPa 0,0 l/m 1,9 km/h (1 Bft) O-NO 74 0 min 0,000 mm 0,0 UV-I 0 W/m 14,4 C 16,2 C 3,2 km/h (1 Bft) 100,00 %
31.08.2017 01:58 16,1 C 23,9 C 89 % 1008,9 hPa 0,0 l/m 2,6 km/h (1 Bft) O-NO 74 0 min 0,000 mm 0,0 UV-I 0 W/m 14,3 C 16,1 C 3,2 km/h (1 Bft) 100,00 %
31.08.2017 02:00 16,1 C 23,9 C 89 % 1008,9 hPa 0,0 l/m 3,4 km/h (1 Bft) O-NO 74 0 min 0,000 mm 0,0 UV-I 0 W/m 14,3 C 16,1 C 4,8 km/h (1 Bft) 100,00 %
31.08.2017 02:02 16,1 C 23,9 C 90 % 1008,9 hPa 0,0 l/m 2,0 km/h (1 Bft) O-NO 74 0 min 0,000 mm 0,0 UV-I 0 W/m 14,5 C 16,1 C 3,2 km/h (1 Bft) 100,00 %
31.08.2017 02:04 16,1 C 23,9 C 90 % 1008,9 hPa 0,0 l/m 0,2 km/h (0 Bft) O-NO 74 0 min 0,000 mm 0,0 UV-I 0 W/m 14,5 C 16,1 C 1,6 km/h (1 Bft) 96,00 %
31.08.2017 02:06 16,1 C 23,9 C 90 % 1008,9 hPa 0,0 l/m 0,6 km/h (0 Bft) O-NO 74 0 min 0,000 mm 0,0 UV-I 0 W/m 14,5 C 16,1 C 3,2 km/h (1 Bft) 97,87 %
31.08.2017 02:08 16,1 C 23,9 C 90 % 1008,9 hPa 0,0 l/m 3,1 km/h (1 Bft) SW 218 0 min 0,000 mm 0,0 UV-I 0 W/m 14,5 C 16,1 C 4,8 km/h (1 Bft) 100,00 %
31.08.2017 02:10 16,1 C 23,9 C 89 % 1009,0 hPa 0,0 l/m 4,4 km/h (1 Bft) SW 218 0 min 0,000 mm 0,0 UV-I 0 W/m 14,3 C 16,1 C 6,4 km/h (2 Bft) 95,74 %
31.08.2017 02:12 16,0 C 23,9 C 90 % 1008,9 hPa 0,0 l/m 3,2 km/h (1 Bft) SW 218 0 min 0,000 mm 0,0 UV-I 0 W/m 14,4 C 16,0 C 4,8 km/h (1 Bft) 100,00 %
31.08.2017 02:14 15,9 C 23,9 C 90 % 1009,0 hPa 0,0 l/m 2,4 km/h (1 Bft) SW 218 0 min 0,000 mm 0,0 UV-I 0 W/m 14,3 C 15,9 C 3,2 km/h (1 Bft) 100,00 %
31.08.2017 02:16 15,8 C 23,3 C 90 % 1008,9 hPa 0,0 l/m 1,2 km/h (1 Bft) SW 218 0 min 0,000 mm 0,0 UV-I 0 W/m 14,2 C 15,8 C 3,2 km/h (1 Bft) 97,87 %
31.08.2017 02:18 15,8 C 23,3 C 90 % 1008,9 hPa 0,0 l/m 0,9 km/h (0 Bft) SW 218 0 min 0,000 mm 0,0 UV-I 0 W/m 14,2 C 15,8 C 3,2 km/h (1 Bft) 100,00 %
31.08.2017 02:20 15,8 C 23,3 C 90 % 1008,9 hPa 0,0 l/m 2,1 km/h (1 Bft) SW 218 0 min 0,000 mm 0,0 UV-I 0 W/m 14,2 C 15,8 C 3,2 km/h (1 Bft) 100,00 %
31.08.2017 02:22 15,7 C 23,3 C 90 % 1008,9 hPa 0,0 l/m 0,1 km/h (0 Bft) SW 218 0 min 0,000 mm 0,0 UV-I 0 W/m 14,1 C 15,7 C 1,6 km/h (1 Bft) 97,87 %
31.08.2017 02:24 15,7 C 23,3 C 91 % 1008,9 hPa 0,0 l/m 2,8 km/h (1 Bft) SW 218 0 min 0,000 mm 0,0 UV-I 0 W/m 14,2 C 15,7 C 4,8 km/h (1 Bft) 100,00 %
31.08.2017 02:26 15,6 C 23,3 C 91 % 1008,8 hPa 0,0 l/m 3,3 km/h (1 Bft) SW 217 0 min 0,000 mm 0,0 UV-I 0 W/m 14,1 C 15,6 C 4,8 km/h (1 Bft) 97,87 %
31.08.2017 02:28 15,6 C 23,3 C 91 % 1008,8 hPa 0,0 l/m 2,9 km/h (1 Bft) SW 217 0 min 0,000 mm 0,0 UV-I 0 W/m 14,1 C 15,6 C 3,2 km/h (1 Bft) 100,00 %
31.08.2017 02:30 15,6 C 23,3 C 91 % 1008,8 hPa 0,0 l/m 2,4 km/h (1 Bft) SW 217 0 min 0,000 mm 0,0 UV-I 0 W/m 14,1 C 15,6 C 3,2 km/h (1 Bft) 100,00 %
31.08.2017 02:32 15,6 C 23,3 C 91 % 1008,8 hPa 0,0 l/m 0,1 km/h (0 Bft) SW 217 0 min 0,000 mm 0,0 UV-I 0 W/m 14,1 C 15,6 C 1,6 km/h (1 Bft) 100,00 %
31.08.2017 02:34 15,6 C 23,3 C 91 % 1008,8 hPa 0,0 l/m 0,0 km/h (0 Bft) SW 217 0 min 0,000 mm 0,0 UV-I 0 W/m 14,1 C 15,6 C 0,0 km/h (0 Bft) 100,00 %
31.08.2017 02:36 15,6 C 23,3 C 91 % 1008,9 hPa 0,0 l/m 0,0 km/h (0 Bft) SW 217 0 min 0,000 mm 0,0 UV-I 0 W/m 14,1 C 15,6 C 0,0 km/h (0 Bft) 100,00 %
31.08.2017 02:38 15,6 C 23,3 C 91 % 1008,9 hPa 0,0 l/m 0,0 km/h (0 Bft) SW 217 0 min 0,000 mm 0,0 UV-I 0 W/m 14,1 C 15,6 C 0,0 km/h (0 Bft) 100,00 %
31.08.2017 02:40 15,7 C 23,3 C 91 % 1008,8 hPa 0,0 l/m 0,0 km/h (0 Bft) SW 217 0 min 0,000 mm 0,0 UV-I 0 W/m 14,2 C 15,7 C 0,0 km/h (0 Bft) 100,00 %
31.08.2017 02:42 15,7 C 23,3 C 91 % 1008,8 hPa 0,0 l/m 0,0 km/h (0 Bft) SW 217 0 min 0,000 mm 0,0 UV-I 0 W/m 14,2 C 15,7 C 0,0 km/h (0 Bft) 100,00 %
31.08.2017 02:44 15,7 C 23,3 C 91 % 1008,9 hPa 0,0 l/m 0,3 km/h (0 Bft) SW 217 0 min 0,000 mm 0,0 UV-I 0 W/m 14,2 C 15,7 C 3,2 km/h (1 Bft) 100,00 %
31.08.2017 02:46 15,7 C 23,3 C 90 % 1008,9 hPa 0,0 l/m 2,9 km/h (1 Bft) SW 217 0 min 0,000 mm 0,0 UV-I 0 W/m 14,1 C 15,7 C 3,2 km/h (1 Bft) 100,00 %
31.08.2017 02:48 15,8 C 23,3 C 90 % 1008,8 hPa 0,0 l/m 3,0 km/h (1 Bft) SW 217 0 min 0,000 mm 0,0 UV-I 0 W/m 14,2 C 15,8 C 4,8 km/h (1 Bft) 97,87 %
31.08.2017 02:50 15,9 C 23,3 C 90 % 1008,8 hPa 0,0 l/m 0,7 km/h (0 Bft) SW 217 0 min 0,000 mm 0,0 UV-I 0 W/m 14,3 C 15,9 C 3,2 km/h (1 Bft) 97,87 %
31.08.2017 02:52 15,9 C 23,3 C 90 % 1008,9 hPa 0,0 l/m 0,0 km/h (0 Bft) SW 217 0 min 0,000 mm 0,0 UV-I 0 W/m 14,3 C 15,9 C 0,0 km/h (0 Bft) 100,00 %
31.08.2017 02:54 15,9 C 23,3 C 90 % 1009,0 hPa 0,0 l/m 0,0 km/h (0 Bft) SW 217 0 min 0,000 mm 0,0 UV-I 0 W/m 14,3 C 15,9 C 0,0 km/h (0 Bft) 100,00 %
31.08.2017 02:56 15,8 C 23,3 C 90 % 1009,0 hPa 0,0 l/m 0,0 km/h (0 Bft) SW 217 0 min 0,000 mm 0,0 UV-I 0 W/m 14,2 C 15,8 C 0,0 km/h (0 Bft) 100,00 %
31.08.2017 02:58 15,8 C 23,3 C 90 % 1009,0 hPa 0,0 l/m 0,7 km/h (0 Bft) SW 217 0 min 0,000 mm 0,0 UV-I 0 W/m 14,2 C 15,8 C 1,6 km/h (1 Bft) 100,00 %
31.08.2017 03:00 15,8 C 23,3 C 90 % 1009,1 hPa 0,0 l/m 1,2 km/h (1 Bft) SW 217 0 min 0,000 mm 0,0 UV-I 0 W/m 14,2 C 15,8 C 1,6 km/h (1 Bft) 100,00 %
31.08.2017 03:02 15,8 C 23,3 C 90 % 1009,0 hPa 0,0 l/m 0,0 km/h (0 Bft) SW 217 0 min 0,000 mm 0,0 UV-I 0 W/m 14,2 C 15,8 C 1,6 km/h (1 Bft) 100,00 %
31.08.2017 03:04 15,7 C 23,3 C 90 % 1009,0 hPa 0,0 l/m 0,0 km/h (0 Bft) SW 217 0 min 0,000 mm 0,0 UV-I 0 W/m 14,1 C 15,7 C 0,0 km/h (0 Bft) 100,00 %
31.08.2017 03:06 15,6 C 23,3 C 90 % 1009,0 hPa 0,0 l/m 0,0 km/h (0 Bft) SW 217 0 min 0,000 mm 0,0 UV-I 0 W/m 14,0 C 15,6 C 0,0 km/h (0 Bft) 100,00 %
31.08.2017 03:08 15,5 C 23,3 C 91 % 1009,1 hPa 0,0 l/m 0,0 km/h (0 Bft) SW 217 0 min 0,000 mm 0,0 UV-I 0 W/m 14,0 C 15,5 C 0,0 km/h (0 Bft) 97,14 %
31.08.2017 03:10 15,4 C 23,3 C 91 % 1009,1 hPa 0,0 l/m 0,2 km/h (0 Bft) SW 217 0 min 0,000 mm 0,0 UV-I 0 W/m 13,9 C 15,4 C 1,6 km/h (1 Bft) 97,87 %
31.08.2017 03:12 15,4 C 23,3 C 91 % 1009,0 hPa 0,0 l/m 0,3 km/h (0 Bft) SW 217 0 min 0,000 mm 0,0 UV-I 0 W/m 13,9 C 15,4 C 1,6 km/h (1 Bft) 100,00 %
31.08.2017 03:14 15,3 C 23,3 C 91 % 1009,0 hPa 0,0 l/m 0,0 km/h (0 Bft) SW 217 0 min 0,000 mm 0,0 UV-I 0 W/m 13,8 C 15,3 C 0,0 km/h (0 Bft) 97,92 %
31.08.2017 03:16 15,2 C 23,3 C 91 % 1009,1 hPa 0,0 l/m 0,6 km/h (0 Bft) SW 217 0 min 0,000 mm 0,0 UV-I 0 W/m 13,7 C 15,2 C 3,2 km/h (1 Bft) 100,00 %
31.08.2017 03:18 15,2 C 23,3 C 91 % 1009,1 hPa 0,0 l/m 0,2 km/h (0 Bft) SW 217 0 min 0,000 mm 0,0 UV-I 0 W/m 13,7 C 15,2 C 3,2 km/h (1 Bft) 100,00 %
31.08.2017 03:20 15,2 C 23,3 C 92 % 1009,1 hPa 0,0 l/m 0,8 km/h (0 Bft) SW 217 0 min 0,000 mm 0,0 UV-I 0 W/m 13,9 C 15,2 C 3,2 km/h (1 Bft) 100,00 %
31.08.2017 03:22 15,2 C 23,3 C 92 % 1009,2 hPa 0,0 l/m 2,8 km/h (1 Bft) SW 217 0 min 0,000 mm 0,0 UV-I 0 W/m 13,9 C 15,2 C 4,8 km/h (1 Bft) 97,87 %
31.08.2017 03:24 15,3 C 23,3 C 92 % 1009,2 hPa 0,0 l/m 2,9 km/h (1 Bft) SW 217 0 min 0,000 mm 0,0 UV-I 0 W/m 14,0 C 15,3 C 4,8 km/h (1 Bft) 97,87 %
31.08.2017 03:26 15,3 C 23,3 C 92 % 1009,2 hPa 0,0 l/m 2,0 km/h (1 Bft) SW 217 0 min 0,000 mm 0,0 UV-I 0 W/m 14,0 C 15,3 C 3,2 km/h (1 Bft) 97,87 %
31.08.2017 03:28 15,3 C 23,3 C 92 % 1009,2 hPa 0,0 l/m 0,2 km/h (0 Bft) SW 217 0 min 0,000 mm 0,0 UV-I 0 W/m 14,0 C 15,3 C 3,2 km/h (1 Bft) 96,23 %
31.08.2017 03:30 15,3 C 23,3 C 92 % 1009,2 hPa 0,0 l/m 0,1 km/h (0 Bft) SW 217 0 min 0,000 mm 0,0 UV-I 0 W/m 14,0 C 15,3 C 1,6 km/h (1 Bft) 97,87 %
31.08.2017 03:32 15,3 C 23,3 C 92 % 1009,2 hPa 0,0 l/m 0,7 km/h (0 Bft) SW 217 0 min 0,000 mm 0,0 UV-I 0 W/m 14,0 C 15,3 C 1,6 km/h (1 Bft) 97,87 %
31.08.2017 03:34 15,3 C 23,3 C 92 % 1009,2 hPa 0,0 l/m 2,7 km/h (1 Bft) S-SW 207 0 min 0,000 mm 0,0 UV-I 0 W/m 14,0 C 15,3 C 6,4 km/h (2 Bft) 95,83 %
31.08.2017 03:36 15,3 C 23,3 C 92 % 1009,2 hPa 0,0 l/m 4,7 km/h (1 Bft) S-SW 207 0 min 0,000 mm 0,0 UV-I 0 W/m 14,0 C 15,3 C 6,4 km/h (2 Bft) 97,87 %
31.08.2017 03:38 15,3 C 23,3 C 92 % 1009,3 hPa 0,0 l/m 4,0 km/h (1 Bft) S-SW 207 0 min 0,000 mm 0,0 UV-I 0 W/m 14,0 C 15,3 C 6,4 km/h (2 Bft) 97,87 %
31.08.2017 03:40 15,3 C 23,3 C 92 % 1009,4 hPa 0,0 l/m 4,6 km/h (1 Bft) S-SW 207 0 min 0,000 mm 0,0 UV-I 0 W/m 14,0 C 15,3 C 6,4 km/h (2 Bft) 97,87 %
31.08.2017 03:42 15,3 C 23,3 C 92 % 1009,4 hPa 0,0 l/m 4,6 km/h (1 Bft) S-SW 207 0 min 0,000 mm 0,0 UV-I 0 W/m 14,0 C 15,3 C 6,4 km/h (2 Bft) 97,87 %
31.08.2017 03:44 15,3 C 23,3 C 92 % 1009,5 hPa 0,0 l/m 4,8 km/h (1 Bft) S-SW 207 0 min 0,000 mm 0,0 UV-I 0 W/m 14,0 C 15,3 C 6,4 km/h (2 Bft) 95,74 %
31.08.2017 03:46 15,3 C 23,3 C 92 % 1009,5 hPa 0,0 l/m 5,4 km/h (1 Bft) S-SW 207 0 min 0,000 mm 0,0 UV-I 0 W/m 14,0 C 15,3 C 8,0 km/h (2 Bft) 97,37 %
31.08.2017 03:48 15,4 C 23,3 C 92 % 1009,6 hPa 0,0 l/m 5,9 km/h (2 Bft) S-SW 212 0 min 0,000 mm 0,0 UV-I 0 W/m 14,1 C 15,4 C 8,0 km/h (2 Bft) 97,87 %
31.08.2017 03:50 15,4 C 23,3 C 92 % 1009,7 hPa 0,0 l/m 7,0 km/h (2 Bft) S-SW 208 0 min 0,000 mm 0,0 UV-I 0 W/m 14,1 C 15,1 C 9,7 km/h (2 Bft) 97,87 %
31.08.2017 03:52 15,4 C 23,3 C 92 % 1009,6 hPa 0,0 l/m 5,5 km/h (1 Bft) S-SW 203 0 min 0,000 mm 0,0 UV-I 0 W/m 14,1 C 15,4 C 9,7 km/h (2 Bft) 97,87 %
31.08.2017 03:54 15,4 C 23,3 C 92 % 1009,7 hPa 0,0 l/m 5,6 km/h (1 Bft) S-SW 194 0 min 0,000 mm 0,0 UV-I 0 W/m 14,1 C 15,4 C 8,0 km/h (2 Bft) 95,74 %
31.08.2017 03:56 15,4 C 23,3 C 92 % 1009,8 hPa 0,0 l/m 7,1 km/h (2 Bft) S-SW 196 0 min 0,000 mm 0,0 UV-I 0 W/m 14,1 C 15,0 C 9,7 km/h (2 Bft) 95,83 %
31.08.2017 03:58 15,4 C 23,3 C 92 % 1009,8 hPa 0,0 l/m 8,0 km/h (2 Bft) S-SW 211 0 min 0,000 mm 0,0 UV-I 0 W/m 14,1 C 14,5 C 11,3 km/h (2 Bft) 100,00 %
31.08.2017 04:00 15,4 C 23,3 C 92 % 1010,0 hPa 0,0 l/m 8,5 km/h (2 Bft) S-SW 202 0 min 0,000 mm 0,0 UV-I 0 W/m 14,1 C 14,3 C 12,9 km/h (3 Bft) 95,74 %
31.08.2017 04:02 15,5 C 23,3 C 92 % 1010,1 hPa 0,0 l/m 7,6 km/h (2 Bft) SW 215 0 min 0,000 mm 0,0 UV-I 0 W/m 14,2 C 14,8 C 9,7 km/h (2 Bft) 100,00 %
31.08.2017 04:04 15,6 C 23,3 C 92 % 1010,3 hPa 0,0 l/m 8,5 km/h (2 Bft) S-SW 204 0 min 0,000 mm 0,0 UV-I 0 W/m 14,3 C 14,5 C 11,3 km/h (2 Bft) 100,00 %
31.08.2017 04:06 15,6 C 23,3 C 92 % 1010,4 hPa 0,0 l/m 9,4 km/h (2 Bft) SW 223 0 min 0,000 mm 0,0 UV-I 0 W/m 14,3 C 14,1 C 12,9 km/h (3 Bft) 100,00 %
31.08.2017 04:08 15,6 C 23,3 C 92 % 1010,4 hPa 0,0 l/m 8,8 km/h (2 Bft) S-SW 207 0 min 0,000 mm 0,0 UV-I 0 W/m 14,3 C 14,3 C 12,9 km/h (3 Bft) 95,74 %
31.08.2017 04:10 15,6 C 23,3 C 92 % 1010,4 hPa 0,0 l/m 8,3 km/h (2 Bft) S-SW 198 0 min 0,000 mm 0,0 UV-I 0 W/m 14,3 C 14,6 C 11,3 km/h (2 Bft) 100,00 %
31.08.2017 04:12 15,7 C 23,3 C 93 % 1010,4 hPa 0,0 l/m 7,4 km/h (2 Bft) S-SW 197 0 min 0,000 mm 0,0 UV-I 0 W/m 14,6 C 15,2 C 11,3 km/h (2 Bft) 100,00 %
31.08.2017 04:14 15,7 C 23,3 C 92 % 1010,4 hPa 0,0 l/m 5,3 km/h (1 Bft) SW 227 0 min 0,000 mm 0,0 UV-I 0 W/m 14,4 C 15,7 C 9,7 km/h (2 Bft) 97,87 %
31.08.2017 04:16 15,7 C 23,3 C 92 % 1010,4 hPa 0,0 l/m 3,1 km/h (1 Bft) S-SW 205 0 min 0,000 mm 0,0 UV-I 0 W/m 14,4 C 15,7 C 6,4 km/h (2 Bft) 97,87 %
31.08.2017 04:18 15,7 C 23,3 C 92 % 1010,4 hPa 0,0 l/m 2,7 km/h (1 Bft) S-SW 211 0 min 0,000 mm 0,0 UV-I 0 W/m 14,4 C 15,7 C 4,8 km/h (1 Bft) 100,00 %
31.08.2017 04:20 15,7 C 23,3 C 92 % 1010,3 hPa 0,0 l/m 1,2 km/h (1 Bft) S-SW 211 0 min 0,000 mm 0,0 UV-I 0 W/m 14,4 C 15,7 C 4,8 km/h (1 Bft) 98,11 %
31.08.2017 04:22 15,7 C 23,3 C 92 % 1010,3 hPa 0,0 l/m 1,8 km/h (1 Bft) S-SW 198 0 min 0,000 mm 0,0 UV-I 0 W/m 14,4 C 15,7 C 3,2 km/h (1 Bft) 95,74 %
31.08.2017 04:24 15,7 C 23,3 C 92 % 1010,3 hPa 0,0 l/m 2,0 km/h (1 Bft) S-SW 195 0 min 0,000 mm 0,0 UV-I 0 W/m 14,4 C 15,7 C 4,8 km/h (1 Bft) 96,00 %
31.08.2017 04:26 15,7 C 23,3 C 92 % 1010,3 hPa 0,0 l/m 1,5 km/h (1 Bft) S 188 0 min 0,000 mm 0,0 UV-I 0 W/m 14,4 C 15,7 C 3,2 km/h (1 Bft) 95,74 %
31.08.2017 04:28 15,7 C 23,3 C 92 % 1010,4 hPa 0,0 l/m 2,6 km/h (1 Bft) S-SW 196 0 min 0,000 mm 0,0 UV-I 0 W/m 14,4 C 15,7 C 6,4 km/h (2 Bft) 97,87 %
31.08.2017 04:30 15,7 C 23,3 C 92 % 1010,4 hPa 0,0 l/m 4,4 km/h (1 Bft) S-SW 209 0 min 0,000 mm 0,0 UV-I 0 W/m 14,4 C 15,7 C 9,7 km/h (2 Bft) 97,22 %
31.08.2017 04:32 15,8 C 23,3 C 92 % 1010,5 hPa 0,0 l/m 5,7 km/h (1 Bft) S-SW 200 0 min 0,000 mm 0,0 UV-I 0 W/m 14,5 C 15,8 C 8,0 km/h (2 Bft) 98,00 %
31.08.2017 04:34 15,8 C 23,3 C 92 % 1010,5 hPa 0,0 l/m 6,2 km/h (2 Bft) S 191 0 min 0,000 mm 0,0 UV-I 0 W/m 14,5 C 15,8 C 11,3 km/h (2 Bft) 97,87 %
31.08.2017 04:36 15,8 C 23,3 C 92 % 1010,5 hPa 0,0 l/m 7,9 km/h (2 Bft) SW 218 0 min 0,000 mm 0,0 UV-I 0 W/m 14,5 C 15,0 C 12,9 km/h (3 Bft) 97,87 %
31.08.2017 04:38 15,8 C 23,3 C 92 % 1010,5 hPa 0,0 l/m 8,2 km/h (2 Bft) S 189 0 min 0,000 mm 0,0 UV-I 0 W/m 14,5 C 14,8 C 11,3 km/h (2 Bft) 98,00 %
31.08.2017 04:40 15,8 C 23,3 C 92 % 1010,5 hPa 0,0 l/m 7,1 km/h (2 Bft) S-SW 202 0 min 0,000 mm 0,0 UV-I 0 W/m 14,5 C 15,4 C 11,3 km/h (2 Bft) 97,87 %
31.08.2017 04:42 15,8 C 23,3 C 92 % 1010,5 hPa 0,0 l/m 5,5 km/h (1 Bft) S-SW 204 0 min 0,000 mm 0,0 UV-I 0 W/m 14,5 C 15,8 C 9,7 km/h (2 Bft) 94,00 %
31.08.2017 04:44 15,8 C 23,3 C 92 % 1010,4 hPa 0,0 l/m 6,4 km/h (2 Bft) S-SW 209 0 min 0,000 mm 0,0 UV-I 0 W/m 14,5 C 15,8 C 8,0 km/h (2 Bft) 97,14 %
31.08.2017 04:46 15,8 C 23,3 C 92 % 1010,4 hPa 0,0 l/m 6,1 km/h (2 Bft) S-SW 207 0 min 0,000 mm 0,0 UV-I 0 W/m 14,5 C 15,8 C 9,7 km/h (2 Bft) 96,23 %
31.08.2017 04:48 15,8 C 23,3 C 92 % 1010,4 hPa 0,0 l/m 4,8 km/h (1 Bft) S-SW 207 0 min 0,000 mm 0,0 UV-I 0 W/m 14,5 C 15,8 C 8,0 km/h (2 Bft) 97,87 %
31.08.2017 04:50 15,8 C 23,3 C 92 % 1010,5 hPa 0,0 l/m 4,0 km/h (1 Bft) SW 219 0 min 0,000 mm 0,0 UV-I 0 W/m 14,5 C 15,8 C 4,8 km/h (1 Bft) 98,00 %
31.08.2017 04:52 15,8 C 23,3 C 92 % 1010,5 hPa 0,0 l/m 5,4 km/h (1 Bft) SW 229 0 min 0,000 mm 0,0 UV-I 0 W/m 14,5 C 15,8 C 6,4 km/h (2 Bft) 95,74 %
31.08.2017 04:54 15,8 C 23,3 C 92 % 1010,5 hPa 0,0 l/m 4,5 km/h (1 Bft) SW 229 0 min 0,000 mm 0,0 UV-I 0 W/m 14,5 C 15,8 C 6,4 km/h (2 Bft) 98,00 %
31.08.2017 04:56 15,8 C 23,3 C 92 % 1010,5 hPa 0,0 l/m 5,1 km/h (1 Bft) SW 236 0 min 0,000 mm 0,0 UV-I 0 W/m 14,5 C 15,8 C 6,4 km/h (2 Bft) 97,92 %
31.08.2017 04:58 15,8 C 23,3 C 91 % 1010,5 hPa 0,0 l/m 5,9 km/h (2 Bft) SW 236 0 min 0,000 mm 0,0 UV-I 0 W/m 14,3 C 15,8 C 9,7 km/h (2 Bft) 97,37 %
31.08.2017 05:00 15,7 C 23,3 C 92 % 1010,5 hPa 0,0 l/m 5,4 km/h (1 Bft) W-SW 249 0 min 0,000 mm 0,0 UV-I 0 W/m 14,4 C 15,7 C 6,4 km/h (2 Bft) 95,74 %
31.08.2017 05:02 15,7 C 23,3 C 92 % 1010,5 hPa 0,0 l/m 4,2 km/h (1 Bft) SW 229 0 min 0,000 mm 0,0 UV-I 0 W/m 14,4 C 15,7 C 6,4 km/h (2 Bft) 97,87 %
31.08.2017 05:04 15,7 C 23,3 C 92 % 1010,6 hPa 0,0 l/m 5,8 km/h (2 Bft) SW 225 0 min 0,000 mm 0,0 UV-I 0 W/m 14,4 C 15,7 C 8,0 km/h (2 Bft) 95,74 %
31.08.2017 05:06 15,7 C 23,3 C 92 % 1010,6 hPa 0,0 l/m 5,8 km/h (2 Bft) SW 236 0 min 0,000 mm 0,0 UV-I 0 W/m 14,4 C 15,7 C 8,0 km/h (2 Bft) 93,62 %
31.08.2017 05:08 15,7 C 23,3 C 92 % 1010,7 hPa 0,0 l/m 5,0 km/h (1 Bft) W-SW 250 0 min 0,000 mm 0,0 UV-I 0 W/m 14,4 C 15,7 C 6,4 km/h (2 Bft) 97,87 %
31.08.2017 05:10 15,7 C 23,3 C 92 % 1010,7 hPa 0,0 l/m 5,6 km/h (1 Bft) W 262 0 min 0,000 mm 0,0 UV-I 0 W/m 14,4 C 15,7 C 8,0 km/h (2 Bft) 97,87 %
31.08.2017 05:12 15,7 C 23,3 C 92 % 1010,7 hPa 0,0 l/m 9,3 km/h (2 Bft) SW 229 0 min 0,000 mm 0,0 UV-I 0 W/m 14,4 C 14,2 C 14,5 km/h (3 Bft) 97,87 %
31.08.2017 05:14 15,7 C 23,3 C 92 % 1010,7 hPa 0,0 l/m 8,2 km/h (2 Bft) W-SW 240 0 min 0,000 mm 0,0 UV-I 0 W/m 14,4 C 14,7 C 16,1 km/h (3 Bft) 96,00 %
31.08.2017 05:16 15,7 C 23,3 C 93 % 1010,8 hPa 0,0 l/m 9,1 km/h (2 Bft) W-SW 248 0 min 0,000 mm 0,0 UV-I 0 W/m 14,6 C 14,3 C 14,5 km/h (3 Bft) 97,92 %
31.08.2017 05:18 15,8 C 23,3 C 93 % 1010,8 hPa 0,0 l/m 9,2 km/h (2 Bft) W-SW 246 0 min 0,000 mm 0,0 UV-I 0 W/m 14,7 C 14,4 C 12,9 km/h (3 Bft) 97,87 %
31.08.2017 05:20 15,8 C 23,3 C 93 % 1010,8 hPa 0,0 l/m 11,3 km/h (2 Bft) W-SW 257 0 min 0,000 mm 0,0 UV-I 0 W/m 14,7 C 13,5 C 17,7 km/h (3 Bft) 97,87 %
31.08.2017 05:22 15,9 C 23,3 C 93 % 1010,8 hPa 0,0 l/m 11,7 km/h (2 Bft) W-SW 242 0 min 0,000 mm 0,0 UV-I 0 W/m 14,8 C 13,4 C 16,1 km/h (3 Bft) 100,00 %
31.08.2017 05:24 16,1 C 23,3 C 93 % 1010,9 hPa 0,0 l/m 14,0 km/h (3 Bft) W-SW 246 0 min 0,000 mm 0,0 UV-I 0 W/m 15,0 C 12,8 C 19,3 km/h (3 Bft) 100,00 %
31.08.2017 05:26 16,2 C 23,3 C 93 % 1010,9 hPa 0,0 l/m 14,3 km/h (3 Bft) W-SW 251 0 min 0,000 mm 0,0 UV-I 0 W/m 15,1 C 12,9 C 22,5 km/h (4 Bft) 95,74 %
31.08.2017 05:28 16,3 C 23,3 C 93 % 1011,0 hPa 0,0 l/m 16,2 km/h (3 Bft) W 261 0 min 0,000 mm 0,0 UV-I 0 W/m 15,2 C 12,4 C 22,5 km/h (4 Bft) 93,62 %
31.08.2017 05:30 16,4 C 23,3 C 93 % 1011,0 hPa 0,0 l/m 13,5 km/h (3 Bft) W 260 0 min 0,000 mm 0,0 UV-I 0 W/m 15,3 C 13,4 C 17,7 km/h (3 Bft) 93,62 %
31.08.2017 05:32 16,6 C 23,3 C 93 % 1011,0 hPa 0,0 l/m 10,6 km/h (2 Bft) W-SW 254 0 min 0,000 mm 0,0 UV-I 0 W/m 15,5 C 14,6 C 14,5 km/h (3 Bft) 97,87 %
31.08.2017 05:34 16,7 C 23,3 C 93 % 1011,1 hPa 0,0 l/m 9,0 km/h (2 Bft) W 278 0 min 0,000 mm 0,0 UV-I 0 W/m 15,6 C 15,4 C 12,9 km/h (3 Bft) 91,49 %
31.08.2017 05:36 16,7 C 23,3 C 93 % 1011,0 hPa 0,0 l/m 10,3 km/h (2 Bft) W-SW 257 0 min 0,000 mm 0,0 UV-I 0 W/m 15,6 C 14,9 C 16,1 km/h (3 Bft) 93,62 %
31.08.2017 05:38 16,8 C 23,3 C 92 % 1011,0 hPa 0,0 l/m 10,5 km/h (2 Bft) W 265 0 min 0,000 mm 0,0 UV-I 0 W/m 15,5 C 14,9 C 17,7 km/h (3 Bft) 97,87 %
31.08.2017 05:40 16,9 C 23,3 C 92 % 1011,1 hPa 0,0 l/m 10,7 km/h (2 Bft) W-SW 254 0 min 0,000 mm 0,0 UV-I 0 W/m 15,6 C 14,9 C 17,7 km/h (3 Bft) 97,87 %
31.08.2017 05:42 16,9 C 23,3 C 92 % 1011,1 hPa 0,0 l/m 12,1 km/h (2 Bft) W-SW 247 0 min 0,000 mm 0,0 UV-I 0 W/m 15,6 C 14,4 C 17,7 km/h (3 Bft) 97,37 %
31.08.2017 05:44 17,0 C 23,3 C 92 % 1011,1 hPa 0,0 l/m 9,4 km/h (2 Bft) W 279 0 min 0,000 mm 0,0 UV-I 0 W/m 15,7 C 15,6 C 17,7 km/h (3 Bft) 97,87 %
31.08.2017 05:46 17,1 C 23,3 C 92 % 1011,1 hPa 0,0 l/m 9,8 km/h (2 Bft) W-SW 252 0 min 0,000 mm 0,0 UV-I 0 W/m 15,8 C 15,5 C 14,5 km/h (3 Bft) 98,00 %
31.08.2017 05:48 17,1 C 23,3 C 91 % 1011,1 hPa 0,0 l/m 9,5 km/h (2 Bft) W-SW 255 0 min 0,000 mm 0,0 UV-I 0 W/m 15,6 C 15,6 C 14,5 km/h (3 Bft) 95,74 %
31.08.2017 05:50 17,2 C 23,3 C 91 % 1011,1 hPa 0,0 l/m 9,7 km/h (2 Bft) W-SW 247 0 min 0,000 mm 0,0 UV-I 0 W/m 15,7 C 15,7 C 14,5 km/h (3 Bft) 97,87 %
31.08.2017 05:52 17,2 C 23,3 C 91 % 1011,0 hPa 0,0 l/m 9,7 km/h (2 Bft) W-NW 288 0 min 0,000 mm 0,0 UV-I 0 W/m 15,7 C 15,7 C 14,5 km/h (3 Bft) 95,74 %
31.08.2017 05:54 17,2 C 23,3 C 91 % 1011,0 hPa 0,0 l/m 10,2 km/h (2 Bft) W 269 0 min 0,000 mm 0,0 UV-I 0 W/m 15,7 C 15,5 C 14,5 km/h (3 Bft) 97,92 %
31.08.2017 05:56 17,3 C 23,3 C 91 % 1011,1 hPa 0,0 l/m 12,1 km/h (2 Bft) W 273 0 min 0,000 mm 0,0 UV-I 0 W/m 15,8 C 14,9 C 16,1 km/h (3 Bft) 95,74 %
31.08.2017 05:58 17,4 C 23,3 C 91 % 1011,2 hPa 0,0 l/m 10,8 km/h (2 Bft) W-SW 254 0 min 0,000 mm 0,0 UV-I 0 W/m 15,9 C 15,5 C 16,1 km/h (3 Bft) 98,00 %
31.08.2017 06:00 17,5 C 23,3 C 91 % 1011,2 hPa 0,0 l/m 8,3 km/h (2 Bft) W-SW 248 0 min 0,025 mm 0,0 UV-I 3 W/m 16,0 C 16,6 C 14,5 km/h (3 Bft) 95,74 %
31.08.2017 06:02 17,6 C 23,3 C 91 % 1011,2 hPa 0,0 l/m 12,0 km/h (2 Bft) W 277 0 min 0,000 mm 0,0 UV-I 5 W/m 16,1 C 15,3 C 19,3 km/h (3 Bft) 97,87 %
31.08.2017 06:04 17,7 C 23,3 C 91 % 1011,2 hPa 0,0 l/m 11,3 km/h (2 Bft) W 273 0 min 0,000 mm 0,0 UV-I 5 W/m 16,2 C 15,6 C 14,5 km/h (3 Bft) 93,62 %
31.08.2017 06:06 17,7 C 23,3 C 91 % 1011,2 hPa 0,0 l/m 10,2 km/h (2 Bft) W-NW 284 0 min 0,000 mm 0,0 UV-I 0 W/m 16,2 C 16,0 C 14,5 km/h (3 Bft) 97,87 %
31.08.2017 06:08 17,8 C 23,3 C 90 % 1011,1 hPa 0,0 l/m 9,1 km/h (2 Bft) W 281 0 min 0,000 mm 0,0 UV-I 7 W/m 16,1 C 16,6 C 16,1 km/h (3 Bft) 100,00 %
31.08.2017 06:10 17,9 C 23,3 C 90 % 1011,2 hPa 0,0 l/m 12,8 km/h (3 Bft) W 262 0 min 0,000 mm 0,0 UV-I 7 W/m 16,2 C 15,4 C 19,3 km/h (3 Bft) 100,00 %
31.08.2017 06:12 18,0 C 23,3 C 90 % 1011,2 hPa 0,0 l/m 10,9 km/h (2 Bft) W 262 0 min 0,000 mm 0,0 UV-I 7 W/m 16,3 C 16,1 C 16,1 km/h (3 Bft) 95,74 %
31.08.2017 06:14 18,1 C 23,3 C 90 % 1011,2 hPa 0,0 l/m 13,1 km/h (3 Bft) SW 222 0 min 0,000 mm 0,0 UV-I 9 W/m 16,4 C 15,5 C 19,3 km/h (3 Bft) 97,87 %
31.08.2017 06:16 18,3 C 23,3 C 90 % 1011,2 hPa 0,0 l/m 9,5 km/h (2 Bft) W 277 0 min 0,000 mm 0,0 UV-I 9 W/m 16,6 C 17,0 C 16,1 km/h (3 Bft) 100,00 %
31.08.2017 06:18 18,3 C 23,3 C 89 % 1011,2 hPa 0,0 l/m 13,4 km/h (3 Bft) W-SW 244 0 min 0,000 mm 0,0 UV-I 9 W/m 16,5 C 15,6 C 17,7 km/h (3 Bft) 100,00 %
31.08.2017 06:20 18,4 C 23,3 C 89 % 1011,2 hPa 0,0 l/m 13,6 km/h (3 Bft) W-NW 282 0 min 0,000 mm 0,0 UV-I 9 W/m 16,6 C 15,7 C 19,3 km/h (3 Bft) 100,00 %
31.08.2017 06:22 18,5 C 23,3 C 89 % 1011,2 hPa 0,0 l/m 12,0 km/h (2 Bft) W-SW 254 0 min 0,000 mm 0,0 UV-I 9 W/m 16,7 C 16,3 C 17,7 km/h (3 Bft) 100,00 %
31.08.2017 06:24 18,6 C 23,3 C 89 % 1011,2 hPa 0,0 l/m 13,5 km/h (3 Bft) W-SW 257 0 min 0,000 mm 0,0 UV-I 11 W/m 16,7 C 16,0 C 19,3 km/h (3 Bft) 100,00 %
31.08.2017 06:26 18,7 C 23,3 C 89 % 1011,3 hPa 0,0 l/m 14,4 km/h (3 Bft) W 265 0 min 0,000 mm 0,0 UV-I 12 W/m 16,8 C 15,8 C 20,9 km/h (4 Bft) 100,00 %
31.08.2017 06:28 18,7 C 23,3 C 89 % 1011,2 hPa 0,0 l/m 13,1 km/h (3 Bft) W-SW 257 0 min 0,000 mm 0,0 UV-I 14 W/m 16,8 C 16,2 C 20,9 km/h (4 Bft) 100,00 %
31.08.2017 06:30 18,8 C 23,3 C 88 % 1011,3 hPa 0,0 l/m 8,2 km/h (2 Bft) W-SW 240 0 min 0,000 mm 0,0 UV-I 16 W/m 16,8 C 18,0 C 12,9 km/h (3 Bft) 100,00 %
31.08.2017 06:32 18,8 C 23,3 C 88 % 1011,4 hPa 0,0 l/m 7,3 km/h (2 Bft) W 269 2 min 0,000 mm 0,0 UV-I 18 W/m 16,8 C 18,4 C 16,1 km/h (3 Bft) 100,00 %
31.08.2017 06:34 18,9 C 23,3 C 88 % 1011,4 hPa 0,0 l/m 5,7 km/h (1 Bft) W-NW 284 2 min 0,000 mm 0,0 UV-I 20 W/m 16,9 C 18,9 C 11,3 km/h (2 Bft) 100,00 %
31.08.2017 06:36 18,9 C 23,3 C 88 % 1011,4 hPa 0,0 l/m 5,0 km/h (1 Bft) W-NW 292 2 min 0,000 mm 0,0 UV-I 22 W/m 16,9 C 18,9 C 11,3 km/h (2 Bft) 95,74 %
31.08.2017 06:38 18,9 C 23,3 C 88 % 1011,5 hPa 0,0 l/m 5,1 km/h (1 Bft) W 275 2 min 0,000 mm 0,0 UV-I 25 W/m 16,9 C 18,9 C 9,7 km/h (2 Bft) 97,87 %
31.08.2017 06:40 18,9 C 23,3 C 88 % 1011,6 hPa 0,0 l/m 4,3 km/h (1 Bft) W-NW 286 2 min 0,000 mm 0,0 UV-I 27 W/m 16,9 C 18,9 C 9,7 km/h (2 Bft) 100,00 %
31.08.2017 06:42 18,9 C 23,3 C 88 % 1011,6 hPa 0,0 l/m 2,9 km/h (1 Bft) W-NW 285 2 min 0,000 mm 0,0 UV-I 30 W/m 16,9 C 18,9 C 4,8 km/h (1 Bft) 100,00 %
31.08.2017 06:44 18,8 C 23,3 C 88 % 1011,6 hPa 0,0 l/m 2,8 km/h (1 Bft) N 360 2 min 0,000 mm 0,0 UV-I 32 W/m 16,8 C 18,8 C 8,0 km/h (2 Bft) 100,00 %
31.08.2017 06:46 18,7 C 23,3 C 88 % 1011,7 hPa 0,0 l/m 1,7 km/h (1 Bft) N 350 2 min 0,000 mm 0,0 UV-I 34 W/m 16,7 C 18,7 C 3,2 km/h (1 Bft) 100,00 %
31.08.2017 06:48 18,6 C 23,3 C 87 % 1011,8 hPa 0,0 l/m 4,9 km/h (1 Bft) NW 326 2 min 0,000 mm 0,0 UV-I 37 W/m 16,4 C 18,6 C 11,3 km/h (2 Bft) 100,00 %
31.08.2017 06:50 18,4 C 23,3 C 87 % 1011,8 hPa 0,0 l/m 5,1 km/h (1 Bft) N-NW 330 2 min 0,000 mm 0,0 UV-I 40 W/m 16,2 C 18,4 C 12,9 km/h (3 Bft) 100,00 %
31.08.2017 06:52 18,2 C 23,3 C 87 % 1011,8 hPa 0,0 l/m 1,5 km/h (1 Bft) W-NW 287 2 min 0,000 mm 0,0 UV-I 42 W/m 16,0 C 18,2 C 4,8 km/h (1 Bft) 100,00 %
31.08.2017 06:54 18,1 C 23,3 C 87 % 1011,7 hPa 0,0 l/m 3,5 km/h (1 Bft) NW 315 0 min 0,000 mm 0,0 UV-I 44 W/m 15,9 C 18,1 C 6,4 km/h (2 Bft) 98,00 %
31.08.2017 06:56 17,9 C 23,3 C 87 % 1011,8 hPa 0,0 l/m 1,9 km/h (1 Bft) N-NW 331 0 min 0,000 mm 0,0 UV-I 46 W/m 15,7 C 17,9 C 4,8 km/h (1 Bft) 100,00 %
31.08.2017 06:58 17,8 C 23,3 C 87 % 1011,8 hPa 0,0 l/m 3,6 km/h (1 Bft) NW 311 0 min 0,000 mm 0,0 UV-I 50 W/m 15,6 C 17,8 C 6,4 km/h (2 Bft) 97,87 %
31.08.2017 07:00 17,8 C 23,3 C 87 % 1011,8 hPa 0,0 l/m 2,2 km/h (1 Bft) NW 323 0 min 0,026 mm 0,0 UV-I 52 W/m 15,6 C 17,8 C 4,8 km/h (1 Bft) 97,87 %
31.08.2017 07:02 17,7 C 23,3 C 87 % 1011,8 hPa 0,0 l/m 1,5 km/h (1 Bft) N-NW 331 0 min 0,000 mm 0,0 UV-I 54 W/m 15,5 C 17,7 C 4,8 km/h (1 Bft) 100,00 %
31.08.2017 07:04 17,6 C 23,3 C 87 % 1011,8 hPa 0,0 l/m 1,1 km/h (1 Bft) N-NW 337 0 min 0,000 mm 0,0 UV-I 57 W/m 15,4 C 17,6 C 4,8 km/h (1 Bft) 100,00 %
31.08.2017 07:06 17,6 C 23,3 C 87 % 1011,8 hPa 0,0 l/m 1,6 km/h (1 Bft) N-NW 339 0 min 0,000 mm 0,0 UV-I 63 W/m 15,4 C 17,6 C 3,2 km/h (1 Bft) 100,00 %
31.08.2017 07:08 17,5 C 23,3 C 88 % 1011,8 hPa 0,0 l/m 0,9 km/h (0 Bft) N-NW 339 0 min 0,000 mm 0,0 UV-I 67 W/m 15,5 C 17,5 C 3,2 km/h (1 Bft) 97,87 %
31.08.2017 07:10 17,5 C 23,3 C 88 % 1011,8 hPa 0,0 l/m 0,8 km/h (0 Bft) N-NW 339 2 min 0,000 mm 0,0 UV-I 71 W/m 15,5 C 17,5 C 3,2 km/h (1 Bft) 100,00 %
31.08.2017 07:12 17,5 C 23,3 C 88 % 1011,8 hPa 0,0 l/m 0,7 km/h (0 Bft) N-NW 339 2 min 0,000 mm 0,0 UV-I 76 W/m 15,5 C 17,5 C 1,6 km/h (1 Bft) 100,00 %
31.08.2017 07:14 17,4 C 23,3 C 88 % 1011,8 hPa 0,0 l/m 0,3 km/h (0 Bft) N-NW 339 2 min 0,000 mm 0,0 UV-I 79 W/m 15,4 C 17,4 C 1,6 km/h (1 Bft) 100,00 %
31.08.2017 07:16 17,4 C 23,3 C 88 % 1011,8 hPa 0,0 l/m 0,2 km/h (0 Bft) N-NW 339 2 min 0,000 mm 0,0 UV-I 83 W/m 15,4 C 17,4 C 1,6 km/h (1 Bft) 100,00 %
31.08.2017 07:18 17,4 C 23,3 C 89 % 1011,8 hPa 0,0 l/m 3,0 km/h (1 Bft) NO 34 2 min 0,000 mm 0,0 UV-I 89 W/m 15,6 C 17,4 C 9,7 km/h (2 Bft) 100,00 %
31.08.2017 07:20 17,3 C 23,3 C 89 % 1011,8 hPa 0,0 l/m 5,2 km/h (1 Bft) N-NO 28 2 min 0,000 mm 0,0 UV-I 93 W/m 15,5 C 17,3 C 8,0 km/h (2 Bft) 97,87 %
31.08.2017 07:22 17,3 C 23,3 C 89 % 1011,8 hPa 0,0 l/m 4,2 km/h (1 Bft) N-NO 31 2 min 0,000 mm 0,0 UV-I 98 W/m 15,5 C 17,3 C 6,4 km/h (2 Bft) 97,87 %
31.08.2017 07:24 17,2 C 22,8 C 89 % 1011,8 hPa 0,0 l/m 3,7 km/h (1 Bft) N-NO 31 2 min 0,000 mm 0,0 UV-I 103 W/m 15,4 C 17,2 C 6,4 km/h (2 Bft) 97,87 %
31.08.2017 07:26 17,2 C 22,8 C 89 % 1011,7 hPa 0,0 l/m 0,5 km/h (0 Bft) N 5 2 min 0,000 mm 0,0 UV-I 107 W/m 15,4 C 17,2 C 1,6 km/h (1 Bft) 100,00 %
31.08.2017 07:28 17,2 C 23,3 C 89 % 1011,8 hPa 0,0 l/m 2,5 km/h (1 Bft) N-NO 23 2 min 0,000 mm 0,0 UV-I 112 W/m 15,4 C 17,2 C 4,8 km/h (1 Bft) 100,00 %
31.08.2017 07:30 17,2 C 22,8 C 90 % 1011,8 hPa 0,0 l/m 5,4 km/h (1 Bft) NO 34 2 min 0,000 mm 0,0 UV-I 116 W/m 15,5 C 17,2 C 6,4 km/h (2 Bft) 94,00 %
31.08.2017 07:32 17,3 C 22,8 C 90 % 1011,7 hPa 0,0 l/m 6,0 km/h (2 Bft) N-NO 25 2 min 0,000 mm 0,0 UV-I 122 W/m 15,6 C 17,3 C 9,7 km/h (2 Bft) 95,74 %
31.08.2017 07:34 17,3 C 22,8 C 90 % 1011,7 hPa 0,0 l/m 6,1 km/h (2 Bft) NO 40 2 min 0,000 mm 0,0 UV-I 128 W/m 15,6 C 17,3 C 8,0 km/h (2 Bft) 97,87 %
31.08.2017 07:36 17,4 C 22,8 C 89 % 1011,6 hPa 0,0 l/m 4,7 km/h (1 Bft) NO 40 2 min 0,000 mm 0,0 UV-I 133 W/m 15,6 C 17,4 C 6,4 km/h (2 Bft) 97,14 %
31.08.2017 07:38 17,4 C 23,3 C 89 % 1011,6 hPa 0,0 l/m 2,7 km/h (1 Bft) NO 40 2 min 0,000 mm 0,0 UV-I 138 W/m 15,6 C 17,4 C 4,8 km/h (1 Bft) 98,15 %
31.08.2017 07:40 17,6 C 23,3 C 88 % 1011,6 hPa 0,0 l/m 1,0 km/h (0 Bft) NO 40 2 min 0,000 mm 0,0 UV-I 142 W/m 15,6 C 17,6 C 3,2 km/h (1 Bft) 97,87 %
31.08.2017 07:42 17,7 C 23,3 C 88 % 1011,7 hPa 0,0 l/m 2,3 km/h (1 Bft) NO 40 2 min 0,000 mm 0,0 UV-I 146 W/m 15,7 C 17,7 C 4,8 km/h (1 Bft) 95,74 %
31.08.2017 07:44 17,7 C 23,3 C 88 % 1011,8 hPa 0,0 l/m 6,2 km/h (2 Bft) N-NO 30 2 min 0,000 mm 0,0 UV-I 151 W/m 15,7 C 17,7 C 8,0 km/h (2 Bft) 98,00 %
31.08.2017 07:46 17,8 C 23,3 C 88 % 1011,8 hPa 0,0 l/m 7,9 km/h (2 Bft) NO 46 2 min 0,000 mm 0,0 UV-I 156 W/m 15,8 C 17,1 C 11,3 km/h (2 Bft) 93,62 %
31.08.2017 07:48 17,8 C 23,3 C 87 % 1011,8 hPa 0,0 l/m 5,2 km/h (1 Bft) N-NO 27 2 min 0,000 mm 0,0 UV-I 162 W/m 15,6 C 17,8 C 8,0 km/h (2 Bft) 97,87 %
31.08.2017 07:50 17,8 C 22,8 C 86 % 1011,7 hPa 0,0 l/m 0,1 km/h (0 Bft) N-NO 27 2 min 0,000 mm 0,0 UV-I 166 W/m 15,4 C 17,8 C 1,6 km/h (1 Bft) 95,74 %
31.08.2017 07:52 17,8 C 22,8 C 85 % 1011,7 hPa 0,0 l/m 0,0 km/h (0 Bft) N-NO 27 2 min 0,000 mm 0,0 UV-I 170 W/m 15,2 C 17,8 C 1,6 km/h (1 Bft) 97,87 %
31.08.2017 07:54 18,0 C 22,8 C 86 % 1011,7 hPa 0,0 l/m 0,0 km/h (0 Bft) N-NO 27 2 min 0,000 mm 0,0 UV-I 174 W/m 15,6 C 18,0 C 0,0 km/h (0 Bft) 97,22 %
31.08.2017 07:56 18,1 C 22,8 C 86 % 1011,8 hPa 0,0 l/m 0,0 km/h (0 Bft) N-NO 27 2 min 0,000 mm 0,0 UV-I 179 W/m 15,7 C 18,1 C 0,0 km/h (0 Bft) 97,87 %
31.08.2017 07:58 18,3 C 22,8 C 86 % 1011,8 hPa 0,0 l/m 3,4 km/h (1 Bft) N-NO 27 2 min 0,000 mm 0,0 UV-I 185 W/m 15,9 C 18,3 C 4,8 km/h (1 Bft) 97,87 %
31.08.2017 08:00 18,4 C 22,8 C 85 % 1011,8 hPa 0,0 l/m 0,8 km/h (0 Bft) N-NO 27 2 min 0,076 mm 0,0 UV-I 191 W/m 15,8 C 18,4 C 3,2 km/h (1 Bft) 97,87 %
31.08.2017 08:02 18,5 C 23,3 C 85 % 1011,6 hPa 0,0 l/m 0,0 km/h (0 Bft) N-NO 27 2 min 0,000 mm 0,0 UV-I 197 W/m 15,9 C 18,5 C 0,0 km/h (0 Bft) 97,87 %
31.08.2017 08:04 18,7 C 22,8 C 85 % 1011,6 hPa 0,0 l/m 0,1 km/h (0 Bft) N-NO 27 2 min 0,000 mm 0,0 UV-I 202 W/m 16,1 C 18,7 C 1,6 km/h (1 Bft) 100,00 %
31.08.2017 08:06 18,8 C 23,3 C 85 % 1011,6 hPa 0,0 l/m 2,0 km/h (1 Bft) N-NO 27 2 min 0,000 mm 0,0 UV-I 206 W/m 16,2 C 18,8 C 3,2 km/h (1 Bft) 100,00 %
31.08.2017 08:08 18,9 C 23,3 C 86 % 1011,5 hPa 0,0 l/m 2,5 km/h (1 Bft) N-NO 26 2 min 0,000 mm 0,2 UV-I 212 W/m 16,5 C 18,9 C 8,0 km/h (2 Bft) 95,74 %
31.08.2017 08:10 18,9 C 23,3 C 85 % 1011,6 hPa 0,0 l/m 6,4 km/h (2 Bft) N-NO 24 2 min 0,000 mm 0,5 UV-I 218 W/m 16,3 C 18,9 C 8,0 km/h (2 Bft) 97,87 %
31.08.2017 08:12 18,9 C 23,3 C 85 % 1011,5 hPa 0,0 l/m 3,7 km/h (1 Bft) N-NO 28 2 min 0,000 mm 0,5 UV-I 224 W/m 16,3 C 18,9 C 8,0 km/h (2 Bft) 100,00 %
31.08.2017 08:14 19,0 C 23,3 C 85 % 1011,5 hPa 0,0 l/m 3,9 km/h (1 Bft) N-NO 28 2 min 0,000 mm 0,5 UV-I 230 W/m 16,4 C 19,0 C 4,8 km/h (1 Bft) 95,74 %
31.08.2017 08:16 19,1 C 23,3 C 85 % 1011,5 hPa 0,0 l/m 4,3 km/h (1 Bft) NO 48 2 min 0,000 mm 0,5 UV-I 235 W/m 16,5 C 19,1 C 6,4 km/h (2 Bft) 97,87 %
31.08.2017 08:18 19,1 C 23,3 C 85 % 1011,4 hPa 0,0 l/m 5,2 km/h (1 Bft) NO 43 2 min 0,000 mm 0,5 UV-I 241 W/m 16,5 C 19,1 C 8,0 km/h (2 Bft) 95,74 %
31.08.2017 08:20 19,2 C 23,3 C 84 % 1011,4 hPa 0,0 l/m 5,9 km/h (2 Bft) NO 38 2 min 0,000 mm 0,6 UV-I 247 W/m 16,4 C 19,2 C 8,0 km/h (2 Bft) 95,74 %
31.08.2017 08:22 19,2 C 23,3 C 84 % 1011,4 hPa 0,0 l/m 5,6 km/h (1 Bft) NO 54 2 min 0,000 mm 0,6 UV-I 251 W/m 16,4 C 19,2 C 8,0 km/h (2 Bft) 95,74 %
31.08.2017 08:24 19,3 C 23,3 C 83 % 1011,3 hPa 0,0 l/m 5,0 km/h (1 Bft) NO 47 2 min 0,000 mm 0,6 UV-I 255 W/m 16,3 C 19,3 C 8,0 km/h (2 Bft) 95,74 %
31.08.2017 08:26 19,4 C 23,3 C 83 % 1011,3 hPa 0,0 l/m 4,7 km/h (1 Bft) NO 50 2 min 0,000 mm 0,6 UV-I 260 W/m 16,4 C 19,4 C 6,4 km/h (2 Bft) 95,74 %
31.08.2017 08:28 19,5 C 23,3 C 82 % 1011,4 hPa 0,0 l/m 4,2 km/h (1 Bft) O-NO 57 2 min 0,000 mm 0,7 UV-I 267 W/m 16,3 C 19,5 C 8,0 km/h (2 Bft) 97,87 %
31.08.2017 08:30 19,6 C 23,3 C 82 % 1011,4 hPa 0,0 l/m 6,0 km/h (2 Bft) O-NO 71 2 min 0,000 mm 0,7 UV-I 273 W/m 16,4 C 19,6 C 8,0 km/h (2 Bft) 97,87 %
31.08.2017 08:32 19,7 C 23,3 C 82 % 1011,4 hPa 0,0 l/m 5,2 km/h (1 Bft) O 84 2 min 0,000 mm 0,7 UV-I 278 W/m 16,5 C 19,7 C 6,4 km/h (2 Bft) 95,83 %
31.08.2017 08:34 19,8 C 23,3 C 83 % 1011,4 hPa 0,0 l/m 4,3 km/h (1 Bft) O-NO 77 2 min 0,000 mm 0,7 UV-I 284 W/m 16,8 C 19,8 C 8,0 km/h (2 Bft) 97,87 %
31.08.2017 08:36 19,9 C 23,3 C 82 % 1011,4 hPa 0,0 l/m 3,0 km/h (1 Bft) O-NO 78 2 min 0,000 mm 0,8 UV-I 289 W/m 16,7 C 19,9 C 6,4 km/h (2 Bft) 97,37 %
31.08.2017 08:38 20,0 C 23,3 C 82 % 1011,4 hPa 0,0 l/m 3,3 km/h (1 Bft) O 80 2 min 0,000 mm 0,8 UV-I 295 W/m 16,8 C 20,0 C 4,8 km/h (1 Bft) 96,00 %
31.08.2017 08:40 20,2 C 23,3 C 82 % 1011,4 hPa 0,0 l/m 3,6 km/h (1 Bft) O 81 2 min 0,000 mm 0,8 UV-I 300 W/m 17,0 C 20,2 C 4,8 km/h (1 Bft) 97,87 %
31.08.2017 08:42 20,3 C 23,3 C 82 % 1011,3 hPa 0,0 l/m 4,1 km/h (1 Bft) O 89 2 min 0,000 mm 0,8 UV-I 305 W/m 17,1 C 20,3 C 4,8 km/h (1 Bft) 97,87 %
31.08.2017 08:44 20,4 C 23,3 C 82 % 1011,3 hPa 0,0 l/m 3,5 km/h (1 Bft) O-SO 121 2 min 0,000 mm 0,9 UV-I 311 W/m 17,2 C 20,4 C 6,4 km/h (2 Bft) 98,00 %
31.08.2017 08:46 20,5 C 23,3 C 82 % 1011,3 hPa 0,0 l/m 3,6 km/h (1 Bft) O-SO 103 2 min 0,000 mm 0,9 UV-I 316 W/m 17,3 C 20,5 C 6,4 km/h (2 Bft) 97,87 %
31.08.2017 08:48 20,6 C 23,3 C 82 % 1011,3 hPa 0,0 l/m 3,9 km/h (1 Bft) O-SO 103 2 min 0,000 mm 0,9 UV-I 320 W/m 17,4 C 20,6 C 4,8 km/h (1 Bft) 97,87 %
31.08.2017 08:50 20,7 C 23,3 C 81 % 1011,3 hPa 0,0 l/m 4,3 km/h (1 Bft) SO 135 2 min 0,000 mm 0,9 UV-I 326 W/m 17,3 C 20,7 C 6,4 km/h (2 Bft) 97,37 %
31.08.2017 08:52 20,7 C 23,3 C 81 % 1011,3 hPa 0,0 l/m 2,8 km/h (1 Bft) SO 133 2 min 0,000 mm 1,0 UV-I 331 W/m 17,3 C 20,7 C 4,8 km/h (1 Bft) 98,11 %
31.08.2017 08:54 20,6 C 23,3 C 81 % 1011,3 hPa 0,0 l/m 4,2 km/h (1 Bft) S-SO 148 2 min 0,000 mm 1,0 UV-I 336 W/m 17,2 C 20,6 C 6,4 km/h (2 Bft) 97,87 %
31.08.2017 08:56 20,6 C 23,3 C 82 % 1011,4 hPa 0,0 l/m 2,0 km/h (1 Bft) S-SO 148 2 min 0,000 mm 1,0 UV-I 342 W/m 17,4 C 20,6 C 4,8 km/h (1 Bft) 97,87 %
31.08.2017 08:58 20,5 C 23,3 C 82 % 1011,4 hPa 0,0 l/m 4,5 km/h (1 Bft) S-SO 147 2 min 0,000 mm 1,1 UV-I 348 W/m 17,3 C 20,5 C 8,0 km/h (2 Bft) 97,87 %
31.08.2017 09:00 20,5 C 23,3 C 82 % 1011,4 hPa 0,0 l/m 5,3 km/h (1 Bft) SO 140 2 min 0,178 mm 1,1 UV-I 352 W/m 17,3 C 20,5 C 11,3 km/h (2 Bft) 95,74 %
31.08.2017 09:02 20,5 C 23,3 C 82 % 1011,4 hPa 0,0 l/m 5,2 km/h (1 Bft) O-SO 109 2 min 0,000 mm 1,1 UV-I 358 W/m 17,3 C 20,5 C 9,7 km/h (2 Bft) 98,04 %
31.08.2017 09:04 20,6 C 23,3 C 82 % 1011,4 hPa 0,0 l/m 4,6 km/h (1 Bft) O-SO 108 2 min 0,000 mm 1,2 UV-I 364 W/m 17,4 C 20,6 C 6,4 km/h (2 Bft) 97,22 %
31.08.2017 09:06 20,7 C 23,3 C 82 % 1011,4 hPa 0,0 l/m 2,8 km/h (1 Bft) O-SO 108 2 min 0,000 mm 1,2 UV-I 369 W/m 17,5 C 20,7 C 6,4 km/h (2 Bft) 95,74 %
31.08.2017 09:08 20,7 C 23,3 C 80 % 1011,4 hPa 0,0 l/m 2,7 km/h (1 Bft) O-SO 118 2 min 0,000 mm 1,2 UV-I 375 W/m 17,1 C 20,7 C 4,8 km/h (1 Bft) 97,87 %
31.08.2017 09:10 20,7 C 23,3 C 80 % 1011,4 hPa 0,0 l/m 3,7 km/h (1 Bft) SO 130 2 min 0,000 mm 1,3 UV-I 380 W/m 17,1 C 20,7 C 6,4 km/h (2 Bft) 95,74 %
31.08.2017 09:12 20,9 C 23,3 C 81 % 1011,4 hPa 0,0 l/m 4,0 km/h (1 Bft) O-SO 106 2 min 0,000 mm 1,3 UV-I 386 W/m 17,5 C 20,9 C 6,4 km/h (2 Bft) 98,00 %
31.08.2017 09:14 20,9 C 23,3 C 81 % 1011,4 hPa 0,0 l/m 1,9 km/h (1 Bft) SO 146 2 min 0,000 mm 1,3 UV-I 392 W/m 17,5 C 20,9 C 3,2 km/h (1 Bft) 97,87 %
31.08.2017 09:16 21,0 C 23,3 C 81 % 1011,4 hPa 0,0 l/m 3,9 km/h (1 Bft) SO 137 2 min 0,000 mm 1,3 UV-I 396 W/m 17,6 C 21,0 C 4,8 km/h (1 Bft) 97,87 %
31.08.2017 09:18 21,1 C 23,3 C 81 % 1011,3 hPa 0,0 l/m 5,2 km/h (1 Bft) O-SO 121 2 min 0,000 mm 1,4 UV-I 402 W/m 17,7 C 21,1 C 9,7 km/h (2 Bft) 98,00 %
31.08.2017 09:20 21,1 C 23,3 C 79 % 1011,3 hPa 0,0 l/m 2,5 km/h (1 Bft) SO 126 2 min 0,000 mm 1,4 UV-I 409 W/m 17,3 C 21,1 C 4,8 km/h (1 Bft) 100,00 %
31.08.2017 09:22 21,2 C 23,3 C 80 % 1011,3 hPa 0,0 l/m 2,3 km/h (1 Bft) SO 127 2 min 0,000 mm 1,5 UV-I 415 W/m 17,6 C 21,2 C 4,8 km/h (1 Bft) 100,00 %
31.08.2017 09:24 21,3 C 23,3 C 80 % 1011,3 hPa 0,0 l/m 1,7 km/h (1 Bft) SO 126 2 min 0,000 mm 1,5 UV-I 419 W/m 17,7 C 21,3 C 3,2 km/h (1 Bft) 97,87 %
31.08.2017 09:26 21,4 C 23,3 C 79 % 1011,3 hPa 0,0 l/m 1,6 km/h (1 Bft) SO 127 2 min 0,000 mm 1,5 UV-I 423 W/m 17,6 C 21,4 C 3,2 km/h (1 Bft) 97,87 %
31.08.2017 09:28 21,6 C 23,3 C 80 % 1011,2 hPa 0,0 l/m 1,1 km/h (1 Bft) SO 126 2 min 0,000 mm 1,6 UV-I 428 W/m 18,0 C 21,6 C 4,8 km/h (1 Bft) 98,00 %
31.08.2017 09:30 21,7 C 23,3 C 79 % 1011,2 hPa 0,0 l/m 3,9 km/h (1 Bft) SO 126 2 min 0,000 mm 1,6 UV-I 434 W/m 17,9 C 21,7 C 4,8 km/h (1 Bft) 93,62 %
31.08.2017 09:32 21,7 C 23,3 C 78 % 1011,2 hPa 0,0 l/m 2,7 km/h (1 Bft) SO 126 2 min 0,000 mm 1,6 UV-I 439 W/m 17,7 C 21,7 C 4,8 km/h (1 Bft) 95,74 %
31.08.2017 09:34 21,6 C 23,3 C 78 % 1011,2 hPa 0,0 l/m 2,2 km/h (1 Bft) SO 126 2 min 0,000 mm 1,7 UV-I 444 W/m 17,6 C 21,6 C 4,8 km/h (1 Bft) 97,37 %
31.08.2017 09:36 21,8 C 23,3 C 80 % 1011,1 hPa 0,0 l/m 3,6 km/h (1 Bft) O-NO 69 2 min 0,000 mm 1,7 UV-I 449 W/m 18,2 C 21,8 C 6,4 km/h (2 Bft) 97,87 %
31.08.2017 09:38 21,9 C 23,3 C 79 % 1011,1 hPa 0,0 l/m 4,7 km/h (1 Bft) O-NO 69 2 min 0,000 mm 1,8 UV-I 455 W/m 18,1 C 21,9 C 8,0 km/h (2 Bft) 97,87 %
31.08.2017 09:40 22,0 C 23,3 C 77 % 1011,1 hPa 0,0 l/m 1,2 km/h (1 Bft) O-NO 69 2 min 0,000 mm 1,8 UV-I 459 W/m 17,8 C 22,0 C 3,2 km/h (1 Bft) 95,74 %
31.08.2017 09:42 21,9 C 23,3 C 78 % 1011,0 hPa 0,0 l/m 2,0 km/h (1 Bft) O-NO 69 2 min 0,000 mm 1,8 UV-I 463 W/m 17,9 C 21,9 C 6,4 km/h (2 Bft) 97,87 %
31.08.2017 09:44 22,1 C 23,3 C 79 % 1011,0 hPa 0,0 l/m 2,6 km/h (1 Bft) O-NO 69 2 min 0,000 mm 1,9 UV-I 469 W/m 18,3 C 22,1 C 6,4 km/h (2 Bft) 98,00 %
31.08.2017 09:46 22,2 C 23,3 C 78 % 1011,0 hPa 0,0 l/m 2,6 km/h (1 Bft) O-NO 69 2 min 0,000 mm 1,9 UV-I 474 W/m 18,2 C 22,2 C 4,8 km/h (1 Bft) 96,00 %
31.08.2017 09:48 22,3 C 23,3 C 79 % 1011,0 hPa 0,0 l/m 4,4 km/h (1 Bft) O-NO 57 2 min 0,000 mm 2,0 UV-I 480 W/m 18,5 C 22,3 C 6,4 km/h (2 Bft) 95,74 %
31.08.2017 09:50 22,4 C 23,3 C 77 % 1011,0 hPa 0,0 l/m 2,4 km/h (1 Bft) O-NO 57 2 min 0,000 mm 2,0 UV-I 484 W/m 18,2 C 22,4 C 4,8 km/h (1 Bft) 97,87 %
31.08.2017 09:52 22,4 C 23,3 C 78 % 1011,0 hPa 0,0 l/m 3,9 km/h (1 Bft) NO 39 2 min 0,000 mm 2,0 UV-I 489 W/m 18,4 C 22,4 C 6,4 km/h (2 Bft) 97,92 %
31.08.2017 09:54 22,5 C 23,3 C 79 % 1011,0 hPa 0,0 l/m 3,6 km/h (1 Bft) NO 38 2 min 0,000 mm 2,1 UV-I 494 W/m 18,7 C 22,5 C 6,4 km/h (2 Bft) 97,87 %
31.08.2017 09:56 22,3 C 23,3 C 76 % 1011,0 hPa 0,0 l/m 2,2 km/h (1 Bft) NO 38 2 min 0,000 mm 2,1 UV-I 498 W/m 17,9 C 22,3 C 4,8 km/h (1 Bft) 97,87 %
31.08.2017 09:58 22,4 C 23,3 C 77 % 1011,0 hPa 0,0 l/m 1,0 km/h (0 Bft) NO 38 2 min 0,000 mm 2,2 UV-I 504 W/m 18,2 C 22,4 C 3,2 km/h (1 Bft) 95,74 %
31.08.2017 10:00 22,4 C 23,3 C 78 % 1011,0 hPa 0,0 l/m 0,1 km/h (0 Bft) NO 38 2 min 0,254 mm 2,2 UV-I 508 W/m 18,4 C 22,4 C 1,6 km/h (1 Bft) 97,37 %
31.08.2017 10:02 22,5 C 23,3 C 78 % 1011,0 hPa 0,0 l/m 0,2 km/h (0 Bft) NO 38 2 min 0,000 mm 2,2 UV-I 514 W/m 18,5 C 22,5 C 1,6 km/h (1 Bft) 100,00 %
31.08.2017 10:04 22,6 C 23,3 C 78 % 1011,0 hPa 0,0 l/m 0,6 km/h (0 Bft) NO 38 2 min 0,000 mm 2,3 UV-I 519 W/m 18,6 C 22,6 C 3,2 km/h (1 Bft) 95,74 %
31.08.2017 10:06 22,6 C 23,3 C 78 % 1011,0 hPa 0,0 l/m 0,5 km/h (0 Bft) NO 38 2 min 0,000 mm 2,3 UV-I 523 W/m 18,6 C 22,6 C 3,2 km/h (1 Bft) 100,00 %
31.08.2017 10:08 22,6 C 23,3 C 78 % 1011,0 hPa 0,0 l/m 0,1 km/h (0 Bft) NO 38 2 min 0,000 mm 2,4 UV-I 527 W/m 18,6 C 22,6 C 1,6 km/h (1 Bft) 97,87 %
31.08.2017 10:10 22,7 C 23,3 C 77 % 1011,0 hPa 0,0 l/m 1,5 km/h (1 Bft) NO 38 2 min 0,000 mm 2,4 UV-I 533 W/m 18,5 C 22,7 C 3,2 km/h (1 Bft) 100,00 %
31.08.2017 10:12 22,7 C 23,3 C 75 % 1011,0 hPa 0,0 l/m 1,1 km/h (1 Bft) NO 38 2 min 0,000 mm 2,4 UV-I 537 W/m 18,0 C 22,7 C 1,6 km/h (1 Bft) 100,00 %
31.08.2017 10:14 22,9 C 23,3 C 77 % 1010,9 hPa 0,0 l/m 1,5 km/h (1 Bft) NO 38 2 min 0,000 mm 2,5 UV-I 542 W/m 18,6 C 22,9 C 3,2 km/h (1 Bft) 100,00 %
31.08.2017 10:16 23,1 C 23,3 C 76 % 1010,9 hPa 0,0 l/m 1,0 km/h (0 Bft) NO 38 2 min 0,000 mm 2,5 UV-I 548 W/m 18,6 C 23,1 C 1,6 km/h (1 Bft) 100,00 %
31.08.2017 10:18 23,2 C 23,3 C 76 % 1010,9 hPa 0,0 l/m 2,7 km/h (1 Bft) NO 39 2 min 0,000 mm 2,6 UV-I 552 W/m 18,7 C 23,2 C 6,4 km/h (2 Bft) 100,00 %
31.08.2017 10:20 23,2 C 23,3 C 75 % 1010,9 hPa 0,0 l/m 4,9 km/h (1 Bft) N-NO 26 2 min 0,000 mm 2,6 UV-I 557 W/m 18,5 C 23,2 C 8,0 km/h (2 Bft) 97,87 %
31.08.2017 10:22 23,3 C 23,3 C 76 % 1010,8 hPa 0,0 l/m 1,5 km/h (1 Bft) N-NW 338 2 min 0,000 mm 2,7 UV-I 563 W/m 18,8 C 23,3 C 4,8 km/h (1 Bft) 100,00 %
31.08.2017 10:24 23,2 C 23,3 C 75 % 1010,9 hPa 0,0 l/m 0,4 km/h (0 Bft) N-NW 340 2 min 0,000 mm 2,7 UV-I 567 W/m 18,5 C 23,2 C 1,6 km/h (1 Bft) 100,00 %
31.08.2017 10:26 23,2 C 23,3 C 75 % 1010,9 hPa 0,0 l/m 0,1 km/h (0 Bft) N-NW 340 2 min 0,000 mm 2,7 UV-I 571 W/m 18,5 C 23,2 C 1,6 km/h (1 Bft) 95,83 %
31.08.2017 10:28 23,3 C 23,3 C 77 % 1011,0 hPa 0,0 l/m 0,3 km/h (0 Bft) N-NW 340 2 min 0,000 mm 2,8 UV-I 575 W/m 19,0 C 23,3 C 1,6 km/h (1 Bft) 97,87 %
31.08.2017 10:30 23,3 C 23,3 C 76 % 1010,9 hPa 0,0 l/m 1,8 km/h (1 Bft) N-NW 329 2 min 0,000 mm 2,8 UV-I 579 W/m 18,8 C 23,3 C 4,8 km/h (1 Bft) 98,00 %
31.08.2017 10:32 23,4 C 23,3 C 75 % 1010,9 hPa 0,0 l/m 0,5 km/h (0 Bft) N-NW 329 2 min 0,000 mm 2,9 UV-I 582 W/m 18,7 C 23,4 C 3,2 km/h (1 Bft) 100,00 %
31.08.2017 10:34 23,4 C 23,3 C 74 % 1010,9 hPa 0,0 l/m 0,3 km/h (0 Bft) N-NW 329 2 min 0,000 mm 2,9 UV-I 586 W/m 18,5 C 23,4 C 1,6 km/h (1 Bft) 100,00 %
31.08.2017 10:36 23,3 C 23,3 C 74 % 1010,9 hPa 0,0 l/m 0,1 km/h (0 Bft) N-NW 329 2 min 0,000 mm 3,0 UV-I 589 W/m 18,4 C 23,3 C 1,6 km/h (1 Bft) 97,87 %
31.08.2017 10:38 23,3 C 23,3 C 73 % 1010,9 hPa 0,0 l/m 0,0 km/h (0 Bft) N-NW 329 2 min 0,000 mm 3,0 UV-I 593 W/m 18,2 C 23,3 C 0,0 km/h (0 Bft) 97,87 %
31.08.2017 10:40 23,3 C 23,3 C 75 % 1010,8 hPa 0,0 l/m 0,0 km/h (0 Bft) N-NW 329 2 min 0,000 mm 3,0 UV-I 596 W/m 18,6 C 23,3 C 0,0 km/h (0 Bft) 100,00 %
31.08.2017 10:42 23,5 C 23,3 C 76 % 1010,8 hPa 0,0 l/m 0,6 km/h (0 Bft) N-NW 336 2 min 0,000 mm 3,1 UV-I 599 W/m 19,0 C 23,5 C 3,2 km/h (1 Bft) 100,00 %
31.08.2017 10:44 23,7 C 23,3 C 75 % 1010,8 hPa 0,0 l/m 3,0 km/h (1 Bft) N 355 2 min 0,000 mm 3,1 UV-I 603 W/m 19,0 C 23,7 C 4,8 km/h (1 Bft) 95,74 %
31.08.2017 10:46 23,8 C 23,3 C 74 % 1010,7 hPa 0,0 l/m 0,8 km/h (0 Bft) N 355 2 min 0,000 mm 3,1 UV-I 607 W/m 18,9 C 23,8 C 1,6 km/h (1 Bft) 94,74 %
31.08.2017 10:48 23,8 C 23,3 C 76 % 1010,7 hPa 0,0 l/m 1,1 km/h (1 Bft) N 355 2 min 0,000 mm 3,2 UV-I 611 W/m 19,3 C 23,8 C 3,2 km/h (1 Bft) 100,00 %
31.08.2017 10:50 23,8 C 23,3 C 74 % 1010,7 hPa 0,0 l/m 0,4 km/h (0 Bft) N 355 2 min 0,000 mm 3,2 UV-I 613 W/m 18,9 C 23,8 C 3,2 km/h (1 Bft) 100,00 %
31.08.2017 10:52 24,0 C 23,3 C 76 % 1010,6 hPa 0,0 l/m 0,5 km/h (0 Bft) N 355 2 min 0,000 mm 3,3 UV-I 615 W/m 19,5 C 24,0 C 3,2 km/h (1 Bft) 95,74 %
31.08.2017 10:54 24,0 C 23,3 C 75 % 1010,6 hPa 0,0 l/m 2,0 km/h (1 Bft) N 355 2 min 0,000 mm 3,3 UV-I 620 W/m 19,3 C 24,0 C 3,2 km/h (1 Bft) 100,00 %
31.08.2017 10:56 24,1 C 23,3 C 74 % 1010,6 hPa 0,0 l/m 4,2 km/h (1 Bft) O-NO 65 2 min 0,000 mm 3,3 UV-I 625 W/m 19,2 C 24,1 C 6,4 km/h (2 Bft) 100,00 %
31.08.2017 10:58 24,3 C 23,3 C 77 % 1010,5 hPa 0,0 l/m 5,7 km/h (1 Bft) NO 38 2 min 0,000 mm 3,4 UV-I 627 W/m 20,0 C 24,3 C 8,0 km/h (2 Bft) 100,00 %
31.08.2017 11:00 24,3 C 23,3 C 72 % 1010,5 hPa 0,0 l/m 5,0 km/h (1 Bft) NO 44 2 min 0,355 mm 3,4 UV-I 632 W/m 18,9 C 24,3 C 8,0 km/h (2 Bft) 100,00 %
31.08.2017 11:02 24,3 C 23,3 C 73 % 1010,6 hPa 0,0 l/m 3,7 km/h (1 Bft) NO 45 2 min 0,000 mm 3,4 UV-I 633 W/m 19,1 C 24,3 C 6,4 km/h (2 Bft) 97,87 %
31.08.2017 11:04 24,3 C 23,3 C 75 % 1010,5 hPa 0,0 l/m 3,1 km/h (1 Bft) O-NO 61 2 min 0,000 mm 3,5 UV-I 635 W/m 19,6 C 24,3 C 9,7 km/h (2 Bft) 100,00 %
31.08.2017 11:06 24,3 C 23,3 C 71 % 1010,5 hPa 0,0 l/m 2,8 km/h (1 Bft) O-NO 67 2 min 0,000 mm 3,5 UV-I 635 W/m 18,7 C 24,3 C 6,4 km/h (2 Bft) 100,00 %
31.08.2017 11:08 24,2 C 23,3 C 72 % 1010,5 hPa 0,0 l/m 5,0 km/h (1 Bft) O-NO 68 2 min 0,000 mm 3,5 UV-I 639 W/m 18,8 C 24,2 C 6,4 km/h (2 Bft) 100,00 %
31.08.2017 11:10 24,2 C 23,3 C 72 % 1010,5 hPa 0,0 l/m 2,5 km/h (1 Bft) O-NO 67 2 min 0,000 mm 3,1 UV-I 643 W/m 18,8 C 24,2 C 6,4 km/h (2 Bft) 100,00 %
31.08.2017 11:12 24,3 C 23,3 C 73 % 1010,4 hPa 0,0 l/m 5,5 km/h (1 Bft) O-NO 69 2 min 0,000 mm 3,6 UV-I 649 W/m 19,1 C 24,3 C 8,0 km/h (2 Bft) 97,87 %
31.08.2017 11:14 24,4 C 23,3 C 74 % 1010,4 hPa 0,0 l/m 2,6 km/h (1 Bft) O-NO 67 2 min 0,000 mm 3,7 UV-I 653 W/m 19,5 C 24,4 C 6,4 km/h (2 Bft) 97,87 %
31.08.2017 11:16 24,5 C 23,3 C 73 % 1010,4 hPa 0,0 l/m 3,4 km/h (1 Bft) N-NO 26 2 min 0,000 mm 3,7 UV-I 657 W/m 19,3 C 24,5 C 6,4 km/h (2 Bft) 100,00 %
31.08.2017 11:18 24,5 C 23,3 C 73 % 1010,4 hPa 0,0 l/m 3,7 km/h (1 Bft) NO 40 2 min 0,000 mm 3,8 UV-I 660 W/m 19,3 C 24,5 C 9,7 km/h (2 Bft) 97,87 %
31.08.2017 11:20 24,6 C 23,3 C 75 % 1010,3 hPa 0,0 l/m 5,3 km/h (1 Bft) N-NO 20 2 min 0,000 mm 3,8 UV-I 663 W/m 19,9 C 24,6 C 11,3 km/h (2 Bft) 98,00 %
31.08.2017 11:22 24,9 C 23,3 C 74 % 1010,3 hPa 0,0 l/m 4,7 km/h (1 Bft) N-NO 19 2 min 0,000 mm 3,8 UV-I 665 W/m 19,9 C 24,9 C 11,3 km/h (2 Bft) 97,92 %
31.08.2017 11:24 24,9 C 23,3 C 73 % 1010,3 hPa 0,0 l/m 7,5 km/h (2 Bft) O-NO 65 2 min 0,000 mm 3,9 UV-I 668 W/m 19,7 C 24,6 C 12,9 km/h (3 Bft) 97,87 %
31.08.2017 11:26 24,9 C 23,3 C 70 % 1010,3 hPa 0,0 l/m 5,6 km/h (1 Bft) O 79 2 min 0,000 mm 3,9 UV-I 671 W/m 19,0 C 24,9 C 9,7 km/h (2 Bft) 95,74 %
31.08.2017 11:28 24,8 C 23,3 C 72 % 1010,3 hPa 0,0 l/m 5,2 km/h (1 Bft) O-NO 73 2 min 0,000 mm 3,9 UV-I 671 W/m 19,4 C 24,8 C 8,0 km/h (2 Bft) 98,00 %
31.08.2017 11:30 24,8 C 23,3 C 70 % 1010,4 hPa 0,0 l/m 4,7 km/h (1 Bft) O-NO 61 2 min 0,000 mm 3,9 UV-I 671 W/m 18,9 C 24,8 C 6,4 km/h (2 Bft) 97,14 %
31.08.2017 11:32 24,8 C 23,3 C 73 % 1010,3 hPa 0,0 l/m 5,1 km/h (1 Bft) NO 49 2 min 0,000 mm 4,0 UV-I 675 W/m 19,6 C 24,8 C 8,0 km/h (2 Bft) 98,15 %
31.08.2017 11:34 24,8 C 23,3 C 70 % 1010,3 hPa 0,0 l/m 5,8 km/h (2 Bft) O-NO 61 2 min 0,000 mm 4,0 UV-I 683 W/m 18,9 C 24,8 C 8,0 km/h (2 Bft) 95,74 %
31.08.2017 11:36 24,9 C 23,3 C 73 % 1010,3 hPa 0,0 l/m 5,9 km/h (2 Bft) O-NO 58 2 min 0,000 mm 4,1 UV-I 686 W/m 19,7 C 24,9 C 9,7 km/h (2 Bft) 97,87 %
31.08.2017 11:38 24,8 C 23,3 C 69 % 1010,2 hPa 0,0 l/m 1,6 km/h (1 Bft) O-NO 58 2 min 0,000 mm 4,0 UV-I 681 W/m 18,7 C 24,8 C 4,8 km/h (1 Bft) 95,74 %
31.08.2017 11:40 24,9 C 23,3 C 71 % 1010,2 hPa 0,0 l/m 5,0 km/h (1 Bft) O-NO 59 2 min 0,000 mm 4,1 UV-I 686 W/m 19,3 C 24,9 C 9,7 km/h (2 Bft) 95,74 %
31.08.2017 11:42 25,1 C 23,3 C 70 % 1010,2 hPa 0,0 l/m 6,9 km/h (2 Bft) O 81 2 min 0,000 mm 4,1 UV-I 692 W/m 19,2 C 25,0 C 11,3 km/h (2 Bft) 96,00 %
31.08.2017 11:44 25,2 C 23,3 C 71 % 1010,1 hPa 0,0 l/m 5,5 km/h (1 Bft) N-NO 32 2 min 0,000 mm 4,1 UV-I 692 W/m 19,6 C 25,2 C 9,7 km/h (2 Bft) 97,87 %
31.08.2017 11:46 25,2 C 23,3 C 70 % 1010,2 hPa 0,0 l/m 4,8 km/h (1 Bft) NO 37 2 min 0,000 mm 4,1 UV-I 683 W/m 19,3 C 25,2 C 9,7 km/h (2 Bft) 97,87 %
31.08.2017 11:48 25,2 C 23,3 C 70 % 1010,2 hPa 0,0 l/m 4,0 km/h (1 Bft) O-NO 58 2 min 0,000 mm 4,2 UV-I 691 W/m 19,3 C 25,2 C 6,4 km/h (2 Bft) 95,83 %
31.08.2017 11:50 25,2 C 23,3 C 69 % 1010,2 hPa 0,0 l/m 2,6 km/h (1 Bft) O-NO 61 2 min 0,000 mm 4,2 UV-I 696 W/m 19,1 C 25,2 C 4,8 km/h (1 Bft) 100,00 %
31.08.2017 11:52 25,2 C 23,3 C 71 % 1010,2 hPa 0,0 l/m 4,6 km/h (1 Bft) O-SO 119 2 min 0,000 mm 4,2 UV-I 698 W/m 19,6 C 25,2 C 11,3 km/h (2 Bft) 95,74 %
31.08.2017 11:54 25,2 C 23,3 C 70 % 1010,1 hPa 0,0 l/m 6,9 km/h (2 Bft) O-NO 59 2 min 0,000 mm 4,3 UV-I 699 W/m 19,3 C 25,1 C 11,3 km/h (2 Bft) 93,62 %
31.08.2017 11:56 25,3 C 23,3 C 70 % 1010,1 hPa 0,0 l/m 4,1 km/h (1 Bft) NO 38 2 min 0,000 mm 4,3 UV-I 704 W/m 19,4 C 25,3 C 11,3 km/h (2 Bft) 97,87 %
31.08.2017 11:58 25,4 C 23,3 C 71 % 1010,0 hPa 0,0 l/m 4,0 km/h (1 Bft) NO 45 2 min 0,000 mm 4,3 UV-I 702 W/m 19,7 C 25,4 C 9,7 km/h (2 Bft) 96,00 %
31.08.2017 12:00 25,6 C 23,3 C 70 % 1010,0 hPa 0,0 l/m 7,5 km/h (2 Bft) NO 56 2 min 0,432 mm 4,4 UV-I 709 W/m 19,7 C 25,3 C 11,3 km/h (2 Bft) 98,00 %
31.08.2017 12:02 25,6 C 23,3 C 68 % 1010,0 hPa 0,0 l/m 3,8 km/h (1 Bft) O 89 2 min 0,000 mm 4,4 UV-I 708 W/m 19,2 C 25,6 C 6,4 km/h (2 Bft) 97,14 %
31.08.2017 12:04 25,3 C 23,3 C 67 % 1009,9 hPa 0,0 l/m 5,9 km/h (2 Bft) O-SO 115 2 min 0,000 mm 4,4 UV-I 709 W/m 18,7 C 25,3 C 9,7 km/h (2 Bft) 98,00 %
31.08.2017 12:06 25,3 C 23,3 C 69 % 1009,8 hPa 0,0 l/m 5,9 km/h (2 Bft) O-NO 69 2 min 0,000 mm 4,4 UV-I 714 W/m 19,2 C 25,3 C 9,7 km/h (2 Bft) 97,87 %
31.08.2017 12:08 25,4 C 23,9 C 68 % 1009,8 hPa 0,0 l/m 3,7 km/h (1 Bft) NO 40 2 min 0,000 mm 4,5 UV-I 715 W/m 19,1 C 25,4 C 8,0 km/h (2 Bft) 95,74 %
31.08.2017 12:10 25,6 C 23,9 C 69 % 1009,8 hPa 0,0 l/m 5,8 km/h (2 Bft) NO 48 2 min 0,000 mm 4,4 UV-I 712 W/m 19,5 C 25,6 C 9,7 km/h (2 Bft) 97,87 %
31.08.2017 12:12 25,7 C 23,9 C 69 % 1009,8 hPa 0,0 l/m 7,8 km/h (2 Bft) O-NO 59 2 min 0,000 mm 4,5 UV-I 715 W/m 19,6 C 25,4 C 14,5 km/h (3 Bft) 96,23 %
31.08.2017 12:14 25,7 C 23,9 C 68 % 1009,8 hPa 0,0 l/m 9,4 km/h (2 Bft) NO 50 2 min 0,000 mm 4,5 UV-I 721 W/m 19,3 C 25,0 C 14,5 km/h (3 Bft) 98,00 %
31.08.2017 12:16 25,7 C 23,9 C 70 % 1009,7 hPa 0,0 l/m 7,2 km/h (2 Bft) O-NO 58 2 min 0,000 mm 4,5 UV-I 718 W/m 19,8 C 25,5 C 9,7 km/h (2 Bft) 97,87 %
31.08.2017 12:18 25,7 C 23,9 C 69 % 1009,7 hPa 0,0 l/m 8,5 km/h (2 Bft) O 84 2 min 0,000 mm 4,6 UV-I 723 W/m 19,6 C 25,2 C 12,9 km/h (3 Bft) 100,00 %
31.08.2017 12:20 25,8 C 23,9 C 70 % 1009,7 hPa 0,0 l/m 8,1 km/h (2 Bft) O-NO 57 2 min 0,000 mm 4,5 UV-I 721 W/m 19,9 C 25,4 C 12,9 km/h (3 Bft) 96,77 %
31.08.2017 12:22 25,9 C 23,9 C 70 % 1009,7 hPa 0,0 l/m 7,7 km/h (2 Bft) O-NO 61 2 min 0,000 mm 4,6 UV-I 721 W/m 20,0 C 25,6 C 11,3 km/h (2 Bft) 97,92 %
31.08.2017 12:24 25,9 C 23,9 C 68 % 1009,7 hPa 0,0 l/m 4,8 km/h (1 Bft) N 5 2 min 0,000 mm 4,6 UV-I 720 W/m 19,5 C 25,9 C 9,7 km/h (2 Bft) 97,87 %
31.08.2017 12:26 25,8 C 23,9 C 68 % 1009,7 hPa 0,0 l/m 4,7 km/h (1 Bft) NO 55 2 min 0,000 mm 4,6 UV-I 726 W/m 19,4 C 25,8 C 9,7 km/h (2 Bft) 97,87 %
31.08.2017 12:28 25,8 C 23,9 C 71 % 1009,7 hPa 0,0 l/m 6,6 km/h (2 Bft) NO 45 2 min 0,000 mm 4,6 UV-I 726 W/m 20,1 C 25,8 C 9,7 km/h (2 Bft) 97,56 %
31.08.2017 12:30 25,9 C 23,9 C 71 % 1009,7 hPa 0,0 l/m 5,8 km/h (2 Bft) N-NO 26 2 min 0,000 mm 4,6 UV-I 727 W/m 20,2 C 25,9 C 9,7 km/h (2 Bft) 98,00 %
31.08.2017 12:32 26,1 C 23,9 C 70 % 1009,7 hPa 0,0 l/m 7,9 km/h (2 Bft) N-NO 26 2 min 0,000 mm 4,7 UV-I 729 W/m 20,2 C 25,8 C 14,5 km/h (3 Bft) 97,87 %
31.08.2017 12:34 26,0 C 23,9 C 66 % 1009,7 hPa 0,0 l/m 6,3 km/h (2 Bft) O-NO 65 2 min 0,000 mm 4,7 UV-I 729 W/m 19,1 C 26,0 C 11,3 km/h (2 Bft) 97,87 %
31.08.2017 12:36 26,0 C 23,9 C 69 % 1009,7 hPa 0,0 l/m 3,7 km/h (1 Bft) NO 47 2 min 0,000 mm 4,7 UV-I 727 W/m 19,9 C 26,0 C 6,4 km/h (2 Bft) 96,00 %
31.08.2017 12:38 26,2 C 23,9 C 67 % 1009,8 hPa 0,0 l/m 6,2 km/h (2 Bft) O 82 2 min 0,000 mm 4,7 UV-I 726 W/m 19,6 C 26,2 C 9,7 km/h (2 Bft) 97,87 %
31.08.2017 12:40 26,2 C 23,9 C 69 % 1009,8 hPa 0,0 l/m 6,2 km/h (2 Bft) N-NO 31 2 min 0,000 mm 4,7 UV-I 726 W/m 20,0 C 26,2 C 8,0 km/h (2 Bft) 95,74 %
31.08.2017 12:42 26,1 C 23,9 C 67 % 1009,8 hPa 0,0 l/m 4,5 km/h (1 Bft) NO 41 2 min 0,000 mm 4,7 UV-I 724 W/m 19,5 C 26,1 C 6,4 km/h (2 Bft) 97,87 %
31.08.2017 12:44 26,1 C 23,9 C 69 % 1009,9 hPa 0,0 l/m 4,9 km/h (1 Bft) NO 44 2 min 0,000 mm 4,6 UV-I 723 W/m 20,0 C 26,1 C 8,0 km/h (2 Bft) 97,87 %
31.08.2017 12:46 26,2 C 23,9 C 68 % 1009,8 hPa 0,0 l/m 1,0 km/h (0 Bft) NO 44 2 min 0,000 mm 4,7 UV-I 729 W/m 19,8 C 26,2 C 3,2 km/h (1 Bft) 95,74 %
31.08.2017 12:48 26,1 C 23,9 C 66 % 1009,9 hPa 0,0 l/m 0,9 km/h (0 Bft) NO 44 2 min 0,000 mm 4,8 UV-I 734 W/m 19,2 C 26,1 C 3,2 km/h (1 Bft) 93,62 %
31.08.2017 12:50 26,1 C 23,9 C 66 % 1009,9 hPa 0,0 l/m 1,6 km/h (1 Bft) N 11 2 min 0,000 mm 3,9 UV-I 730 W/m 19,2 C 26,1 C 3,2 km/h (1 Bft) 97,87 %
31.08.2017 12:52 26,1 C 23,9 C 65 % 1009,8 hPa 0,0 l/m 1,5 km/h (1 Bft) W 281 2 min 0,000 mm 4,7 UV-I 727 W/m 19,0 C 26,1 C 3,2 km/h (1 Bft) 95,74 %
31.08.2017 12:54 26,2 C 23,9 C 69 % 1009,9 hPa 0,0 l/m 0,7 km/h (0 Bft) NW 309 2 min 0,000 mm 4,7 UV-I 721 W/m 20,0 C 26,2 C 3,2 km/h (1 Bft) 100,00 %
31.08.2017 12:56 26,2 C 23,9 C 68 % 1009,8 hPa 0,0 l/m 1,1 km/h (1 Bft) N 355 2 min 0,000 mm 4,7 UV-I 726 W/m 19,8 C 26,2 C 3,2 km/h (1 Bft) 100,00 %
31.08.2017 12:58 26,2 C 23,9 C 67 % 1009,9 hPa 0,0 l/m 2,1 km/h (1 Bft) N-NW 329 2 min 0,000 mm 4,7 UV-I 724 W/m 19,6 C 26,2 C 4,8 km/h (1 Bft) 97,92 %
31.08.2017 13:00 26,2 C 23,9 C 65 % 1009,9 hPa 0,0 l/m 3,5 km/h (1 Bft) N-NO 19 2 min 0,483 mm 4,8 UV-I 728 W/m 19,1 C 26,2 C 4,8 km/h (1 Bft) 100,00 %
31.08.2017 13:02 26,2 C 23,9 C 67 % 1010,0 hPa 0,0 l/m 3,3 km/h (1 Bft) N-NO 32 2 min 0,000 mm 4,8 UV-I 733 W/m 19,6 C 26,2 C 4,8 km/h (1 Bft) 100,00 %
31.08.2017 13:04 26,3 C 23,9 C 66 % 1010,0 hPa 0,0 l/m 2,9 km/h (1 Bft) N-NO 24 2 min 0,000 mm 4,7 UV-I 731 W/m 19,4 C 26,3 C 8,0 km/h (2 Bft) 98,00 %
31.08.2017 13:06 26,4 C 23,9 C 67 % 1010,0 hPa 0,0 l/m 3,8 km/h (1 Bft) N-NO 30 2 min 0,000 mm 4,7 UV-I 728 W/m 19,8 C 26,4 C 6,4 km/h (2 Bft) 95,74 %
31.08.2017 13:08 26,6 C 23,9 C 68 % 1010,0 hPa 0,0 l/m 1,7 km/h (1 Bft) N-NW 336 2 min 0,000 mm 4,7 UV-I 727 W/m 20,2 C 26,6 C 6,4 km/h (2 Bft) 100,00 %
31.08.2017 13:10 26,6 C 23,9 C 65 % 1009,9 hPa 0,0 l/m 2,1 km/h (1 Bft) N-NW 328 2 min 0,000 mm 4,4 UV-I 728 W/m 19,5 C 26,6 C 6,4 km/h (2 Bft) 97,87 %
31.08.2017 13:12 26,6 C 23,9 C 64 % 1009,9 hPa 0,0 l/m 3,7 km/h (1 Bft) NW 309 2 min 0,000 mm 4,7 UV-I 727 W/m 19,2 C 26,6 C 11,3 km/h (2 Bft) 100,00 %
31.08.2017 13:14 26,5 C 23,9 C 64 % 1009,9 hPa 0,0 l/m 1,8 km/h (1 Bft) NW 306 2 min 0,000 mm 4,7 UV-I 732 W/m 19,1 C 26,5 C 4,8 km/h (1 Bft) 100,00 %
31.08.2017 13:16 26,4 C 23,9 C 63 % 1009,9 hPa 0,0 l/m 2,2 km/h (1 Bft) S-SO 161 2 min 0,000 mm 4,7 UV-I 728 W/m 18,8 C 26,4 C 4,8 km/h (1 Bft) 95,74 %
31.08.2017 13:18 26,4 C 23,9 C 66 % 1009,9 hPa 0,0 l/m 0,7 km/h (0 Bft) SW 214 2 min 0,000 mm 4,7 UV-I 727 W/m 19,5 C 26,4 C 1,6 km/h (1 Bft) 97,87 %
31.08.2017 13:20 26,6 C 23,9 C 69 % 1010,0 hPa 0,0 l/m 1,2 km/h (1 Bft) NW 309 2 min 0,000 mm 4,6 UV-I 725 W/m 20,4 C 26,6 C 3,2 km/h (1 Bft) 95,74 %
31.08.2017 13:22 26,6 C 23,9 C 65 % 1010,0 hPa 0,0 l/m 2,2 km/h (1 Bft) N-NW 346 2 min 0,000 mm 4,0 UV-I 724 W/m 19,5 C 26,6 C 3,2 km/h (1 Bft) 95,74 %
31.08.2017 13:24 26,8 C 23,9 C 68 % 1010,0 hPa 0,0 l/m 3,6 km/h (1 Bft) N 360 2 min 0,000 mm 4,7 UV-I 727 W/m 20,4 C 26,8 C 4,8 km/h (1 Bft) 97,37 %
31.08.2017 13:26 26,9 C 23,9 C 69 % 1010,0 hPa 0,0 l/m 2,6 km/h (1 Bft) N 355 2 min 0,000 mm 4,6 UV-I 728 W/m 20,7 C 26,9 C 8,0 km/h (2 Bft) 95,74 %
31.08.2017 13:28 26,9 C 23,9 C 67 % 1010,0 hPa 0,0 l/m 2,3 km/h (1 Bft) NW 319 2 min 0,000 mm 4,6 UV-I 722 W/m 20,2 C 26,9 C 4,8 km/h (1 Bft) 95,74 %
31.08.2017 13:30 26,9 C 23,9 C 66 % 1010,0 hPa 0,0 l/m 3,9 km/h (1 Bft) W-NW 292 2 min 0,000 mm 4,6 UV-I 723 W/m 20,0 C 26,9 C 8,0 km/h (2 Bft) 98,00 %
31.08.2017 13:32 26,8 C 23,9 C 64 % 1010,1 hPa 0,0 l/m 1,4 km/h (1 Bft) N-NW 341 2 min 0,000 mm 4,5 UV-I 719 W/m 19,4 C 26,8 C 4,8 km/h (1 Bft) 97,87 %
31.08.2017 13:34 26,8 C 23,9 C 68 % 1010,1 hPa 0,0 l/m 1,6 km/h (1 Bft) N 355 2 min 0,000 mm 4,4 UV-I 718 W/m 20,4 C 26,8 C 4,8 km/h (1 Bft) 95,74 %
31.08.2017 13:36 26,9 C 23,9 C 68 % 1010,1 hPa 0,0 l/m 1,9 km/h (1 Bft) N 5 2 min 0,000 mm 4,5 UV-I 716 W/m 20,5 C 26,9 C 4,8 km/h (1 Bft) 97,87 %
31.08.2017 13:38 26,8 C 23,9 C 65 % 1010,1 hPa 0,0 l/m 3,6 km/h (1 Bft) W-NW 290 2 min 0,000 mm 4,5 UV-I 694 W/m 19,7 C 26,8 C 9,7 km/h (2 Bft) 93,62 %
31.08.2017 13:40 26,8 C 24,4 C 64 % 1010,1 hPa 0,0 l/m 1,8 km/h (1 Bft) N-NW 342 2 min 0,000 mm 4,5 UV-I 720 W/m 19,4 C 26,8 C 3,2 km/h (1 Bft) 98,00 %
31.08.2017 13:42 26,9 C 24,4 C 67 % 1010,1 hPa 0,0 l/m 2,6 km/h (1 Bft) NW 320 2 min 0,000 mm 4,3 UV-I 686 W/m 20,2 C 26,9 C 8,0 km/h (2 Bft) 97,87 %
31.08.2017 13:44 26,9 C 24,4 C 65 % 1010,0 hPa 0,0 l/m 2,8 km/h (1 Bft) N-NW 327 2 min 0,000 mm 4,5 UV-I 719 W/m 19,7 C 26,9 C 4,8 km/h (1 Bft) 100,00 %
31.08.2017 13:46 27,0 C 24,4 C 64 % 1010,1 hPa 0,0 l/m 4,1 km/h (1 Bft) W-NW 296 2 min 0,000 mm 4,4 UV-I 709 W/m 19,6 C 27,0 C 11,3 km/h (2 Bft) 100,00 %
31.08.2017 13:48 27,0 C 24,4 C 65 % 1010,1 hPa 0,0 l/m 3,9 km/h (1 Bft) N-NO 17 2 min 0,000 mm 4,4 UV-I 702 W/m 19,8 C 27,0 C 6,4 km/h (2 Bft) 100,00 %
31.08.2017 13:50 27,1 C 24,4 C 66 % 1010,1 hPa 0,0 l/m 2,2 km/h (1 Bft) W-NW 290 2 min 0,000 mm 4,3 UV-I 674 W/m 20,2 C 27,1 C 9,7 km/h (2 Bft) 95,74 %
31.08.2017 13:52 27,1 C 24,4 C 64 % 1010,1 hPa 0,0 l/m 0,9 km/h (0 Bft) NW 307 2 min 0,000 mm 4,3 UV-I 701 W/m 19,7 C 27,1 C 3,2 km/h (1 Bft) 97,87 %
31.08.2017 13:54 27,1 C 24,4 C 64 % 1010,1 hPa 0,0 l/m 3,4 km/h (1 Bft) W-NW 298 2 min 0,000 mm 4,3 UV-I 700 W/m 19,7 C 27,1 C 9,7 km/h (2 Bft) 100,00 %
31.08.2017 13:56 27,1 C 24,4 C 62 % 1010,1 hPa 0,0 l/m 1,5 km/h (1 Bft) W-NW 296 2 min 0,000 mm 4,2 UV-I 694 W/m 19,2 C 27,1 C 4,8 km/h (1 Bft) 100,00 %
31.08.2017 13:58 27,4 C 24,4 C 65 % 1010,1 hPa 0,0 l/m 1,0 km/h (0 Bft) W-NW 292 2 min 0,000 mm 4,3 UV-I 705 W/m 20,2 C 27,4 C 3,2 km/h (1 Bft) 100,00 %
31.08.2017 14:00 27,6 C 24,4 C 62 % 1010,1 hPa 0,0 l/m 1,6 km/h (1 Bft) S-SW 205 2 min 0,482 mm 4,3 UV-I 702 W/m 19,6 C 27,6 C 4,8 km/h (1 Bft) 100,00 %
31.08.2017 14:02 27,6 C 24,4 C 62 % 1010,2 hPa 0,0 l/m 5,6 km/h (1 Bft) W-SW 239 2 min 0,000 mm 4,2 UV-I 666 W/m 19,6 C 27,6 C 12,9 km/h (3 Bft) 97,87 %
31.08.2017 14:04 27,6 C 24,4 C 63 % 1010,2 hPa 0,0 l/m 2,6 km/h (1 Bft) N 11 2 min 0,000 mm 4,2 UV-I 697 W/m 19,9 C 27,6 C 6,4 km/h (2 Bft) 98,00 %
31.08.2017 14:06 27,7 C 24,4 C 64 % 1010,2 hPa 0,0 l/m 1,8 km/h (1 Bft) NW 309 2 min 0,000 mm 4,2 UV-I 691 W/m 20,3 C 27,7 C 4,8 km/h (1 Bft) 100,00 %
31.08.2017 14:08 27,7 C 24,4 C 60 % 1010,2 hPa 0,0 l/m 6,8 km/h (2 Bft) W-SW 241 2 min 0,000 mm 4,2 UV-I 688 W/m 19,2 C 27,6 C 14,5 km/h (3 Bft) 95,74 %
31.08.2017 14:10 27,8 C 24,4 C 65 % 1010,2 hPa 0,0 l/m 3,4 km/h (1 Bft) N-NW 340 2 min 0,000 mm 4,0 UV-I 661 W/m 20,6 C 27,8 C 11,3 km/h (2 Bft) 100,00 %
31.08.2017 14:12 27,8 C 24,4 C 63 % 1010,1 hPa 0,0 l/m 2,0 km/h (1 Bft) NO 34 2 min 0,000 mm 4,0 UV-I 627 W/m 20,1 C 27,8 C 9,7 km/h (2 Bft) 97,87 %
31.08.2017 14:14 27,8 C 24,4 C 62 % 1010,1 hPa 0,0 l/m 3,7 km/h (1 Bft) W-NW 284 2 min 0,000 mm 4,0 UV-I 651 W/m 19,8 C 27,8 C 9,7 km/h (2 Bft) 100,00 %
31.08.2017 14:16 27,8 C 24,4 C 59 % 1010,1 hPa 0,0 l/m 4,1 km/h (1 Bft) SW 220 2 min 0,000 mm 4,0 UV-I 662 W/m 19,0 C 27,8 C 6,4 km/h (2 Bft) 100,00 %
31.08.2017 14:18 27,7 C 24,4 C 60 % 1010,1 hPa 0,0 l/m 1,7 km/h (1 Bft) NW 306 2 min 0,000 mm 4,0 UV-I 667 W/m 19,2 C 27,7 C 4,8 km/h (1 Bft) 97,92 %
31.08.2017 14:20 27,7 C 24,4 C 63 % 1010,1 hPa 0,0 l/m 1,6 km/h (1 Bft) N 355 2 min 0,000 mm 4,0 UV-I 669 W/m 20,0 C 27,7 C 3,2 km/h (1 Bft) 100,00 %
31.08.2017 14:22 27,9 C 24,4 C 62 % 1010,2 hPa 0,0 l/m 2,5 km/h (1 Bft) W-NW 300 2 min 0,000 mm 3,9 UV-I 651 W/m 19,9 C 27,9 C 8,0 km/h (2 Bft) 97,87 %
31.08.2017 14:24 27,9 C 24,4 C 62 % 1010,3 hPa 0,0 l/m 3,5 km/h (1 Bft) W-SW 246 2 min 0,000 mm 3,9 UV-I 648 W/m 19,9 C 27,9 C 11,3 km/h (2 Bft) 100,00 %
31.08.2017 14:26 28,2 C 24,4 C 60 % 1010,2 hPa 0,0 l/m 6,3 km/h (2 Bft) W-SW 248 2 min 0,000 mm 3,6 UV-I 675 W/m 19,7 C 28,2 C 12,9 km/h (3 Bft) 100,00 %
31.08.2017 14:28 28,3 C 24,4 C 59 % 1010,3 hPa 0,0 l/m 6,8 km/h (2 Bft) W 269 2 min 0,000 mm 3,9 UV-I 671 W/m 19,5 C 28,2 C 12,9 km/h (3 Bft) 100,00 %
31.08.2017 14:30 28,3 C 24,4 C 58 % 1010,3 hPa 0,0 l/m 11,5 km/h (2 Bft) W-SW 239 2 min 0,000 mm 3,9 UV-I 670 W/m 19,2 C 27,6 C 17,7 km/h (3 Bft) 100,00 %
31.08.2017 14:32 28,3 C 24,4 C 59 % 1010,3 hPa 0,0 l/m 11,4 km/h (2 Bft) NW 308 2 min 0,000 mm 3,9 UV-I 669 W/m 19,5 C 27,7 C 17,7 km/h (3 Bft) 97,87 %
31.08.2017 14:34 28,2 C 24,4 C 59 % 1010,3 hPa 0,0 l/m 10,4 km/h (2 Bft) W 262 2 min 0,000 mm 3,9 UV-I 664 W/m 19,4 C 27,7 C 16,1 km/h (3 Bft) 100,00 %
31.08.2017 14:36 28,2 C 24,4 C 59 % 1010,3 hPa 0,0 l/m 5,5 km/h (1 Bft) SW 234 2 min 0,000 mm 3,8 UV-I 660 W/m 19,4 C 28,2 C 11,3 km/h (2 Bft) 100,00 %
31.08.2017 14:38 28,3 C 24,4 C 60 % 1010,4 hPa 0,0 l/m 8,5 km/h (2 Bft) W-SW 240 2 min 0,000 mm 3,7 UV-I 651 W/m 19,8 C 28,0 C 19,3 km/h (3 Bft) 100,00 %
31.08.2017 14:40 28,3 C 24,4 C 59 % 1010,3 hPa 0,0 l/m 12,3 km/h (3 Bft) W 273 2 min 0,000 mm 3,7 UV-I 652 W/m 19,5 C 27,6 C 17,7 km/h (3 Bft) 97,96 %
31.08.2017 14:42 28,2 C 24,4 C 60 % 1010,3 hPa 0,0 l/m 7,6 km/h (2 Bft) W 259 2 min 0,000 mm 3,7 UV-I 647 W/m 19,7 C 28,0 C 16,1 km/h (3 Bft) 95,74 %
31.08.2017 14:44 28,2 C 24,4 C 62 % 1010,4 hPa 0,0 l/m 6,3 km/h (2 Bft) S-SW 213 2 min 0,000 mm 3,6 UV-I 634 W/m 20,2 C 28,2 C 11,3 km/h (2 Bft) 100,00 %
31.08.2017 14:46 28,3 C 24,4 C 60 % 1010,4 hPa 0,0 l/m 11,5 km/h (2 Bft) W-SW 246 2 min 0,000 mm 3,6 UV-I 610 W/m 19,8 C 27,6 C 20,9 km/h (4 Bft) 98,00 %
31.08.2017 14:48 28,4 C 24,4 C 59 % 1010,5 hPa 0,0 l/m 14,7 km/h (3 Bft) W-SW 246 2 min 0,000 mm 3,6 UV-I 639 W/m 19,6 C 27,5 C 24,1 km/h (4 Bft) 100,00 %
31.08.2017 14:50 28,3 C 24,4 C 58 % 1010,6 hPa 0,0 l/m 17,5 km/h (3 Bft) W-SW 247 2 min 0,000 mm 3,6 UV-I 642 W/m 19,2 C 27,1 C 25,7 km/h (4 Bft) 100,00 %
31.08.2017 14:52 28,3 C 24,4 C 59 % 1010,5 hPa 0,0 l/m 10,4 km/h (2 Bft) W-SW 252 2 min 0,000 mm 3,6 UV-I 644 W/m 19,5 C 27,8 C 16,1 km/h (3 Bft) 100,00 %
31.08.2017 14:54 28,3 C 24,4 C 59 % 1010,4 hPa 0,0 l/m 4,5 km/h (1 Bft) W-SW 238 2 min 0,000 mm 3,6 UV-I 639 W/m 19,5 C 28,3 C 11,3 km/h (2 Bft) 100,00 %
31.08.2017 14:56 28,4 C 24,4 C 59 % 1010,5 hPa 0,0 l/m 10,1 km/h (2 Bft) SW 223 2 min 0,000 mm 3,5 UV-I 631 W/m 19,6 C 27,9 C 17,7 km/h (3 Bft) 100,00 %
31.08.2017 14:58 28,4 C 24,4 C 57 % 1010,5 hPa 0,0 l/m 9,6 km/h (2 Bft) W 278 2 min 0,000 mm 3,5 UV-I 628 W/m 19,0 C 28,0 C 16,1 km/h (3 Bft) 100,00 %
31.08.2017 15:00 28,6 C 24,4 C 60 % 1010,5 hPa 0,0 l/m 12,7 km/h (3 Bft) W 267 2 min 0,483 mm 3,4 UV-I 624 W/m 20,1 C 27,9 C 19,3 km/h (3 Bft) 93,62 %
31.08.2017 15:02 28,6 C 24,4 C 57 % 1010,5 hPa 0,0 l/m 11,8 km/h (2 Bft) W-NW 294 2 min 0,000 mm 3,4 UV-I 621 W/m 19,2 C 28,0 C 22,5 km/h (4 Bft) 95,83 %
31.08.2017 15:04 28,6 C 24,4 C 58 % 1010,5 hPa 0,0 l/m 5,8 km/h (2 Bft) SW 229 2 min 0,000 mm 3,4 UV-I 613 W/m 19,5 C 28,6 C 17,7 km/h (3 Bft) 98,00 %
31.08.2017 15:06 28,6 C 24,4 C 57 % 1010,5 hPa 0,0 l/m 3,9 km/h (1 Bft) W-SW 253 2 min 0,000 mm 3,3 UV-I 610 W/m 19,2 C 28,6 C 8,0 km/h (2 Bft) 95,74 %
31.08.2017 15:08 28,7 C 24,4 C 57 % 1010,5 hPa 0,0 l/m 8,2 km/h (2 Bft) W-SW 238 2 min 0,000 mm 3,3 UV-I 606 W/m 19,3 C 28,5 C 16,1 km/h (3 Bft) 96,00 %
31.08.2017 15:10 28,7 C 24,4 C 57 % 1010,5 hPa 0,0 l/m 10,0 km/h (2 Bft) W 259 2 min 0,000 mm 3,3 UV-I 605 W/m 19,3 C 28,3 C 16,1 km/h (3 Bft) 93,62 %
31.08.2017 15:12 28,8 C 24,4 C 58 % 1010,5 hPa 0,0 l/m 6,7 km/h (2 Bft) S-SW 210 2 min 0,000 mm 3,2 UV-I 603 W/m 19,7 C 28,8 C 14,5 km/h (3 Bft) 89,47 %
31.08.2017 15:14 28,9 C 24,4 C 56 % 1010,4 hPa 0,0 l/m 7,7 km/h (2 Bft) W 261 2 min 0,000 mm 3,2 UV-I 601 W/m 19,2 C 28,7 C 14,5 km/h (3 Bft) 95,74 %
31.08.2017 15:16 28,8 C 24,4 C 58 % 1010,5 hPa 0,0 l/m 10,6 km/h (2 Bft) W 269 2 min 0,000 mm 3,2 UV-I 598 W/m 19,7 C 28,3 C 20,9 km/h (4 Bft) 95,92 %
31.08.2017 15:18 28,8 C 24,4 C 56 % 1010,5 hPa 0,0 l/m 12,7 km/h (3 Bft) W-SW 257 2 min 0,000 mm 3,1 UV-I 584 W/m 19,1 C 28,1 C 17,7 km/h (3 Bft) 93,62 %
31.08.2017 15:20 28,7 C 25,0 C 56 % 1010,5 hPa 0,0 l/m 12,3 km/h (3 Bft) SW 231 2 min 0,000 mm 3,1 UV-I 596 W/m 19,0 C 28,0 C 22,5 km/h (4 Bft) 93,62 %
31.08.2017 15:22 28,6 C 25,0 C 56 % 1010,5 hPa 0,0 l/m 11,4 km/h (2 Bft) W-SW 244 2 min 0,000 mm 3,1 UV-I 596 W/m 18,9 C 28,0 C 17,7 km/h (3 Bft) 95,74 %
31.08.2017 15:24 28,6 C 25,0 C 56 % 1010,5 hPa 0,0 l/m 14,8 km/h (3 Bft) W-SW 244 2 min 0,000 mm 3,0 UV-I 585 W/m 18,9 C 27,7 C 22,5 km/h (4 Bft) 91,49 %
31.08.2017 15:26 28,6 C 25,0 C 57 % 1010,6 hPa 0,0 l/m 12,2 km/h (2 Bft) W-SW 253 2 min 0,000 mm 2,9 UV-I 575 W/m 19,2 C 27,9 C 19,3 km/h (3 Bft) 93,88 %
31.08.2017 15:28 28,6 C 25,0 C 56 % 1010,6 hPa 0,0 l/m 10,0 km/h (2 Bft) N-NW 347 2 min 0,000 mm 2,9 UV-I 568 W/m 18,9 C 28,1 C 14,5 km/h (3 Bft) 95,74 %
31.08.2017 15:30 28,6 C 25,0 C 55 % 1010,6 hPa 0,0 l/m 11,8 km/h (2 Bft) W-SW 242 2 min 0,000 mm 2,8 UV-I 534 W/m 18,7 C 28,0 C 19,3 km/h (3 Bft) 96,00 %
31.08.2017 15:32 28,7 C 25,0 C 54 % 1010,6 hPa 0,0 l/m 10,7 km/h (2 Bft) N 350 2 min 0,000 mm 2,8 UV-I 558 W/m 18,5 C 28,2 C 19,3 km/h (3 Bft) 95,74 %
31.08.2017 15:34 28,6 C 25,0 C 54 % 1010,5 hPa 0,0 l/m 9,9 km/h (2 Bft) NW 304 2 min 0,000 mm 2,8 UV-I 548 W/m 18,4 C 28,2 C 20,9 km/h (4 Bft) 94,44 %
31.08.2017 15:36 28,6 C 25,0 C 54 % 1010,6 hPa 0,0 l/m 11,8 km/h (2 Bft) W-NW 302 2 min 0,000 mm 2,7 UV-I 566 W/m 18,4 C 28,0 C 17,7 km/h (3 Bft) 96,36 %
31.08.2017 15:38 28,6 C 25,0 C 54 % 1010,6 hPa 0,0 l/m 8,1 km/h (2 Bft) W-NW 297 2 min 0,000 mm 2,7 UV-I 551 W/m 18,4 C 28,4 C 19,3 km/h (3 Bft) 94,00 %
31.08.2017 15:40 28,4 C 25,0 C 55 % 1010,6 hPa 0,0 l/m 10,0 km/h (2 Bft) W 267 2 min 0,000 mm 2,6 UV-I 550 W/m 18,5 C 27,9 C 20,9 km/h (4 Bft) 97,87 %
31.08.2017 15:42 28,5 C 25,0 C 55 % 1010,6 hPa 0,0 l/m 10,2 km/h (2 Bft) W-NW 292 2 min 0,000 mm 2,6 UV-I 593 W/m 18,6 C 28,0 C 20,9 km/h (4 Bft) 95,83 %
31.08.2017 15:44 28,5 C 25,0 C 55 % 1010,5 hPa 0,0 l/m 8,3 km/h (2 Bft) S-SW 203 2 min 0,000 mm 2,6 UV-I 578 W/m 18,6 C 28,2 C 17,7 km/h (3 Bft) 95,74 %
31.08.2017 15:46 28,6 C 25,0 C 55 % 1010,4 hPa 0,0 l/m 8,4 km/h (2 Bft) W 281 2 min 0,000 mm 2,6 UV-I 554 W/m 18,7 C 28,3 C 17,7 km/h (3 Bft) 100,00 %
31.08.2017 15:48 28,6 C 25,0 C 56 % 1010,4 hPa 0,0 l/m 9,2 km/h (2 Bft) W-SW 257 2 min 0,000 mm 2,5 UV-I 544 W/m 18,9 C 28,2 C 20,9 km/h (4 Bft) 93,62 %
31.08.2017 15:50 28,6 C 25,0 C 55 % 1010,4 hPa 0,0 l/m 12,5 km/h (3 Bft) S-SW 204 2 min 0,000 mm 2,4 UV-I 533 W/m 18,7 C 27,9 C 20,9 km/h (4 Bft) 100,00 %
31.08.2017 15:52 28,4 C 25,0 C 55 % 1010,4 hPa 0,0 l/m 9,3 km/h (2 Bft) W 277 2 min 0,000 mm 2,4 UV-I 514 W/m 18,5 C 28,0 C 16,1 km/h (3 Bft) 97,87 %
31.08.2017 15:54 28,5 C 25,0 C 55 % 1010,4 hPa 0,0 l/m 8,1 km/h (2 Bft) SW 222 2 min 0,000 mm 2,3 UV-I 482 W/m 18,6 C 28,3 C 19,3 km/h (3 Bft) 100,00 %
31.08.2017 15:56 28,4 C 25,0 C 55 % 1010,4 hPa 0,0 l/m 9,2 km/h (2 Bft) SW 219 2 min 0,000 mm 2,3 UV-I 529 W/m 18,5 C 28,0 C 14,5 km/h (3 Bft) 100,00 %
31.08.2017 15:58 28,6 C 25,0 C 55 % 1010,4 hPa 0,0 l/m 11,2 km/h (2 Bft) SW 234 2 min 0,000 mm 2,2 UV-I 511 W/m 18,7 C 28,0 C 20,9 km/h (4 Bft) 100,00 %
31.08.2017 16:00 28,5 C 25,0 C 54 % 1010,4 hPa 0,0 l/m 9,6 km/h (2 Bft) W-SW 254 2 min 0,000 mm 2,2 UV-I 509 W/m 18,3 C 28,1 C 29,0 km/h (5 Bft) 100,00 %
31.08.2017 16:02 28,4 C 25,0 C 54 % 1010,6 hPa 0,0 l/m 12,7 km/h (3 Bft) W-NW 289 2 min 0,457 mm 2,0 UV-I 449 W/m 18,2 C 27,6 C 24,1 km/h (4 Bft) 100,00 %
31.08.2017 16:04 28,3 C 25,0 C 54 % 1010,4 hPa 0,0 l/m 14,1 km/h (3 Bft) S-SW 208 2 min 0,000 mm 2,0 UV-I 492 W/m 18,1 C 27,4 C 22,5 km/h (4 Bft) 100,00 %
31.08.2017 16:06 28,3 C 25,0 C 55 % 1010,4 hPa 0,0 l/m 12,8 km/h (3 Bft) W-SW 250 2 min 0,000 mm 2,0 UV-I 517 W/m 18,4 C 27,5 C 20,9 km/h (4 Bft) 97,87 %
31.08.2017 16:08 28,2 C 25,0 C 54 % 1010,4 hPa 0,0 l/m 6,1 km/h (2 Bft) S 181 2 min 0,000 mm 1,8 UV-I 483 W/m 18,0 C 28,2 C 16,1 km/h (3 Bft) 97,87 %
31.08.2017 16:10 28,1 C 25,0 C 54 % 1010,4 hPa 0,0 l/m 11,7 km/h (2 Bft) NW 304 0 min 0,000 mm 1,4 UV-I 226 W/m 17,9 C 27,4 C 20,9 km/h (4 Bft) 100,00 %
31.08.2017 16:12 27,8 C 25,0 C 53 % 1010,5 hPa 0,0 l/m 12,6 km/h (3 Bft) W-NW 285 0 min 0,000 mm 1,1 UV-I 156 W/m 17,3 C 26,9 C 20,9 km/h (4 Bft) 95,83 %
31.08.2017 16:14 27,6 C 25,0 C 54 % 1010,5 hPa 0,0 l/m 11,3 km/h (2 Bft) W-SW 247 0 min 0,000 mm 1,0 UV-I 154 W/m 17,4 C 26,9 C 24,1 km/h (4 Bft) 95,74 %
31.08.2017 16:16 27,4 C 25,0 C 55 % 1010,5 hPa 0,0 l/m 13,8 km/h (3 Bft) W 259 0 min 0,000 mm 0,9 UV-I 141 W/m 17,5 C 26,3 C 24,1 km/h (4 Bft) 100,00 %
31.08.2017 16:18 27,2 C 25,0 C 55 % 1010,6 hPa 0,0 l/m 8,4 km/h (2 Bft) W-NW 297 0 min 0,000 mm 0,9 UV-I 133 W/m 17,4 C 26,8 C 17,7 km/h (3 Bft) 100,00 %
31.08.2017 16:20 27,1 C 25,0 C 56 % 1010,5 hPa 0,0 l/m 7,8 km/h (2 Bft) SW 223 0 min 0,000 mm 0,8 UV-I 125 W/m 17,5 C 26,8 C 16,1 km/h (3 Bft) 100,00 %
31.08.2017 16:22 26,9 C 25,0 C 55 % 1010,6 hPa 0,0 l/m 15,6 km/h (3 Bft) W-SW 246 0 min 0,000 mm 0,7 UV-I 114 W/m 17,1 C 25,5 C 27,4 km/h (4 Bft) 100,00 %
31.08.2017 16:24 26,8 C 25,0 C 56 % 1010,6 hPa 0,0 l/m 10,9 km/h (2 Bft) W-NW 295 0 min 0,000 mm 0,6 UV-I 99 W/m 17,3 C 26,0 C 22,5 km/h (4 Bft) 100,00 %
31.08.2017 16:26 26,7 C 25,0 C 57 % 1010,8 hPa 0,0 l/m 8,8 km/h (2 Bft) W 269 0 min 0,000 mm 0,3 UV-I 86 W/m 17,5 C 26,2 C 16,1 km/h (3 Bft) 97,87 %
31.08.2017 16:28 26,5 C 25,0 C 58 % 1010,7 hPa 0,0 l/m 7,4 km/h (2 Bft) W 271 0 min 0,000 mm 0,0 UV-I 65 W/m 17,5 C 26,3 C 12,9 km/h (3 Bft) 97,87 %
31.08.2017 16:30 26,4 C 25,0 C 59 % 1010,8 hPa 0,0 l/m 12,9 km/h (3 Bft) W 281 0 min 0,000 mm 0,0 UV-I 53 W/m 17,7 C 25,3 C 22,5 km/h (4 Bft) 97,87 %
31.08.2017 16:32 26,3 C 25,0 C 59 % 1010,7 hPa 0,0 l/m 12,0 km/h (2 Bft) W-SW 256 0 min 0,000 mm 0,0 UV-I 44 W/m 17,6 C 25,3 C 20,9 km/h (4 Bft) 97,87 %
31.08.2017 16:34 26,2 C 25,0 C 60 % 1010,7 hPa 0,0 l/m 8,8 km/h (2 Bft) W-NW 290 0 min 0,000 mm 0,0 UV-I 37 W/m 17,8 C 25,7 C 14,5 km/h (3 Bft) 100,00 %
31.08.2017 16:36 26,1 C 25,0 C 60 % 1010,9 hPa 0,0 l/m 9,8 km/h (2 Bft) W-SW 254 0 min 0,000 mm 0,0 UV-I 30 W/m 17,7 C 25,4 C 22,5 km/h (4 Bft) 100,00 %
31.08.2017 16:38 26,0 C 25,0 C 61 % 1011,0 hPa 0,0 l/m 13,9 km/h (3 Bft) W-SW 246 0 min 0,000 mm 0,0 UV-I 20 W/m 17,9 C 24,7 C 22,5 km/h (4 Bft) 100,00 %
31.08.2017 16:40 25,9 C 25,0 C 62 % 1011,0 hPa 0,0 l/m 10,8 km/h (2 Bft) W 259 0 min 0,000 mm 0,0 UV-I 14 W/m 18,0 C 25,0 C 16,1 km/h (3 Bft) 100,00 %
31.08.2017 16:42 25,8 C 25,0 C 62 % 1011,2 hPa 0,0 l/m 13,9 km/h (3 Bft) W-SW 257 0 min 0,000 mm 0,0 UV-I 12 W/m 18,0 C 24,4 C 22,5 km/h (4 Bft) 100,00 %
31.08.2017 16:44 25,8 C 25,0 C 62 % 1011,3 hPa 0,0 l/m 17,0 km/h (3 Bft) W-SW 246 0 min 0,000 mm 0,0 UV-I 12 W/m 18,0 C 24,0 C 27,4 km/h (4 Bft) 100,00 %
31.08.2017 16:46 25,7 C 25,0 C 63 % 1011,1 hPa 0,0 l/m 16,8 km/h (3 Bft) W 275 0 min 0,000 mm 0,0 UV-I 12 W/m 18,1 C 23,9 C 27,4 km/h (4 Bft) 100,00 %
31.08.2017 16:48 25,6 C 25,0 C 64 % 1011,0 hPa 0,0 l/m 19,2 km/h (3 Bft) W-SW 239 0 min 0,000 mm 0,0 UV-I 12 W/m 18,3 C 23,5 C 32,2 km/h (5 Bft) 97,87 %
31.08.2017 16:50 25,6 C 25,0 C 64 % 1010,9 hPa 0,0 l/m 16,2 km/h (3 Bft) W-SW 241 0 min 0,000 mm 0,0 UV-I 12 W/m 18,3 C 23,9 C 20,9 km/h (4 Bft) 97,87 %
31.08.2017 16:52 25,4 C 25,0 C 66 % 1010,8 hPa 0,4 l/m 19,8 km/h (3 Bft) W 259 0 min 0,000 mm 0,0 UV-I 14 W/m 18,6 C 23,2 C 30,6 km/h (5 Bft) 97,92 %
31.08.2017 16:54 25,1 C 25,0 C 71 % 1011,0 hPa 0,4 l/m 18,5 km/h (3 Bft) W-SW 258 0 min 0,000 mm 0,0 UV-I 14 W/m 19,5 C 23,0 C 30,6 km/h (5 Bft) 100,00 %
31.08.2017 16:56 24,6 C 25,0 C 74 % 1011,1 hPa 0,8 l/m 16,9 km/h (3 Bft) W 259 0 min 0,000 mm 0,0 UV-I 15 W/m 19,6 C 22,5 C 30,6 km/h (5 Bft) 98,00 %
31.08.2017 16:58 24,0 C 25,0 C 76 % 1010,9 hPa 0,4 l/m 17,0 km/h (3 Bft) W-NW 297 0 min 0,000 mm 0,0 UV-I 17 W/m 19,5 C 21,8 C 32,2 km/h (5 Bft) 100,00 %
31.08.2017 17:00 23,3 C 25,0 C 79 % 1011,0 hPa 0,4 l/m 15,9 km/h (3 Bft) W-NW 295 0 min 0,000 mm 0,0 UV-I 18 W/m 19,4 C 21,1 C 27,4 km/h (4 Bft) 97,37 %
31.08.2017 17:02 22,8 C 25,0 C 81 % 1011,3 hPa 0,0 l/m 15,0 km/h (3 Bft) SW 235 0 min 0,153 mm 0,0 UV-I 19 W/m 19,4 C 20,6 C 29,0 km/h (5 Bft) 98,00 %
31.08.2017 17:04 22,5 C 25,0 C 82 % 1011,6 hPa 0,2 l/m 17,3 km/h (3 Bft) SW 234 0 min 0,000 mm 0,0 UV-I 20 W/m 19,3 C 19,9 C 29,0 km/h (5 Bft) 96,23 %
31.08.2017 17:06 22,2 C 25,0 C 84 % 1011,6 hPa 0,2 l/m 17,2 km/h (3 Bft) W-SW 252 0 min 0,000 mm 0,0 UV-I 23 W/m 19,4 C 19,5 C 27,4 km/h (4 Bft) 97,87 %
31.08.2017 17:08 22,1 C 25,0 C 85 % 1011,7 hPa 0,0 l/m 15,8 km/h (3 Bft) W-SW 255 0 min 0,000 mm 0,0 UV-I 24 W/m 19,5 C 19,6 C 22,5 km/h (4 Bft) 97,87 %
31.08.2017 17:10 21,9 C 25,0 C 86 % 1011,6 hPa 0,0 l/m 14,8 km/h (3 Bft) W-SW 239 0 min 0,000 mm 0,0 UV-I 25 W/m 19,4 C 19,6 C 19,3 km/h (3 Bft) 97,37 %
31.08.2017 17:12 21,8 C 25,0 C 87 % 1011,8 hPa 0,2 l/m 12,5 km/h (3 Bft) W 268 0 min 0,000 mm 0,0 UV-I 25 W/m 19,5 C 20,0 C 19,3 km/h (3 Bft) 96,00 %
31.08.2017 17:14 21,8 C 25,0 C 88 % 1011,8 hPa 0,0 l/m 12,1 km/h (2 Bft) W-SW 244 0 min 0,000 mm 0,0 UV-I 25 W/m 19,7 C 20,1 C 17,7 km/h (3 Bft) 97,87 %
31.08.2017 17:16 21,7 C 25,0 C 88 % 1011,9 hPa 0,0 l/m 12,9 km/h (3 Bft) SW 236 0 min 0,000 mm 0,0 UV-I 23 W/m 19,6 C 19,8 C 19,3 km/h (3 Bft) 94,00 %
31.08.2017 17:18 21,7 C 25,0 C 89 % 1011,9 hPa 0,0 l/m 10,5 km/h (2 Bft) S-SW 202 0 min 0,000 mm 0,0 UV-I 23 W/m 19,8 C 20,4 C 17,7 km/h (3 Bft) 96,00 %
31.08.2017 17:20 21,6 C 25,0 C 89 % 1012,1 hPa 0,0 l/m 11,0 km/h (2 Bft) S-SW 197 0 min 0,000 mm 0,0 UV-I 22 W/m 19,7 C 20,1 C 17,7 km/h (3 Bft) 97,87 %
31.08.2017 17:22 21,6 C 25,0 C 89 % 1012,2 hPa 0,0 l/m 12,4 km/h (3 Bft) S-SW 202 0 min 0,000 mm 0,0 UV-I 21 W/m 19,7 C 19,8 C 19,3 km/h (3 Bft) 97,87 %
31.08.2017 17:24 21,5 C 25,0 C 89 % 1012,4 hPa 0,0 l/m 13,9 km/h (3 Bft) SW 227 0 min 0,000 mm 0,0 UV-I 20 W/m 19,6 C 19,3 C 20,9 km/h (4 Bft) 97,87 %
31.08.2017 17:26 21,5 C 25,0 C 90 % 1012,6 hPa 0,0 l/m 11,6 km/h (2 Bft) SW 217 0 min 0,000 mm 0,0 UV-I 19 W/m 19,8 C 19,9 C 17,7 km/h (3 Bft) 97,87 %
31.08.2017 17:28 21,4 C 25,0 C 90 % 1012,6 hPa 0,0 l/m 11,8 km/h (2 Bft) S 190 0 min 0,000 mm 0,0 UV-I 18 W/m 19,7 C 19,7 C 17,7 km/h (3 Bft) 93,62 %
31.08.2017 17:30 21,4 C 25,0 C 90 % 1012,6 hPa 0,0 l/m 13,9 km/h (3 Bft) SW 225 0 min 0,000 mm 0,0 UV-I 19 W/m 19,7 C 19,2 C 24,1 km/h (4 Bft) 97,87 %
31.08.2017 17:32 21,4 C 25,0 C 90 % 1012,6 hPa 0,0 l/m 14,5 km/h (3 Bft) SW 219 0 min 0,000 mm 0,0 UV-I 20 W/m 19,7 C 19,1 C 22,5 km/h (4 Bft) 97,22 %
31.08.2017 17:34 21,3 C 25,0 C 90 % 1012,6 hPa 0,0 l/m 15,1 km/h (3 Bft) S-SW 201 0 min 0,000 mm 0,0 UV-I 24 W/m 19,6 C 18,8 C 22,5 km/h (4 Bft) 97,87 %
31.08.2017 17:36 21,3 C 25,0 C 90 % 1012,6 hPa 0,0 l/m 13,8 km/h (3 Bft) W-SW 237 0 min 0,000 mm 0,0 UV-I 26 W/m 19,6 C 19,1 C 22,5 km/h (4 Bft) 97,87 %
31.08.2017 17:38 21,3 C 25,0 C 90 % 1012,7 hPa 0,0 l/m 12,7 km/h (3 Bft) W-SW 239 0 min 0,000 mm 0,0 UV-I 25 W/m 19,6 C 19,4 C 17,7 km/h (3 Bft) 97,87 %
31.08.2017 17:40 21,3 C 25,0 C 90 % 1012,8 hPa 0,0 l/m 14,9 km/h (3 Bft) SW 227 0 min 0,000 mm 0,0 UV-I 24 W/m 19,6 C 18,8 C 22,5 km/h (4 Bft) 100,00 %
31.08.2017 17:42 21,3 C 25,0 C 90 % 1012,8 hPa 0,0 l/m 12,9 km/h (3 Bft) W-SW 240 0 min 0,000 mm 0,0 UV-I 23 W/m 19,6 C 19,3 C 19,3 km/h (3 Bft) 100,00 %
31.08.2017 17:44 21,3 C 25,0 C 90 % 1012,8 hPa 0,0 l/m 14,8 km/h (3 Bft) SW 216 0 min 0,000 mm 0,0 UV-I 26 W/m 19,6 C 18,9 C 20,9 km/h (4 Bft) 100,00 %
31.08.2017 17:46 21,2 C 25,0 C 90 % 1012,7 hPa 0,0 l/m 15,5 km/h (3 Bft) SW 232 0 min 0,000 mm 0,0 UV-I 30 W/m 19,5 C 18,6 C 22,5 km/h (4 Bft) 96,00 %
31.08.2017 17:48 21,2 C 25,0 C 90 % 1012,5 hPa 0,0 l/m 13,0 km/h (3 Bft) SW 234 0 min 0,000 mm 0,0 UV-I 32 W/m 19,5 C 19,2 C 17,7 km/h (3 Bft) 98,00 %
31.08.2017 17:50 21,2 C 25,0 C 90 % 1012,5 hPa 0,0 l/m 13,1 km/h (3 Bft) W 263 0 min 0,000 mm 0,0 UV-I 35 W/m 19,5 C 19,1 C 22,5 km/h (4 Bft) 100,00 %
31.08.2017 17:52 21,1 C 25,0 C 90 % 1012,4 hPa 0,0 l/m 14,4 km/h (3 Bft) SW 225 0 min 0,000 mm 0,0 UV-I 39 W/m 19,4 C 18,7 C 24,1 km/h (4 Bft) 97,87 %
31.08.2017 17:54 21,1 C 25,0 C 89 % 1012,3 hPa 0,0 l/m 16,2 km/h (3 Bft) W-SW 244 0 min 0,000 mm 0,0 UV-I 43 W/m 19,2 C 18,3 C 20,9 km/h (4 Bft) 100,00 %
31.08.2017 17:56 21,1 C 25,0 C 89 % 1012,3 hPa 0,0 l/m 15,0 km/h (3 Bft) W-SW 241 0 min 0,000 mm 0,0 UV-I 46 W/m 19,2 C 18,6 C 20,9 km/h (4 Bft) 98,00 %
31.08.2017 17:58 21,1 C 25,0 C 89 % 1012,4 hPa 0,0 l/m 13,6 km/h (3 Bft) W 271 0 min 0,000 mm 0,0 UV-I 48 W/m 19,2 C 18,9 C 19,3 km/h (3 Bft) 94,29 %
31.08.2017 18:00 21,0 C 25,0 C 88 % 1012,4 hPa 0,0 l/m 16,2 km/h (3 Bft) W-NW 288 0 min 0,000 mm 0,0 UV-I 49 W/m 18,9 C 18,2 C 24,1 km/h (4 Bft) 100,00 %
31.08.2017 18:02 21,0 C 25,0 C 88 % 1012,4 hPa 0,0 l/m 11,1 km/h (2 Bft) SW 226 0 min 0,050 mm 0,0 UV-I 49 W/m 18,9 C 19,4 C 19,3 km/h (3 Bft) 100,00 %
31.08.2017 18:04 21,0 C 24,4 C 88 % 1012,3 hPa 0,0 l/m 13,6 km/h (3 Bft) W-SW 245 0 min 0,000 mm 0,0 UV-I 47 W/m 18,9 C 18,8 C 19,3 km/h (3 Bft) 100,00 %
31.08.2017 18:06 21,0 C 24,4 C 87 % 1012,4 hPa 0,0 l/m 12,0 km/h (2 Bft) W-SW 246 0 min 0,000 mm 0,0 UV-I 46 W/m 18,7 C 19,2 C 16,1 km/h (3 Bft) 100,00 %
31.08.2017 18:08 21,0 C 24,4 C 87 % 1012,4 hPa 0,0 l/m 14,6 km/h (3 Bft) SW 215 0 min 0,000 mm 0,0 UV-I 46 W/m 18,7 C 18,6 C 17,7 km/h (3 Bft) 97,87 %
31.08.2017 18:10 21,0 C 24,4 C 87 % 1012,3 hPa 0,0 l/m 15,0 km/h (3 Bft) W-SW 239 0 min 0,000 mm 0,0 UV-I 46 W/m 18,7 C 18,5 C 25,7 km/h (4 Bft) 100,00 %
31.08.2017 18:12 21,0 C 24,4 C 87 % 1012,4 hPa 0,0 l/m 13,4 km/h (3 Bft) SW 224 0 min 0,000 mm 0,0 UV-I 47 W/m 18,7 C 18,8 C 19,3 km/h (3 Bft) 100,00 %
31.08.2017 18:14 21,1 C 24,4 C 86 % 1012,5 hPa 0,0 l/m 13,5 km/h (3 Bft) W-SW 248 0 min 0,000 mm 0,0 UV-I 51 W/m 18,7 C 18,9 C 20,9 km/h (4 Bft) 98,00 %
31.08.2017 18:16 21,1 C 24,4 C 86 % 1012,6 hPa 0,0 l/m 14,4 km/h (3 Bft) SW 227 0 min 0,000 mm 0,0 UV-I 54 W/m 18,7 C 18,7 C 22,5 km/h (4 Bft) 100,00 %
31.08.2017 18:18 21,1 C 24,4 C 86 % 1012,7 hPa 0,0 l/m 11,6 km/h (2 Bft) W-SW 245 0 min 0,000 mm 0,0 UV-I 57 W/m 18,7 C 19,4 C 17,7 km/h (3 Bft) 100,00 %
31.08.2017 18:20 21,1 C 24,4 C 86 % 1012,7 hPa 0,0 l/m 14,1 km/h (3 Bft) S-SW 212 0 min 0,000 mm 0,0 UV-I 74 W/m 18,7 C 18,8 C 19,3 km/h (3 Bft) 100,00 %
31.08.2017 18:22 21,1 C 24,4 C 87 % 1012,7 hPa 0,0 l/m 13,9 km/h (3 Bft) W-SW 242 0 min 0,000 mm 0,0 UV-I 81 W/m 18,8 C 18,8 C 20,9 km/h (4 Bft) 98,00 %
31.08.2017 18:24 21,1 C 24,4 C 87 % 1012,8 hPa 0,0 l/m 13,3 km/h (3 Bft) SW 231 0 min 0,000 mm 0,0 UV-I 88 W/m 18,8 C 19,0 C 20,9 km/h (4 Bft) 100,00 %
31.08.2017 18:26 21,2 C 24,4 C 87 % 1012,9 hPa 0,0 l/m 16,0 km/h (3 Bft) SW 223 0 min 0,000 mm 0,0 UV-I 81 W/m 18,9 C 18,5 C 20,9 km/h (4 Bft) 100,00 %
31.08.2017 18:28 21,2 C 24,4 C 88 % 1013,0 hPa 0,0 l/m 15,3 km/h (3 Bft) SW 234 0 min 0,000 mm 0,0 UV-I 83 W/m 19,1 C 18,6 C 24,1 km/h (4 Bft) 98,00 %
31.08.2017 18:30 21,2 C 24,4 C 88 % 1013,0 hPa 0,0 l/m 17,6 km/h (3 Bft) SW 229 0 min 0,000 mm 0,0 UV-I 80 W/m 19,1 C 18,2 C 22,5 km/h (4 Bft) 100,00 %
31.08.2017 18:32 21,2 C 24,4 C 88 % 1013,1 hPa 0,0 l/m 13,5 km/h (3 Bft) W-SW 240 0 min 0,000 mm 0,0 UV-I 86 W/m 19,1 C 19,0 C 20,9 km/h (4 Bft) 95,74 %
31.08.2017 18:34 21,2 C 24,4 C 89 % 1013,1 hPa 0,0 l/m 9,9 km/h (2 Bft) W-SW 246 0 min 0,000 mm 0,0 UV-I 102 W/m 19,3 C 20,0 C 14,5 km/h (3 Bft) 98,00 %
31.08.2017 18:36 21,2 C 24,4 C 88 % 1013,1 hPa 0,0 l/m 16,2 km/h (3 Bft) W-SW 240 2 min 0,000 mm 0,0 UV-I 120 W/m 19,1 C 18,5 C 24,1 km/h (4 Bft) 100,00 %
31.08.2017 18:38 21,2 C 24,4 C 88 % 1013,1 hPa 0,0 l/m 11,5 km/h (2 Bft) W 259 2 min 0,000 mm 0,0 UV-I 130 W/m 19,1 C 19,5 C 17,7 km/h (3 Bft) 96,00 %
31.08.2017 18:40 21,2 C 24,4 C 88 % 1013,0 hPa 0,0 l/m 13,1 km/h (3 Bft) SW 234 2 min 0,000 mm 0,0 UV-I 135 W/m 19,1 C 19,1 C 17,7 km/h (3 Bft) 95,74 %
31.08.2017 18:42 21,3 C 24,4 C 88 % 1013,0 hPa 0,0 l/m 12,4 km/h (3 Bft) W-SW 242 2 min 0,000 mm 0,0 UV-I 146 W/m 19,2 C 19,4 C 17,7 km/h (3 Bft) 98,00 %
31.08.2017 18:44 21,3 C 24,4 C 87 % 1013,0 hPa 0,0 l/m 11,6 km/h (2 Bft) SW 228 2 min 0,000 mm 0,0 UV-I 147 W/m 19,0 C 19,6 C 16,1 km/h (3 Bft) 97,37 %
31.08.2017 18:46 21,3 C 24,4 C 85 % 1012,9 hPa 0,0 l/m 15,5 km/h (3 Bft) W-SW 244 2 min 0,000 mm 0,0 UV-I 139 W/m 18,7 C 18,7 C 24,1 km/h (4 Bft) 98,00 %
31.08.2017 18:48 21,4 C 24,4 C 84 % 1013,0 hPa 0,0 l/m 15,9 km/h (3 Bft) W-SW 242 2 min 0,000 mm 0,0 UV-I 127 W/m 18,6 C 18,8 C 22,5 km/h (4 Bft) 95,83 %
31.08.2017 18:50 21,4 C 24,4 C 83 % 1012,9 hPa 0,0 l/m 18,2 km/h (3 Bft) SW 226 2 min 0,000 mm 0,0 UV-I 119 W/m 18,4 C 18,3 C 29,0 km/h (5 Bft) 98,00 %
31.08.2017 18:52 21,4 C 24,4 C 83 % 1013,0 hPa 0,0 l/m 12,6 km/h (3 Bft) W-SW 240 2 min 0,000 mm 0,0 UV-I 112 W/m 18,4 C 19,5 C 17,7 km/h (3 Bft) 97,87 %
31.08.2017 18:54 21,4 C 24,4 C 84 % 1013,0 hPa 0,0 l/m 15,5 km/h (3 Bft) W-SW 255 2 min 0,000 mm 0,0 UV-I 88 W/m 18,6 C 18,8 C 27,4 km/h (4 Bft) 97,87 %
31.08.2017 18:56 21,5 C 24,4 C 84 % 1013,0 hPa 0,0 l/m 17,3 km/h (3 Bft) S-SW 205 2 min 0,000 mm 0,0 UV-I 74 W/m 18,7 C 18,6 C 25,7 km/h (4 Bft) 95,74 %
31.08.2017 18:58 21,4 C 24,4 C 85 % 1013,1 hPa 0,0 l/m 13,8 km/h (3 Bft) W-SW 237 2 min 0,000 mm 0,0 UV-I 69 W/m 18,8 C 19,2 C 20,9 km/h (4 Bft) 97,87 %
31.08.2017 19:00 21,4 C 24,4 C 86 % 1013,1 hPa 0,0 l/m 11,0 km/h (2 Bft) S 182 2 min 0,000 mm 0,0 UV-I 70 W/m 19,0 C 19,9 C 16,1 km/h (3 Bft) 98,00 %
31.08.2017 19:02 21,3 C 24,4 C 87 % 1013,2 hPa 0,0 l/m 14,6 km/h (3 Bft) W-SW 240 2 min 0,077 mm 0,0 UV-I 74 W/m 19,0 C 18,9 C 20,9 km/h (4 Bft) 92,00 %
31.08.2017 19:04 21,3 C 24,4 C 87 % 1013,3 hPa 0,0 l/m 19,3 km/h (3 Bft) SW 223 2 min 0,000 mm 0,0 UV-I 65 W/m 19,0 C 18,0 C 25,7 km/h (4 Bft) 97,37 %
31.08.2017 19:06 21,2 C 24,4 C 87 % 1013,4 hPa 0,0 l/m 13,7 km/h (3 Bft) SW 219 0 min 0,000 mm 0,0 UV-I 48 W/m 18,9 C 19,0 C 19,3 km/h (3 Bft) 93,62 %
31.08.2017 19:08 21,1 C 24,4 C 87 % 1013,5 hPa 0,0 l/m 15,8 km/h (3 Bft) W-SW 241 0 min 0,000 mm 0,0 UV-I 41 W/m 18,8 C 18,4 C 27,4 km/h (4 Bft) 95,74 %
31.08.2017 19:10 20,9 C 24,4 C 86 % 1013,6 hPa 0,0 l/m 19,5 km/h (3 Bft) W-SW 242 0 min 0,000 mm 0,0 UV-I 36 W/m 18,5 C 17,5 C 32,2 km/h (5 Bft) 95,74 %
31.08.2017 19:12 20,8 C 24,4 C 85 % 1013,7 hPa 0,0 l/m 18,4 km/h (3 Bft) SW 229 0 min 0,000 mm 0,0 UV-I 32 W/m 18,2 C 17,5 C 30,6 km/h (5 Bft) 96,00 %
31.08.2017 19:14 20,8 C 24,4 C 86 % 1013,7 hPa 0,0 l/m 19,2 km/h (3 Bft) W-SW 240 0 min 0,000 mm 0,0 UV-I 29 W/m 18,4 C 17,4 C 29,0 km/h (5 Bft) 96,00 %
31.08.2017 19:16 20,7 C 24,4 C 85 % 1013,6 hPa 0,0 l/m 16,6 km/h (3 Bft) W-SW 249 0 min 0,000 mm 0,0 UV-I 27 W/m 18,1 C 17,8 C 25,7 km/h (4 Bft) 92,11 %
31.08.2017 19:18 20,6 C 24,4 C 85 % 1013,7 hPa 0,0 l/m 22,3 km/h (4 Bft) SW 223 0 min 0,000 mm 0,0 UV-I 26 W/m 18,0 C 16,6 C 30,6 km/h (5 Bft) 91,67 %
31.08.2017 19:20 20,5 C 24,4 C 84 % 1013,7 hPa 0,0 l/m 20,8 km/h (4 Bft) W-NW 294 0 min 0,000 mm 0,0 UV-I 25 W/m 17,7 C 16,7 C 32,2 km/h (5 Bft) 90,62 %
31.08.2017 19:22 20,4 C 24,4 C 84 % 1013,9 hPa 0,0 l/m 19,6 km/h (3 Bft) W 260 0 min 0,000 mm 0,0 UV-I 22 W/m 17,6 C 16,8 C 33,8 km/h (5 Bft) 93,88 %
31.08.2017 19:24 20,3 C 24,4 C 84 % 1014,0 hPa 0,0 l/m 19,2 km/h (3 Bft) SW 235 0 min 0,000 mm 0,0 UV-I 19 W/m 17,5 C 16,7 C 29,0 km/h (5 Bft) 95,74 %
31.08.2017 19:26 20,3 C 24,4 C 84 % 1014,2 hPa 0,0 l/m 19,0 km/h (3 Bft) W-SW 257 0 min 0,000 mm 0,0 UV-I 19 W/m 17,5 C 16,8 C 25,7 km/h (4 Bft) 94,74 %
31.08.2017 19:28 20,2 C 24,4 C 84 % 1014,2 hPa 0,0 l/m 17,4 km/h (3 Bft) SW 228 0 min 0,000 mm 0,0 UV-I 19 W/m 17,4 C 17,0 C 30,6 km/h (5 Bft) 95,83 %
31.08.2017 19:30 20,2 C 24,4 C 84 % 1014,2 hPa 0,0 l/m 17,6 km/h (3 Bft) W-SW 238 2 min 0,000 mm 0,0 UV-I 19 W/m 17,4 C 16,9 C 24,1 km/h (4 Bft) 98,08 %
31.08.2017 19:32 20,1 C 24,4 C 84 % 1014,2 hPa 0,0 l/m 17,4 km/h (3 Bft) SW 223 2 min 0,000 mm 0,0 UV-I 19 W/m 17,3 C 16,8 C 27,4 km/h (4 Bft) 95,83 %
31.08.2017 19:34 20,1 C 24,4 C 84 % 1014,3 hPa 0,0 l/m 17,9 km/h (3 Bft) SW 235 2 min 0,000 mm 0,0 UV-I 22 W/m 17,3 C 16,7 C 24,1 km/h (4 Bft) 95,74 %
31.08.2017 19:36 20,1 C 24,4 C 84 % 1014,4 hPa 0,0 l/m 19,6 km/h (3 Bft) S 174 2 min 0,000 mm 0,0 UV-I 17 W/m 17,3 C 16,4 C 27,4 km/h (4 Bft) 97,87 %
31.08.2017 19:38 20,0 C 24,4 C 84 % 1014,3 hPa 0,0 l/m 23,2 km/h (4 Bft) W-SW 239 0 min 0,000 mm 0,0 UV-I 18 W/m 17,2 C 15,7 C 35,4 km/h (5 Bft) 100,00 %
31.08.2017 19:40 19,9 C 24,4 C 84 % 1014,5 hPa 0,0 l/m 20,7 km/h (4 Bft) SW 232 0 min 0,000 mm 0,0 UV-I 13 W/m 17,1 C 15,9 C 27,4 km/h (4 Bft) 100,00 %
31.08.2017 19:42 19,9 C 24,4 C 84 % 1014,5 hPa 0,0 l/m 19,6 km/h (3 Bft) SW 229 0 min 0,000 mm 0,0 UV-I 10 W/m 17,1 C 16,2 C 29,0 km/h (5 Bft) 97,87 %
31.08.2017 19:44 19,9 C 24,4 C 84 % 1014,5 hPa 0,0 l/m 22,1 km/h (4 Bft) SW 233 0 min 0,000 mm 0,0 UV-I 8 W/m 17,1 C 15,7 C 29,0 km/h (5 Bft) 97,37 %
31.08.2017 19:46 19,9 C 24,4 C 84 % 1014,6 hPa 0,0 l/m 19,3 km/h (3 Bft) S-SW 211 0 min 0,000 mm 0,0 UV-I 7 W/m 17,1 C 16,2 C 29,0 km/h (5 Bft) 100,00 %
31.08.2017 19:48 19,8 C 24,4 C 84 % 1014,5 hPa 0,0 l/m 18,8 km/h (3 Bft) S-SW 205 0 min 0,000 mm 0,0 UV-I 5 W/m 17,0 C 16,2 C 27,4 km/h (4 Bft) 100,00 %
31.08.2017 19:50 19,8 C 24,4 C 84 % 1014,6 hPa 0,0 l/m 16,6 km/h (3 Bft) W 269 0 min 0,000 mm 0,0 UV-I 5 W/m 17,0 C 16,6 C 25,7 km/h (4 Bft) 100,00 %
31.08.2017 19:52 19,8 C 24,4 C 84 % 1014,6 hPa 0,0 l/m 19,8 km/h (3 Bft) SW 232 0 min 0,000 mm 0,0 UV-I 5 W/m 17,0 C 16,0 C 32,2 km/h (5 Bft) 100,00 %
31.08.2017 19:54 19,7 C 24,4 C 84 % 1014,6 hPa 0,0 l/m 18,7 km/h (3 Bft) S-SW 198 0 min 0,000 mm 0,0 UV-I 5 W/m 16,9 C 16,1 C 27,4 km/h (4 Bft) 97,87 %
31.08.2017 19:56 19,7 C 24,4 C 84 % 1014,7 hPa 0,0 l/m 19,9 km/h (4 Bft) S-SW 208 0 min 0,000 mm 0,0 UV-I 5 W/m 16,9 C 15,8 C 32,2 km/h (5 Bft) 97,87 %
31.08.2017 19:58 19,7 C 24,4 C 84 % 1014,7 hPa 0,0 l/m 20,1 km/h (4 Bft) SW 228 0 min 0,000 mm 0,0 UV-I 5 W/m 16,9 C 15,8 C 32,2 km/h (5 Bft) 95,74 %
31.08.2017 20:00 19,7 C 24,4 C 84 % 1014,7 hPa 0,0 l/m 16,4 km/h (3 Bft) W-SW 238 0 min 0,000 mm 0,0 UV-I 5 W/m 16,9 C 16,6 C 24,1 km/h (4 Bft) 97,87 %
31.08.2017 20:02 19,6 C 24,4 C 84 % 1014,7 hPa 0,0 l/m 18,5 km/h (3 Bft) W-SW 254 0 min 0,050 mm 0,0 UV-I 0 W/m 16,8 C 16,0 C 25,7 km/h (4 Bft) 100,00 %
31.08.2017 20:04 19,6 C 24,4 C 84 % 1014,8 hPa 0,0 l/m 19,1 km/h (3 Bft) SW 221 0 min 0,000 mm 0,0 UV-I 0 W/m 16,8 C 15,9 C 30,6 km/h (5 Bft) 97,87 %
31.08.2017 20:06 19,6 C 24,4 C 84 % 1014,8 hPa 0,0 l/m 19,1 km/h (3 Bft) S-SW 209 0 min 0,000 mm 0,0 UV-I 0 W/m 16,8 C 15,9 C 32,2 km/h (5 Bft) 100,00 %
31.08.2017 20:08 19,6 C 24,4 C 84 % 1014,9 hPa 0,0 l/m 21,4 km/h (4 Bft) SW 232 0 min 0,000 mm 0,0 UV-I 0 W/m 16,8 C 15,4 C 30,6 km/h (5 Bft) 100,00 %
31.08.2017 20:10 19,6 C 24,4 C 84 % 1014,8 hPa 0,0 l/m 17,6 km/h (3 Bft) W 259 0 min 0,000 mm 0,0 UV-I 0 W/m 16,8 C 16,2 C 25,7 km/h (4 Bft) 100,00 %
31.08.2017 20:12 19,5 C 24,4 C 84 % 1014,8 hPa 0,0 l/m 13,9 km/h (3 Bft) SW 228 0 min 0,000 mm 0,0 UV-I 0 W/m 16,7 C 16,9 C 22,5 km/h (4 Bft) 100,00 %
31.08.2017 20:14 19,5 C 24,4 C 85 % 1014,9 hPa 0,0 l/m 16,1 km/h (3 Bft) SW 225 0 min 0,000 mm 0,0 UV-I 0 W/m 16,9 C 16,4 C 25,7 km/h (4 Bft) 100,00 %
31.08.2017 20:16 19,5 C 24,4 C 84 % 1014,9 hPa 0,0 l/m 16,3 km/h (3 Bft) W-SW 238 0 min 0,000 mm 0,0 UV-I 0 W/m 16,7 C 16,3 C 27,4 km/h (4 Bft) 100,00 %
31.08.2017 20:18 19,4 C 24,4 C 84 % 1015,0 hPa 0,0 l/m 20,7 km/h (4 Bft) SW 225 0 min 0,000 mm 0,0 UV-I 0 W/m 16,6 C 15,3 C 30,6 km/h (5 Bft) 95,74 %
31.08.2017 20:20 19,4 C 24,4 C 85 % 1015,1 hPa 0,0 l/m 16,7 km/h (3 Bft) SW 220 0 min 0,000 mm 0,0 UV-I 0 W/m 16,8 C 16,1 C 25,7 km/h (4 Bft) 100,00 %
31.08.2017 20:22 19,4 C 24,4 C 85 % 1015,1 hPa 0,0 l/m 17,7 km/h (3 Bft) SW 234 0 min 0,000 mm 0,0 UV-I 0 W/m 16,8 C 15,9 C 27,4 km/h (4 Bft) 100,00 %
31.08.2017 20:24 19,4 C 24,4 C 84 % 1015,1 hPa 0,0 l/m 17,7 km/h (3 Bft) SW 220 0 min 0,000 mm 0,0 UV-I 0 W/m 16,6 C 15,9 C 29,0 km/h (5 Bft) 97,87 %
31.08.2017 20:26 19,4 C 24,4 C 84 % 1015,1 hPa 0,0 l/m 16,6 km/h (3 Bft) SW 221 0 min 0,000 mm 0,0 UV-I 0 W/m 16,6 C 16,1 C 27,4 km/h (4 Bft) 100,00 %
31.08.2017 20:28 19,4 C 24,4 C 85 % 1015,1 hPa 0,0 l/m 15,6 km/h (3 Bft) W-SW 255 0 min 0,000 mm 0,0 UV-I 0 W/m 16,8 C 16,4 C 29,0 km/h (5 Bft) 97,87 %
31.08.2017 20:30 19,3 C 24,4 C 84 % 1015,2 hPa 0,0 l/m 17,1 km/h (3 Bft) SW 225 0 min 0,000 mm 0,0 UV-I 0 W/m 16,5 C 15,9 C 29,0 km/h (5 Bft) 100,00 %
31.08.2017 20:32 19,3 C 24,4 C 84 % 1015,2 hPa 0,0 l/m 18,1 km/h (3 Bft) SW 227 0 min 0,000 mm 0,0 UV-I 0 W/m 16,5 C 15,7 C 30,6 km/h (5 Bft) 97,87 %
31.08.2017 20:34 19,3 C 24,4 C 84 % 1015,2 hPa 0,0 l/m 16,0 km/h (3 Bft) SW 223 0 min 0,000 mm 0,0 UV-I 0 W/m 16,5 C 16,2 C 27,4 km/h (4 Bft) 95,74 %
31.08.2017 20:36 19,3 C 24,4 C 85 % 1015,3 hPa 0,0 l/m 14,8 km/h (3 Bft) W 262 0 min 0,000 mm 0,0 UV-I 0 W/m 16,7 C 16,5 C 20,9 km/h (4 Bft) 100,00 %
31.08.2017 20:38 19,3 C 24,4 C 84 % 1015,3 hPa 0,0 l/m 15,0 km/h (3 Bft) SW 234 0 min 0,000 mm 0,0 UV-I 0 W/m 16,5 C 16,4 C 27,4 km/h (4 Bft) 100,00 %
31.08.2017 20:40 19,3 C 24,4 C 84 % 1015,3 hPa 0,0 l/m 16,3 km/h (3 Bft) SW 235 0 min 0,000 mm 0,0 UV-I 0 W/m 16,5 C 16,1 C 24,1 km/h (4 Bft) 100,00 %
31.08.2017 20:42 19,3 C 24,4 C 84 % 1015,4 hPa 0,0 l/m 15,1 km/h (3 Bft) W-SW 240 0 min 0,000 mm 0,0 UV-I 0 W/m 16,5 C 16,4 C 20,9 km/h (4 Bft) 100,00 %
31.08.2017 20:44 19,3 C 24,4 C 84 % 1015,4 hPa 0,0 l/m 15,4 km/h (3 Bft) SW 229 0 min 0,000 mm 0,0 UV-I 0 W/m 16,5 C 16,3 C 24,1 km/h (4 Bft) 100,00 %
31.08.2017 20:46 19,3 C 24,4 C 84 % 1015,5 hPa 0,0 l/m 14,9 km/h (3 Bft) SW 225 0 min 0,000 mm 0,0 UV-I 0 W/m 16,5 C 16,4 C 22,5 km/h (4 Bft) 97,87 %
31.08.2017 20:48 19,3 C 24,4 C 84 % 1015,5 hPa 0,0 l/m 13,5 km/h (3 Bft) SW 223 0 min 0,000 mm 0,0 UV-I 0 W/m 16,5 C 16,8 C 20,9 km/h (4 Bft) 98,11 %
31.08.2017 20:50 19,3 C 24,4 C 84 % 1015,4 hPa 0,0 l/m 16,2 km/h (3 Bft) SW 220 0 min 0,000 mm 0,0 UV-I 0 W/m 16,5 C 16,1 C 22,5 km/h (4 Bft) 97,87 %
31.08.2017 20:52 19,3 C 24,4 C 84 % 1015,5 hPa 0,0 l/m 18,5 km/h (3 Bft) SW 232 0 min 0,000 mm 0,0 UV-I 0 W/m 16,5 C 15,6 C 30,6 km/h (5 Bft) 100,00 %
31.08.2017 20:54 19,3 C 24,4 C 84 % 1015,5 hPa 0,0 l/m 18,7 km/h (3 Bft) W 260 0 min 0,000 mm 0,0 UV-I 0 W/m 16,5 C 15,6 C 25,7 km/h (4 Bft) 100,00 %
31.08.2017 20:56 19,3 C 24,4 C 84 % 1015,4 hPa 0,0 l/m 14,3 km/h (3 Bft) SW 225 0 min 0,000 mm 0,0 UV-I 0 W/m 16,5 C 16,6 C 22,5 km/h (4 Bft) 100,00 %
31.08.2017 20:58 19,3 C 24,4 C 84 % 1015,6 hPa 0,0 l/m 16,0 km/h (3 Bft) W 265 0 min 0,000 mm 0,0 UV-I 0 W/m 16,5 C 16,2 C 27,4 km/h (4 Bft) 100,00 %
31.08.2017 21:00 19,3 C 24,4 C 84 % 1015,6 hPa 0,0 l/m 16,8 km/h (3 Bft) S-SW 199 0 min 0,000 mm 0,0 UV-I 0 W/m 16,5 C 16,0 C 25,7 km/h (4 Bft) 97,87 %
31.08.2017 21:02 19,3 C 24,4 C 84 % 1015,6 hPa 0,0 l/m 17,3 km/h (3 Bft) W-NW 298 0 min 0,051 mm 0,0 UV-I 0 W/m 16,5 C 15,9 C 25,7 km/h (4 Bft) 98,04 %
31.08.2017 21:04 19,3 C 24,4 C 85 % 1015,7 hPa 0,0 l/m 14,8 km/h (3 Bft) W-SW 238 0 min 0,000 mm 0,0 UV-I 0 W/m 16,7 C 16,5 C 22,5 km/h (4 Bft) 93,62 %
31.08.2017 21:06 19,3 C 24,4 C 85 % 1015,7 hPa 0,0 l/m 16,3 km/h (3 Bft) SW 223 0 min 0,000 mm 0,0 UV-I 0 W/m 16,7 C 16,1 C 25,7 km/h (4 Bft) 97,87 %
31.08.2017 21:08 19,3 C 24,4 C 85 % 1015,7 hPa 0,0 l/m 15,9 km/h (3 Bft) NO 38 0 min 0,000 mm 0,0 UV-I 0 W/m 16,7 C 16,2 C 25,7 km/h (4 Bft) 95,74 %
31.08.2017 21:10 19,2 C 24,4 C 84 % 1015,9 hPa 0,0 l/m 16,2 km/h (3 Bft) W-SW 258 0 min 0,000 mm 0,0 UV-I 0 W/m 16,4 C 16,0 C 22,5 km/h (4 Bft) 94,74 %
31.08.2017 21:12 19,3 C 24,4 C 85 % 1015,9 hPa 0,0 l/m 18,7 km/h (3 Bft) SW 232 0 min 0,000 mm 0,0 UV-I 0 W/m 16,7 C 15,6 C 27,4 km/h (4 Bft) 93,75 %
31.08.2017 21:14 19,2 C 24,4 C 85 % 1015,9 hPa 0,0 l/m 16,4 km/h (3 Bft) SW 218 0 min 0,000 mm 0,0 UV-I 0 W/m 16,6 C 15,9 C 25,7 km/h (4 Bft) 98,00 %
31.08.2017 21:16 19,2 C 24,4 C 85 % 1016,0 hPa 0,0 l/m 19,7 km/h (3 Bft) W 266 0 min 0,000 mm 0,0 UV-I 0 W/m 16,6 C 15,2 C 27,4 km/h (4 Bft) 98,00 %
31.08.2017 21:18 19,2 C 24,4 C 85 % 1015,9 hPa 0,0 l/m 14,1 km/h (3 Bft) S-SW 205 0 min 0,000 mm 0,0 UV-I 0 W/m 16,6 C 16,5 C 20,9 km/h (4 Bft) 97,87 %
31.08.2017 21:20 19,2 C 24,4 C 85 % 1015,9 hPa 0,0 l/m 16,2 km/h (3 Bft) W 264 0 min 0,000 mm 0,0 UV-I 0 W/m 16,6 C 16,0 C 25,7 km/h (4 Bft) 94,29 %
31.08.2017 21:22 19,2 C 24,4 C 85 % 1015,8 hPa 0,0 l/m 14,3 km/h (3 Bft) W-SW 248 0 min 0,000 mm 0,0 UV-I 0 W/m 16,6 C 16,5 C 22,5 km/h (4 Bft) 98,04 %
31.08.2017 21:24 19,2 C 24,4 C 85 % 1015,9 hPa 0,0 l/m 16,8 km/h (3 Bft) W-SW 246 0 min 0,000 mm 0,0 UV-I 0 W/m 16,6 C 15,8 C 24,1 km/h (4 Bft) 95,92 %
31.08.2017 21:26 19,2 C 24,4 C 85 % 1015,8 hPa 0,0 l/m 13,0 km/h (3 Bft) W-SW 254 0 min 0,000 mm 0,0 UV-I 0 W/m 16,6 C 16,8 C 24,1 km/h (4 Bft) 97,87 %
31.08.2017 21:28 19,2 C 24,4 C 85 % 1015,7 hPa 0,0 l/m 11,9 km/h (2 Bft) W-SW 258 0 min 0,000 mm 0,0 UV-I 0 W/m 16,6 C 17,1 C 19,3 km/h (3 Bft) 95,83 %
31.08.2017 21:30 19,2 C 24,4 C 85 % 1015,7 hPa 0,0 l/m 9,8 km/h (2 Bft) W-SW 254 0 min 0,000 mm 0,0 UV-I 0 W/m 16,6 C 17,8 C 16,1 km/h (3 Bft) 97,87 %
31.08.2017 21:32 19,2 C 24,4 C 85 % 1015,7 hPa 0,0 l/m 12,8 km/h (3 Bft) SW 230 0 min 0,000 mm 0,0 UV-I 0 W/m 16,6 C 16,9 C 19,3 km/h (3 Bft) 97,87 %
31.08.2017 21:34 19,2 C 24,4 C 85 % 1015,8 hPa 0,0 l/m 14,2 km/h (3 Bft) W 267 0 min 0,000 mm 0,0 UV-I 0 W/m 16,6 C 16,5 C 22,5 km/h (4 Bft) 97,87 %
31.08.2017 21:36 19,2 C 24,4 C 85 % 1015,7 hPa 0,0 l/m 14,9 km/h (3 Bft) W-SW 251 0 min 0,000 mm 0,0 UV-I 0 W/m 16,6 C 16,3 C 24,1 km/h (4 Bft) 100,00 %
31.08.2017 21:38 19,2 C 24,4 C 85 % 1015,8 hPa 0,0 l/m 19,9 km/h (4 Bft) W-SW 241 0 min 0,000 mm 0,0 UV-I 0 W/m 16,6 C 15,2 C 29,0 km/h (5 Bft) 97,87 %
31.08.2017 21:40 19,2 C 24,4 C 85 % 1015,9 hPa 0,0 l/m 16,4 km/h (3 Bft) SW 231 0 min 0,000 mm 0,0 UV-I 0 W/m 16,6 C 15,9 C 30,6 km/h (5 Bft) 100,00 %
31.08.2017 21:42 19,1 C 23,9 C 85 % 1015,9 hPa 0,0 l/m 12,6 km/h (3 Bft) S-SW 202 0 min 0,000 mm 0,0 UV-I 0 W/m 16,5 C 16,8 C 27,4 km/h (4 Bft) 97,87 %
31.08.2017 21:44 19,1 C 23,9 C 85 % 1015,9 hPa 0,0 l/m 14,8 km/h (3 Bft) W 269 0 min 0,000 mm 0,0 UV-I 0 W/m 16,5 C 16,2 C 22,5 km/h (4 Bft) 97,87 %
31.08.2017 21:46 18,9 C 23,9 C 85 % 1015,8 hPa 0,0 l/m 12,6 km/h (3 Bft) NW 304 0 min 0,000 mm 0,0 UV-I 0 W/m 16,3 C 16,6 C 19,3 km/h (3 Bft) 100,00 %
31.08.2017 21:48 18,9 C 24,4 C 85 % 1015,8 hPa 0,0 l/m 11,7 km/h (2 Bft) W-SW 252 0 min 0,000 mm 0,0 UV-I 0 W/m 16,3 C 16,9 C 22,5 km/h (4 Bft) 100,00 %
31.08.2017 21:50 18,8 C 24,4 C 85 % 1015,8 hPa 0,0 l/m 14,4 km/h (3 Bft) SW 228 0 min 0,000 mm 0,0 UV-I 0 W/m 16,2 C 16,0 C 20,9 km/h (4 Bft) 100,00 %
31.08.2017 21:52 18,7 C 23,9 C 85 % 1015,8 hPa 0,0 l/m 15,1 km/h (3 Bft) W-SW 250 0 min 0,000 mm 0,0 UV-I 0 W/m 16,1 C 15,6 C 22,5 km/h (4 Bft) 100,00 %
31.08.2017 21:54 18,6 C 23,9 C 85 % 1015,8 hPa 0,0 l/m 13,9 km/h (3 Bft) W-SW 245 0 min 0,000 mm 0,0 UV-I 0 W/m 16,0 C 15,9 C 22,5 km/h (4 Bft) 100,00 %
31.08.2017 21:56 18,5 C 24,4 C 85 % 1015,8 hPa 0,0 l/m 10,3 km/h (2 Bft) SW 228 0 min 0,000 mm 0,0 UV-I 0 W/m 15,9 C 16,9 C 17,7 km/h (3 Bft) 95,74 %
31.08.2017 21:58 18,4 C 24,4 C 85 % 1015,9 hPa 0,0 l/m 11,6 km/h (2 Bft) W-SW 256 0 min 0,000 mm 0,0 UV-I 0 W/m 15,8 C 16,3 C 19,3 km/h (3 Bft) 97,87 %
31.08.2017 22:00 18,3 C 24,4 C 85 % 1016,0 hPa 0,0 l/m 12,1 km/h (2 Bft) W 267 0 min 0,000 mm 0,0 UV-I 0 W/m 15,7 C 16,0 C 25,7 km/h (4 Bft) 97,87 %
31.08.2017 22:02 18,2 C 23,9 C 85 % 1016,0 hPa 0,0 l/m 15,2 km/h (3 Bft) W 275 0 min 0,026 mm 0,0 UV-I 0 W/m 15,6 C 15,0 C 24,1 km/h (4 Bft) 97,37 %
31.08.2017 22:04 18,2 C 23,9 C 86 % 1016,0 hPa 0,0 l/m 9,5 km/h (2 Bft) W 267 0 min 0,000 mm 0,0 UV-I 0 W/m 15,8 C 16,8 C 16,1 km/h (3 Bft) 100,00 %
31.08.2017 22:06 18,1 C 23,9 C 85 % 1016,0 hPa 0,0 l/m 11,9 km/h (2 Bft) SW 226 0 min 0,000 mm 0,0 UV-I 0 W/m 15,5 C 15,9 C 17,7 km/h (3 Bft) 100,00 %
31.08.2017 22:08 18,0 C 23,9 C 86 % 1016,1 hPa 0,0 l/m 14,6 km/h (3 Bft) SW 229 0 min 0,000 mm 0,0 UV-I 0 W/m 15,6 C 14,9 C 19,3 km/h (3 Bft) 100,00 %
31.08.2017 22:10 17,9 C 23,9 C 86 % 1016,0 hPa 0,0 l/m 15,7 km/h (3 Bft) W-SW 250 0 min 0,000 mm 0,0 UV-I 0 W/m 15,5 C 14,5 C 22,5 km/h (4 Bft) 100,00 %
31.08.2017 22:12 17,8 C 23,9 C 86 % 1016,0 hPa 0,0 l/m 11,6 km/h (2 Bft) W 264 0 min 0,000 mm 0,0 UV-I 0 W/m 15,4 C 15,6 C 22,5 km/h (4 Bft) 100,00 %
31.08.2017 22:14 17,8 C 23,9 C 86 % 1016,2 hPa 0,0 l/m 18,9 km/h (3 Bft) W-SW 243 0 min 0,000 mm 0,0 UV-I 0 W/m 15,4 C 13,6 C 25,7 km/h (4 Bft) 98,00 %
31.08.2017 22:16 17,7 C 23,9 C 86 % 1016,2 hPa 0,0 l/m 13,9 km/h (3 Bft) N-NW 332 0 min 0,000 mm 0,0 UV-I 0 W/m 15,3 C 14,8 C 19,3 km/h (3 Bft) 100,00 %
31.08.2017 22:18 17,7 C 23,9 C 86 % 1016,3 hPa 0,0 l/m 11,0 km/h (2 Bft) W-SW 257 0 min 0,000 mm 0,0 UV-I 0 W/m 15,3 C 15,7 C 19,3 km/h (3 Bft) 97,87 %
31.08.2017 22:20 17,6 C 23,9 C 86 % 1016,3 hPa 0,0 l/m 15,5 km/h (3 Bft) W-SW 250 0 min 0,000 mm 0,0 UV-I 0 W/m 15,2 C 14,2 C 20,9 km/h (4 Bft) 98,00 %
31.08.2017 22:22 17,6 C 23,9 C 86 % 1016,3 hPa 0,0 l/m 15,3 km/h (3 Bft) W-SW 245 0 min 0,000 mm 0,0 UV-I 0 W/m 15,2 C 14,3 C 30,6 km/h (5 Bft) 97,87 %
31.08.2017 22:24 17,5 C 23,9 C 86 % 1016,5 hPa 0,0 l/m 14,4 km/h (3 Bft) W 263 0 min 0,000 mm 0,0 UV-I 0 W/m 15,1 C 14,4 C 20,9 km/h (4 Bft) 97,87 %
31.08.2017 22:26 17,5 C 23,9 C 86 % 1016,5 hPa 0,0 l/m 14,9 km/h (3 Bft) W-SW 241 0 min 0,000 mm 0,0 UV-I 0 W/m 15,1 C 14,2 C 22,5 km/h (4 Bft) 95,74 %
31.08.2017 22:28 17,4 C 23,9 C 86 % 1016,4 hPa 0,0 l/m 16,9 km/h (3 Bft) W-SW 258 0 min 0,000 mm 0,0 UV-I 0 W/m 15,0 C 13,6 C 27,4 km/h (4 Bft) 97,37 %
31.08.2017 22:30 17,3 C 23,9 C 86 % 1016,5 hPa 0,0 l/m 13,7 km/h (3 Bft) W-SW 245 0 min 0,000 mm 0,0 UV-I 0 W/m 14,9 C 14,4 C 24,1 km/h (4 Bft) 93,62 %
31.08.2017 22:32 17,3 C 23,9 C 86 % 1016,5 hPa 0,0 l/m 14,3 km/h (3 Bft) W-SW 252 0 min 0,000 mm 0,0 UV-I 0 W/m 14,9 C 14,2 C 22,5 km/h (4 Bft) 93,62 %
31.08.2017 22:34 17,2 C 23,9 C 86 % 1016,6 hPa 0,0 l/m 16,2 km/h (3 Bft) W-SW 247 0 min 0,000 mm 0,0 UV-I 0 W/m 14,8 C 13,5 C 25,7 km/h (4 Bft) 97,87 %
31.08.2017 22:36 17,2 C 23,9 C 86 % 1016,7 hPa 0,0 l/m 11,1 km/h (2 Bft) W-SW 252 0 min 0,000 mm 0,0 UV-I 0 W/m 14,8 C 15,1 C 19,3 km/h (3 Bft) 97,87 %
31.08.2017 22:38 17,2 C 23,9 C 86 % 1016,7 hPa 0,0 l/m 15,5 km/h (3 Bft) W-SW 250 0 min 0,000 mm 0,0 UV-I 0 W/m 14,8 C 13,7 C 20,9 km/h (4 Bft) 97,96 %
31.08.2017 22:40 17,1 C 23,9 C 86 % 1016,8 hPa 0,0 l/m 11,5 km/h (2 Bft) W-SW 250 0 min 0,000 mm 0,0 UV-I 0 W/m 14,7 C 14,9 C 17,7 km/h (3 Bft) 95,74 %
31.08.2017 22:42 17,1 C 23,9 C 86 % 1016,8 hPa 0,0 l/m 7,9 km/h (2 Bft) SW 219 0 min 0,000 mm 0,0 UV-I 0 W/m 14,7 C 16,4 C 12,9 km/h (3 Bft) 95,74 %
31.08.2017 22:44 17,1 C 23,9 C 86 % 1016,9 hPa 0,0 l/m 11,1 km/h (2 Bft) W-SW 238 0 min 0,000 mm 0,0 UV-I 0 W/m 14,7 C 15,0 C 17,7 km/h (3 Bft) 97,87 %
31.08.2017 22:46 17,1 C 23,9 C 86 % 1016,9 hPa 0,0 l/m 13,0 km/h (3 Bft) W 259 0 min 0,000 mm 0,0 UV-I 0 W/m 14,7 C 14,4 C 17,7 km/h (3 Bft) 97,87 %
31.08.2017 22:48 17,1 C 23,9 C 87 % 1016,9 hPa 0,0 l/m 12,5 km/h (3 Bft) W 260 0 min 0,000 mm 0,0 UV-I 0 W/m 14,9 C 14,5 C 17,7 km/h (3 Bft) 94,87 %
31.08.2017 22:50 17,1 C 23,9 C 86 % 1016,9 hPa 0,0 l/m 11,5 km/h (2 Bft) W-SW 241 0 min 0,000 mm 0,0 UV-I 0 W/m 14,7 C 14,9 C 20,9 km/h (4 Bft) 98,00 %
31.08.2017 22:52 17,1 C 23,9 C 87 % 1016,9 hPa 0,0 l/m 11,4 km/h (2 Bft) SW 236 0 min 0,000 mm 0,0 UV-I 0 W/m 14,9 C 14,9 C 17,7 km/h (3 Bft) 97,87 %
31.08.2017 22:54 17,1 C 23,9 C 87 % 1016,9 hPa 0,0 l/m 12,4 km/h (3 Bft) SW 234 0 min 0,000 mm 0,0 UV-I 0 W/m 14,9 C 14,6 C 17,7 km/h (3 Bft) 96,00 %
31.08.2017 22:56 17,1 C 23,9 C 87 % 1016,9 hPa 0,0 l/m 9,7 km/h (2 Bft) W-SW 241 0 min 0,000 mm 0,0 UV-I 0 W/m 14,9 C 15,6 C 16,1 km/h (3 Bft) 97,96 %
31.08.2017 22:58 17,0 C 23,9 C 87 % 1016,8 hPa 0,0 l/m 10,4 km/h (2 Bft) SW 227 0 min 0,000 mm 0,0 UV-I 0 W/m 14,8 C 15,2 C 16,1 km/h (3 Bft) 97,87 %
31.08.2017 23:00 17,0 C 23,9 C 87 % 1016,8 hPa 0,0 l/m 8,1 km/h (2 Bft) S-SW 213 0 min 0,000 mm 0,0 UV-I 0 W/m 14,8 C 16,2 C 12,9 km/h (3 Bft) 97,87 %
31.08.2017 23:02 17,0 C 23,9 C 87 % 1016,8 hPa 0,0 l/m 12,0 km/h (2 Bft) W-SW 248 0 min 0,025 mm 0,0 UV-I 0 W/m 14,8 C 14,6 C 19,3 km/h (3 Bft) 95,74 %
31.08.2017 23:04 16,9 C 23,9 C 87 % 1016,9 hPa 0,0 l/m 8,2 km/h (2 Bft) SW 236 0 min 0,000 mm 0,0 UV-I 0 W/m 14,7 C 16,0 C 12,9 km/h (3 Bft) 95,74 %
31.08.2017 23:06 16,9 C 23,9 C 87 % 1016,8 hPa 0,0 l/m 7,8 km/h (2 Bft) S-SW 205 0 min 0,000 mm 0,0 UV-I 0 W/m 14,7 C 16,2 C 12,9 km/h (3 Bft) 91,84 %
31.08.2017 23:08 16,9 C 23,9 C 87 % 1016,8 hPa 0,0 l/m 9,0 km/h (2 Bft) SW 236 0 min 0,000 mm 0,0 UV-I 0 W/m 14,7 C 15,6 C 12,9 km/h (3 Bft) 94,74 %
31.08.2017 23:10 16,9 C 23,9 C 87 % 1016,7 hPa 0,0 l/m 7,7 km/h (2 Bft) W-SW 252 0 min 0,000 mm 0,0 UV-I 0 W/m 14,7 C 16,2 C 14,5 km/h (3 Bft) 96,00 %
31.08.2017 23:12 16,9 C 23,9 C 87 % 1016,8 hPa 0,0 l/m 10,6 km/h (2 Bft) W-SW 239 0 min 0,000 mm 0,0 UV-I 0 W/m 14,7 C 15,0 C 19,3 km/h (3 Bft) 95,74 %
31.08.2017 23:14 16,9 C 23,9 C 87 % 1016,8 hPa 0,0 l/m 9,6 km/h (2 Bft) W 262 0 min 0,000 mm 0,0 UV-I 0 W/m 14,7 C 15,4 C 14,5 km/h (3 Bft) 91,84 %
31.08.2017 23:16 16,9 C 23,9 C 87 % 1016,8 hPa 0,0 l/m 10,3 km/h (2 Bft) W-SW 243 0 min 0,000 mm 0,0 UV-I 0 W/m 14,7 C 15,1 C 16,1 km/h (3 Bft) 95,74 %
31.08.2017 23:18 16,8 C 23,9 C 87 % 1016,8 hPa 0,0 l/m 10,5 km/h (2 Bft) W 259 0 min 0,000 mm 0,0 UV-I 0 W/m 14,6 C 14,9 C 19,3 km/h (3 Bft) 95,74 %
31.08.2017 23:20 16,8 C 23,9 C 87 % 1016,8 hPa 0,0 l/m 8,6 km/h (2 Bft) S-SW 213 0 min 0,000 mm 0,0 UV-I 0 W/m 14,6 C 15,7 C 14,5 km/h (3 Bft) 94,00 %
31.08.2017 23:22 16,8 C 23,9 C 88 % 1016,9 hPa 0,0 l/m 9,4 km/h (2 Bft) W-SW 245 0 min 0,000 mm 0,0 UV-I 0 W/m 14,8 C 15,4 C 17,7 km/h (3 Bft) 95,74 %
31.08.2017 23:24 16,8 C 23,9 C 88 % 1016,8 hPa 0,0 l/m 8,2 km/h (2 Bft) S-SW 213 0 min 0,000 mm 0,0 UV-I 0 W/m 14,8 C 15,9 C 12,9 km/h (3 Bft) 97,56 %
31.08.2017 23:26 16,8 C 23,9 C 88 % 1016,7 hPa 0,0 l/m 7,7 km/h (2 Bft) W-SW 239 0 min 0,000 mm 0,0 UV-I 0 W/m 14,8 C 16,1 C 11,3 km/h (2 Bft) 97,87 %
31.08.2017 23:28 16,8 C 23,9 C 88 % 1016,6 hPa 0,0 l/m 9,5 km/h (2 Bft) W-SW 250 0 min 0,000 mm 0,0 UV-I 0 W/m 14,8 C 15,3 C 16,1 km/h (3 Bft) 98,00 %
31.08.2017 23:30 16,8 C 23,9 C 88 % 1016,5 hPa 0,0 l/m 8,7 km/h (2 Bft) W-SW 252 0 min 0,000 mm 0,0 UV-I 0 W/m 14,8 C 15,7 C 16,1 km/h (3 Bft) 97,87 %
31.08.2017 23:32 16,8 C 23,9 C 88 % 1016,4 hPa 0,0 l/m 8,1 km/h (2 Bft) W 267 0 min 0,000 mm 0,0 UV-I 0 W/m 14,8 C 15,9 C 12,9 km/h (3 Bft) 98,00 %
31.08.2017 23:34 16,8 C 23,9 C 88 % 1016,4 hPa 0,0 l/m 10,3 km/h (2 Bft) W-SW 252 0 min 0,000 mm 0,0 UV-I 0 W/m 14,8 C 15,0 C 16,1 km/h (3 Bft) 97,30 %
31.08.2017 23:36 16,8 C 23,9 C 88 % 1016,4 hPa 0,0 l/m 9,9 km/h (2 Bft) W 261 0 min 0,000 mm 0,0 UV-I 0 W/m 14,8 C 15,1 C 16,1 km/h (3 Bft) 100,00 %
31.08.2017 23:38 16,7 C 23,9 C 89 % 1016,4 hPa 0,0 l/m 9,9 km/h (2 Bft) W-SW 242 0 min 0,000 mm 0,0 UV-I 0 W/m 14,9 C 15,0 C 16,1 km/h (3 Bft) 97,87 %
31.08.2017 23:40 16,7 C 23,9 C 89 % 1016,4 hPa 0,0 l/m 9,5 km/h (2 Bft) SW 232 0 min 0,000 mm 0,0 UV-I 0 W/m 14,9 C 15,2 C 16,1 km/h (3 Bft) 100,00 %
31.08.2017 23:42 16,7 C 23,9 C 89 % 1016,5 hPa 0,0 l/m 10,6 km/h (2 Bft) W-SW 246 0 min 0,000 mm 0,0 UV-I 0 W/m 14,9 C 14,8 C 14,5 km/h (3 Bft) 93,62 %
31.08.2017 23:44 16,7 C 23,9 C 89 % 1016,5 hPa 0,0 l/m 7,7 km/h (2 Bft) W-SW 244 0 min 0,000 mm 0,0 UV-I 0 W/m 14,9 C 16,0 C 14,5 km/h (3 Bft) 97,87 %
31.08.2017 23:46 16,7 C 23,9 C 89 % 1016,5 hPa 0,0 l/m 7,3 km/h (2 Bft) SW 233 0 min 0,000 mm 0,0 UV-I 0 W/m 14,9 C 16,2 C 14,5 km/h (3 Bft) 100,00 %
31.08.2017 23:48 16,7 C 23,9 C 89 % 1016,5 hPa 0,0 l/m 6,7 km/h (2 Bft) SW 232 0 min 0,000 mm 0,0 UV-I 0 W/m 14,9 C 16,6 C 11,3 km/h (2 Bft) 97,87 %
31.08.2017 23:50 16,6 C 23,9 C 89 % 1016,5 hPa 0,0 l/m 5,6 km/h (1 Bft) W-SW 254 0 min 0,000 mm 0,0 UV-I 0 W/m 14,8 C 16,6 C 11,3 km/h (2 Bft) 100,00 %
31.08.2017 23:52 16,6 C 23,9 C 89 % 1016,4 hPa 0,0 l/m 6,1 km/h (2 Bft) W-SW 250 0 min 0,000 mm 0,0 UV-I 0 W/m 14,8 C 16,6 C 11,3 km/h (2 Bft) 97,87 %
31.08.2017 23:54 16,6 C 23,9 C 89 % 1016,4 hPa 0,0 l/m 7,1 km/h (2 Bft) W-SW 254 0 min 0,000 mm 0,0 UV-I 0 W/m 14,8 C 16,2 C 11,3 km/h (2 Bft) 95,74 %
31.08.2017 23:56 16,6 C 23,9 C 89 % 1016,5 hPa 0,0 l/m 8,3 km/h (2 Bft) SW 215 0 min 0,000 mm 0,0 UV-I 0 W/m 14,8 C 15,6 C 11,3 km/h (2 Bft) 100,00 %
31.08.2017 23:58 16,6 C 23,9 C 89 % 1016,4 hPa 0,0 l/m 7,5 km/h (2 Bft) SW 236 0 min 0,000 mm 0,0 UV-I 0 W/m 14,8 C 16,0 C 12,9 km/h (3 Bft) 95,74 %
_ Min-Zeit 03:16 07:24 16:12 01:18 - 00:02 - - - - - - 03:16 05:28 00:02 15:12
Minimum _ 15,2 C 22,8 C 53 % 1008,8 hPa - 0,0 km/h (0 Bft) - - - - - - 13,7 C 12,4 C 0,0 km/h (0 Bft) 89,47 %
_ Max-Zeit 15:14 15:20 04:12 22:44 16:56 19:38 - - 06:32 13:00 12:48 12:48 13:26 15:12 19:38 00:02
Maximum _ 28,9 C 25,0 C 93 % 1016,9 hPa 0,8 l/m 23,2 km/h
W-SW (4 Bft)
- - 2 min 0,483 mm 4,8 UV-I 734 W/m 20,7 C 28,8 C 35,4 km/h
SW (5 Bft)
100,00 %
Durchschnitt _ 20,6 C 23,9 C 81 % 1011,6 hPa #3,0 l/m 7,7 km/h (2 Bft) W-SW - #10:00 h #3,683 mm 3,0 UV-I 358 W/m 17,0 C 19,7 C 12,7 km/h (3 Bft) 97,81 %